<?xml version="1.0" encoding="UTF-8"?>
<gpx version="1.1" creator="https://www.youtrack.es" xsi:schemaLocation="http://www.topografix.com/GPX/1/1 http://www.topografix.com/GPX/1/1/gpx.xsd http://www.garmin.com/xmlschemas/GpxExtensions/v3 http://www.garmin.com/xmlschemas/GpxExtensionsv3.xsd http://www.garmin.com/xmlschemas/TrackPointExtension/v1 http://www.garmin.com/xmlschemas/TrackPointExtensionv1.xsd" xmlns:gpxtpx="http://www.garmin.com/xmlschemas/TrackPointExtension/v1" xmlns:gpxx="http://www.garmin.com/xmlschemas/GpxExtensions/v3" xmlns:xsi="http://www.w3.org/2001/XMLSchema-instance">
  <metadata>
    <link href="https://www.youtrack.es">
      <text>YouTrack.es</text>
    </link>
    <time>2026-05-09T01:11:33Z</time>
  </metadata>
  <trk>
    <src>https://www.youtrack.es</src>
    <link href="https://www.youtrack.es/ruta/39486-lagunekaz">
      <text>YouTrack.es</text>
    </link>
    <trkseg>
      <trkpt lat="43.29994" lon="-2.628705">
        <time>2023-01-08T10:06:08Z</time>
      </trkpt>
      <trkpt lat="43.299942" lon="-2.6287484">
        <time>2023-01-08T10:06:09Z</time>
      </trkpt>
      <trkpt lat="43.299942" lon="-2.6287577">
        <time>2023-01-08T10:06:10Z</time>
      </trkpt>
      <trkpt lat="43.299942" lon="-2.628777">
        <time>2023-01-08T10:06:11Z</time>
      </trkpt>
      <trkpt lat="43.299942" lon="-2.6288033">
        <time>2023-01-08T10:06:12Z</time>
      </trkpt>
      <trkpt lat="43.299942" lon="-2.6288338">
        <time>2023-01-08T10:06:13Z</time>
      </trkpt>
      <trkpt lat="43.299942" lon="-2.6288686">
        <time>2023-01-08T10:06:14Z</time>
      </trkpt>
      <trkpt lat="43.299942" lon="-2.6289043">
        <time>2023-01-08T10:06:15Z</time>
      </trkpt>
      <trkpt lat="43.299946" lon="-2.6289754">
        <time>2023-01-08T10:06:17Z</time>
      </trkpt>
      <trkpt lat="43.299973" lon="-2.6290762">
        <time>2023-01-08T10:06:20Z</time>
      </trkpt>
      <trkpt lat="43.299995" lon="-2.6291444">
        <time>2023-01-08T10:06:22Z</time>
      </trkpt>
      <trkpt lat="43.300014" lon="-2.629222">
        <time>2023-01-08T10:06:24Z</time>
      </trkpt>
      <trkpt lat="43.30003" lon="-2.6293154">
        <time>2023-01-08T10:06:26Z</time>
      </trkpt>
      <trkpt lat="43.300045" lon="-2.629398">
        <time>2023-01-08T10:06:28Z</time>
      </trkpt>
      <trkpt lat="43.300064" lon="-2.629478">
        <time>2023-01-08T10:06:30Z</time>
      </trkpt>
      <trkpt lat="43.30008" lon="-2.6295667">
        <time>2023-01-08T10:06:32Z</time>
      </trkpt>
      <trkpt lat="43.300095" lon="-2.6296637">
        <time>2023-01-08T10:06:34Z</time>
      </trkpt>
      <trkpt lat="43.30012" lon="-2.6297617">
        <time>2023-01-08T10:06:36Z</time>
      </trkpt>
      <trkpt lat="43.300156" lon="-2.629898">
        <time>2023-01-08T10:06:39Z</time>
      </trkpt>
      <trkpt lat="43.300182" lon="-2.629986">
        <time>2023-01-08T10:06:41Z</time>
      </trkpt>
      <trkpt lat="43.30022" lon="-2.6301174">
        <time>2023-01-08T10:06:44Z</time>
      </trkpt>
      <trkpt lat="43.300236" lon="-2.6302016">
        <time>2023-01-08T10:06:46Z</time>
      </trkpt>
      <trkpt lat="43.300255" lon="-2.6302826">
        <time>2023-01-08T10:06:48Z</time>
      </trkpt>
      <trkpt lat="43.300274" lon="-2.6304138">
        <time>2023-01-08T10:06:51Z</time>
      </trkpt>
      <trkpt lat="43.300316" lon="-2.630541">
        <time>2023-01-08T10:06:54Z</time>
      </trkpt>
      <trkpt lat="43.30035" lon="-2.6306283">
        <time>2023-01-08T10:06:56Z</time>
      </trkpt>
      <trkpt lat="43.300385" lon="-2.6307147">
        <time>2023-01-08T10:06:58Z</time>
      </trkpt>
      <trkpt lat="43.300415" lon="-2.6307998">
        <time>2023-01-08T10:07:00Z</time>
      </trkpt>
      <trkpt lat="43.300446" lon="-2.630889">
        <time>2023-01-08T10:07:02Z</time>
      </trkpt>
      <trkpt lat="43.30047" lon="-2.6309793">
        <time>2023-01-08T10:07:04Z</time>
      </trkpt>
      <trkpt lat="43.30047" lon="-2.6311114">
        <time>2023-01-08T10:07:07Z</time>
      </trkpt>
      <trkpt lat="43.30047" lon="-2.6312444">
        <time>2023-01-08T10:07:10Z</time>
      </trkpt>
      <trkpt lat="43.3005" lon="-2.6313696">
        <time>2023-01-08T10:07:13Z</time>
      </trkpt>
      <trkpt lat="43.300564" lon="-2.6315026">
        <time>2023-01-08T10:07:16Z</time>
      </trkpt>
      <trkpt lat="43.300625" lon="-2.631582">
        <time>2023-01-08T10:07:18Z</time>
      </trkpt>
      <trkpt lat="43.300674" lon="-2.631645">
        <time>2023-01-08T10:07:20Z</time>
      </trkpt>
      <trkpt lat="43.30076" lon="-2.6317272">
        <time>2023-01-08T10:07:23Z</time>
      </trkpt>
      <trkpt lat="43.300808" lon="-2.6317828">
        <time>2023-01-08T10:07:25Z</time>
      </trkpt>
      <trkpt lat="43.300888" lon="-2.6318598">
        <time>2023-01-08T10:07:28Z</time>
      </trkpt>
      <trkpt lat="43.30097" lon="-2.6319327">
        <time>2023-01-08T10:07:31Z</time>
      </trkpt>
      <trkpt lat="43.301018" lon="-2.631981">
        <time>2023-01-08T10:07:33Z</time>
      </trkpt>
      <trkpt lat="43.30106" lon="-2.6320283">
        <time>2023-01-08T10:07:35Z</time>
      </trkpt>
      <trkpt lat="43.301098" lon="-2.6320786">
        <time>2023-01-08T10:07:37Z</time>
      </trkpt>
      <trkpt lat="43.301147" lon="-2.632134">
        <time>2023-01-08T10:07:39Z</time>
      </trkpt>
      <trkpt lat="43.301193" lon="-2.6321948">
        <time>2023-01-08T10:07:41Z</time>
      </trkpt>
      <trkpt lat="43.30126" lon="-2.6322703">
        <time>2023-01-08T10:07:44Z</time>
      </trkpt>
      <trkpt lat="43.301315" lon="-2.632298">
        <time>2023-01-08T10:07:46Z</time>
      </trkpt>
      <trkpt lat="43.301403" lon="-2.63236">
        <time>2023-01-08T10:07:49Z</time>
      </trkpt>
      <trkpt lat="43.301456" lon="-2.6324153">
        <time>2023-01-08T10:07:51Z</time>
      </trkpt>
      <trkpt lat="43.301537" lon="-2.6325054">
        <time>2023-01-08T10:07:54Z</time>
      </trkpt>
      <trkpt lat="43.30159" lon="-2.632559">
        <time>2023-01-08T10:07:56Z</time>
      </trkpt>
      <trkpt lat="43.301636" lon="-2.6325943">
        <time>2023-01-08T10:07:58Z</time>
      </trkpt>
      <trkpt lat="43.301697" lon="-2.632618">
        <time>2023-01-08T10:08:01Z</time>
      </trkpt>
      <trkpt lat="43.30177" lon="-2.6326637">
        <time>2023-01-08T10:08:04Z</time>
      </trkpt>
      <trkpt lat="43.301815" lon="-2.6327066">
        <time>2023-01-08T10:08:06Z</time>
      </trkpt>
      <trkpt lat="43.30186" lon="-2.6327517">
        <time>2023-01-08T10:08:08Z</time>
      </trkpt>
      <trkpt lat="43.301907" lon="-2.632794">
        <time>2023-01-08T10:08:10Z</time>
      </trkpt>
      <trkpt lat="43.30195" lon="-2.6328387">
        <time>2023-01-08T10:08:12Z</time>
      </trkpt>
      <trkpt lat="43.302006" lon="-2.6329207">
        <time>2023-01-08T10:08:15Z</time>
      </trkpt>
      <trkpt lat="43.30204" lon="-2.632981">
        <time>2023-01-08T10:08:17Z</time>
      </trkpt>
      <trkpt lat="43.302086" lon="-2.6330442">
        <time>2023-01-08T10:08:19Z</time>
      </trkpt>
      <trkpt lat="43.302135" lon="-2.6331043">
        <time>2023-01-08T10:08:21Z</time>
      </trkpt>
      <trkpt lat="43.302197" lon="-2.633181">
        <time>2023-01-08T10:08:24Z</time>
      </trkpt>
      <trkpt lat="43.302235" lon="-2.6332257">
        <time>2023-01-08T10:08:26Z</time>
      </trkpt>
      <trkpt lat="43.302315" lon="-2.633301">
        <time>2023-01-08T10:08:29Z</time>
      </trkpt>
      <trkpt lat="43.30236" lon="-2.633363">
        <time>2023-01-08T10:08:31Z</time>
      </trkpt>
      <trkpt lat="43.302437" lon="-2.633455">
        <time>2023-01-08T10:08:34Z</time>
      </trkpt>
      <trkpt lat="43.3025" lon="-2.6335354">
        <time>2023-01-08T10:08:37Z</time>
      </trkpt>
      <trkpt lat="43.302593" lon="-2.6336107">
        <time>2023-01-08T10:08:40Z</time>
      </trkpt>
      <trkpt lat="43.302692" lon="-2.6336453">
        <time>2023-01-08T10:08:43Z</time>
      </trkpt>
      <trkpt lat="43.302803" lon="-2.633659">
        <time>2023-01-08T10:08:46Z</time>
      </trkpt>
      <trkpt lat="43.302906" lon="-2.6336727">
        <time>2023-01-08T10:08:49Z</time>
      </trkpt>
      <trkpt lat="43.302998" lon="-2.6336856">
        <time>2023-01-08T10:08:52Z</time>
      </trkpt>
      <trkpt lat="43.30308" lon="-2.633708">
        <time>2023-01-08T10:08:55Z</time>
      </trkpt>
      <trkpt lat="43.303154" lon="-2.6337566">
        <time>2023-01-08T10:08:58Z</time>
      </trkpt>
      <trkpt lat="43.303204" lon="-2.6337914">
        <time>2023-01-08T10:09:00Z</time>
      </trkpt>
      <trkpt lat="43.303253" lon="-2.6338284">
        <time>2023-01-08T10:09:02Z</time>
      </trkpt>
      <trkpt lat="43.303307" lon="-2.6338663">
        <time>2023-01-08T10:09:04Z</time>
      </trkpt>
      <trkpt lat="43.303383" lon="-2.6339204">
        <time>2023-01-08T10:09:07Z</time>
      </trkpt>
      <trkpt lat="43.303432" lon="-2.6339576">
        <time>2023-01-08T10:09:09Z</time>
      </trkpt>
      <trkpt lat="43.303497" lon="-2.634">
        <time>2023-01-08T10:09:11Z</time>
      </trkpt>
      <trkpt lat="43.303577" lon="-2.6340728">
        <time>2023-01-08T10:09:14Z</time>
      </trkpt>
      <trkpt lat="43.303627" lon="-2.6341248">
        <time>2023-01-08T10:09:16Z</time>
      </trkpt>
      <trkpt lat="43.303677" lon="-2.6341784">
        <time>2023-01-08T10:09:18Z</time>
      </trkpt>
      <trkpt lat="43.303715" lon="-2.6342297">
        <time>2023-01-08T10:09:20Z</time>
      </trkpt>
      <trkpt lat="43.303783" lon="-2.6343083">
        <time>2023-01-08T10:09:23Z</time>
      </trkpt>
      <trkpt lat="43.303844" lon="-2.6343956">
        <time>2023-01-08T10:09:26Z</time>
      </trkpt>
      <trkpt lat="43.3039" lon="-2.6344807">
        <time>2023-01-08T10:09:29Z</time>
      </trkpt>
      <trkpt lat="43.30394" lon="-2.6345363">
        <time>2023-01-08T10:09:31Z</time>
      </trkpt>
      <trkpt lat="43.30398" lon="-2.634598">
        <time>2023-01-08T10:09:33Z</time>
      </trkpt>
      <trkpt lat="43.304054" lon="-2.6347036">
        <time>2023-01-08T10:09:36Z</time>
      </trkpt>
      <trkpt lat="43.304127" lon="-2.6348224">
        <time>2023-01-08T10:09:39Z</time>
      </trkpt>
      <trkpt lat="43.30418" lon="-2.6349428">
        <time>2023-01-08T10:09:42Z</time>
      </trkpt>
      <trkpt lat="43.304222" lon="-2.6350214">
        <time>2023-01-08T10:09:44Z</time>
      </trkpt>
      <trkpt lat="43.30428" lon="-2.6351414">
        <time>2023-01-08T10:09:47Z</time>
      </trkpt>
      <trkpt lat="43.304314" lon="-2.635227">
        <time>2023-01-08T10:09:49Z</time>
      </trkpt>
      <trkpt lat="43.30434" lon="-2.635309">
        <time>2023-01-08T10:09:51Z</time>
      </trkpt>
      <trkpt lat="43.30436" lon="-2.6353927">
        <time>2023-01-08T10:09:53Z</time>
      </trkpt>
      <trkpt lat="43.30439" lon="-2.635524">
        <time>2023-01-08T10:09:56Z</time>
      </trkpt>
      <trkpt lat="43.304405" lon="-2.6356096">
        <time>2023-01-08T10:09:58Z</time>
      </trkpt>
      <trkpt lat="43.30444" lon="-2.6356883">
        <time>2023-01-08T10:10:00Z</time>
      </trkpt>
      <trkpt lat="43.304462" lon="-2.6357667">
        <time>2023-01-08T10:10:02Z</time>
      </trkpt>
      <trkpt lat="43.304478" lon="-2.635845">
        <time>2023-01-08T10:10:04Z</time>
      </trkpt>
      <trkpt lat="43.304504" lon="-2.635965">
        <time>2023-01-08T10:10:07Z</time>
      </trkpt>
      <trkpt lat="43.304523" lon="-2.6360958">
        <time>2023-01-08T10:10:10Z</time>
      </trkpt>
      <trkpt lat="43.30454" lon="-2.6361856">
        <time>2023-01-08T10:10:12Z</time>
      </trkpt>
      <trkpt lat="43.304554" lon="-2.636323">
        <time>2023-01-08T10:10:15Z</time>
      </trkpt>
      <trkpt lat="43.30456" lon="-2.636459">
        <time>2023-01-08T10:10:18Z</time>
      </trkpt>
      <trkpt lat="43.30457" lon="-2.6366057">
        <time>2023-01-08T10:10:21Z</time>
      </trkpt>
      <trkpt lat="43.304585" lon="-2.6367064">
        <time>2023-01-08T10:10:23Z</time>
      </trkpt>
      <trkpt lat="43.3046" lon="-2.6367974">
        <time>2023-01-08T10:10:25Z</time>
      </trkpt>
      <trkpt lat="43.304634" lon="-2.6368816">
        <time>2023-01-08T10:10:27Z</time>
      </trkpt>
      <trkpt lat="43.304665" lon="-2.6369708">
        <time>2023-01-08T10:10:29Z</time>
      </trkpt>
      <trkpt lat="43.304684" lon="-2.637065">
        <time>2023-01-08T10:10:31Z</time>
      </trkpt>
      <trkpt lat="43.30471" lon="-2.637162">
        <time>2023-01-08T10:10:33Z</time>
      </trkpt>
      <trkpt lat="43.30473" lon="-2.6372666">
        <time>2023-01-08T10:10:35Z</time>
      </trkpt>
      <trkpt lat="43.304764" lon="-2.6373694">
        <time>2023-01-08T10:10:37Z</time>
      </trkpt>
      <trkpt lat="43.304794" lon="-2.6374633">
        <time>2023-01-08T10:10:39Z</time>
      </trkpt>
      <trkpt lat="43.30483" lon="-2.6375988">
        <time>2023-01-08T10:10:42Z</time>
      </trkpt>
      <trkpt lat="43.30483" lon="-2.637727">
        <time>2023-01-08T10:10:45Z</time>
      </trkpt>
      <trkpt lat="43.304806" lon="-2.6378558">
        <time>2023-01-08T10:10:48Z</time>
      </trkpt>
      <trkpt lat="43.30478" lon="-2.6379936">
        <time>2023-01-08T10:10:51Z</time>
      </trkpt>
      <trkpt lat="43.30477" lon="-2.6380928">
        <time>2023-01-08T10:10:53Z</time>
      </trkpt>
      <trkpt lat="43.304764" lon="-2.6381993">
        <time>2023-01-08T10:10:55Z</time>
      </trkpt>
      <trkpt lat="43.304794" lon="-2.638338">
        <time>2023-01-08T10:10:58Z</time>
      </trkpt>
      <trkpt lat="43.30483" lon="-2.638421">
        <time>2023-01-08T10:11:00Z</time>
      </trkpt>
      <trkpt lat="43.30489" lon="-2.6385443">
        <time>2023-01-08T10:11:03Z</time>
      </trkpt>
      <trkpt lat="43.304935" lon="-2.6386256">
        <time>2023-01-08T10:11:05Z</time>
      </trkpt>
      <trkpt lat="43.30498" lon="-2.6387014">
        <time>2023-01-08T10:11:07Z</time>
      </trkpt>
      <trkpt lat="43.305023" lon="-2.6387773">
        <time>2023-01-08T10:11:09Z</time>
      </trkpt>
      <trkpt lat="43.305073" lon="-2.6388552">
        <time>2023-01-08T10:11:11Z</time>
      </trkpt>
      <trkpt lat="43.305122" lon="-2.6389256">
        <time>2023-01-08T10:11:13Z</time>
      </trkpt>
      <trkpt lat="43.305176" lon="-2.6389804">
        <time>2023-01-08T10:11:15Z</time>
      </trkpt>
      <trkpt lat="43.305237" lon="-2.6390307">
        <time>2023-01-08T10:11:17Z</time>
      </trkpt>
      <trkpt lat="43.3053" lon="-2.6390734">
        <time>2023-01-08T10:11:19Z</time>
      </trkpt>
      <trkpt lat="43.30537" lon="-2.6391153">
        <time>2023-01-08T10:11:21Z</time>
      </trkpt>
      <trkpt lat="43.305443" lon="-2.6391613">
        <time>2023-01-08T10:11:23Z</time>
      </trkpt>
      <trkpt lat="43.305496" lon="-2.6392107">
        <time>2023-01-08T10:11:25Z</time>
      </trkpt>
      <trkpt lat="43.30559" lon="-2.63929">
        <time>2023-01-08T10:11:28Z</time>
      </trkpt>
      <trkpt lat="43.305645" lon="-2.6393557">
        <time>2023-01-08T10:11:30Z</time>
      </trkpt>
      <trkpt lat="43.305676" lon="-2.639427">
        <time>2023-01-08T10:11:32Z</time>
      </trkpt>
      <trkpt lat="43.3057" lon="-2.6395047">
        <time>2023-01-08T10:11:34Z</time>
      </trkpt>
      <trkpt lat="43.305714" lon="-2.6396356">
        <time>2023-01-08T10:11:37Z</time>
      </trkpt>
      <trkpt lat="43.305702" lon="-2.639721">
        <time>2023-01-08T10:11:39Z</time>
      </trkpt>
      <trkpt lat="43.305676" lon="-2.6398044">
        <time>2023-01-08T10:11:41Z</time>
      </trkpt>
      <trkpt lat="43.305614" lon="-2.639921">
        <time>2023-01-08T10:11:44Z</time>
      </trkpt>
      <trkpt lat="43.305542" lon="-2.6400146">
        <time>2023-01-08T10:11:47Z</time>
      </trkpt>
      <trkpt lat="43.305496" lon="-2.640078">
        <time>2023-01-08T10:11:49Z</time>
      </trkpt>
      <trkpt lat="43.305458" lon="-2.6401446">
        <time>2023-01-08T10:11:51Z</time>
      </trkpt>
      <trkpt lat="43.30543" lon="-2.640218">
        <time>2023-01-08T10:11:53Z</time>
      </trkpt>
      <trkpt lat="43.305428" lon="-2.640315">
        <time>2023-01-08T10:11:56Z</time>
      </trkpt>
      <trkpt lat="43.305553" lon="-2.6404784">
        <time>2023-01-08T10:11:58Z</time>
      </trkpt>
      <trkpt lat="43.30546" lon="-2.64051">
        <time>2023-01-08T10:12:03Z</time>
      </trkpt>
      <trkpt lat="43.305412" lon="-2.6405246">
        <time>2023-01-08T10:12:05Z</time>
      </trkpt>
      <trkpt lat="43.305347" lon="-2.6405416">
        <time>2023-01-08T10:12:07Z</time>
      </trkpt>
      <trkpt lat="43.3053" lon="-2.640577">
        <time>2023-01-08T10:12:09Z</time>
      </trkpt>
      <trkpt lat="43.30528" lon="-2.6406376">
        <time>2023-01-08T10:12:11Z</time>
      </trkpt>
      <trkpt lat="43.305256" lon="-2.6407177">
        <time>2023-01-08T10:12:13Z</time>
      </trkpt>
      <trkpt lat="43.305233" lon="-2.6408036">
        <time>2023-01-08T10:12:15Z</time>
      </trkpt>
      <trkpt lat="43.305202" lon="-2.640886">
        <time>2023-01-08T10:12:17Z</time>
      </trkpt>
      <trkpt lat="43.305176" lon="-2.640966">
        <time>2023-01-08T10:12:19Z</time>
      </trkpt>
      <trkpt lat="43.305153" lon="-2.6410456">
        <time>2023-01-08T10:12:21Z</time>
      </trkpt>
      <trkpt lat="43.305138" lon="-2.6411314">
        <time>2023-01-08T10:12:23Z</time>
      </trkpt>
      <trkpt lat="43.305107" lon="-2.6412163">
        <time>2023-01-08T10:12:25Z</time>
      </trkpt>
      <trkpt lat="43.30507" lon="-2.6412997">
        <time>2023-01-08T10:12:27Z</time>
      </trkpt>
      <trkpt lat="43.305023" lon="-2.6413796">
        <time>2023-01-08T10:12:29Z</time>
      </trkpt>
      <trkpt lat="43.30498" lon="-2.641455">
        <time>2023-01-08T10:12:31Z</time>
      </trkpt>
      <trkpt lat="43.304935" lon="-2.641531">
        <time>2023-01-08T10:12:33Z</time>
      </trkpt>
      <trkpt lat="43.30489" lon="-2.641594">
        <time>2023-01-08T10:12:35Z</time>
      </trkpt>
      <trkpt lat="43.304832" lon="-2.6416483">
        <time>2023-01-08T10:12:37Z</time>
      </trkpt>
      <trkpt lat="43.30479" lon="-2.641709">
        <time>2023-01-08T10:12:39Z</time>
      </trkpt>
      <trkpt lat="43.304764" lon="-2.6417816">
        <time>2023-01-08T10:12:41Z</time>
      </trkpt>
      <trkpt lat="43.30477" lon="-2.641875">
        <time>2023-01-08T10:12:43Z</time>
      </trkpt>
      <trkpt lat="43.304802" lon="-2.6419756">
        <time>2023-01-08T10:12:45Z</time>
      </trkpt>
      <trkpt lat="43.304844" lon="-2.6420557">
        <time>2023-01-08T10:12:47Z</time>
      </trkpt>
      <trkpt lat="43.304905" lon="-2.642111">
        <time>2023-01-08T10:12:49Z</time>
      </trkpt>
      <trkpt lat="43.304966" lon="-2.6421494">
        <time>2023-01-08T10:12:51Z</time>
      </trkpt>
      <trkpt lat="43.305042" lon="-2.6421833">
        <time>2023-01-08T10:12:53Z</time>
      </trkpt>
      <trkpt lat="43.305107" lon="-2.6422262">
        <time>2023-01-08T10:12:55Z</time>
      </trkpt>
      <trkpt lat="43.305176" lon="-2.6422796">
        <time>2023-01-08T10:12:57Z</time>
      </trkpt>
      <trkpt lat="43.305233" lon="-2.6423314">
        <time>2023-01-08T10:12:59Z</time>
      </trkpt>
      <trkpt lat="43.305283" lon="-2.6423824">
        <time>2023-01-08T10:13:01Z</time>
      </trkpt>
      <trkpt lat="43.305363" lon="-2.6424694">
        <time>2023-01-08T10:13:04Z</time>
      </trkpt>
      <trkpt lat="43.305428" lon="-2.6425297">
        <time>2023-01-08T10:13:06Z</time>
      </trkpt>
      <trkpt lat="43.30549" lon="-2.642587">
        <time>2023-01-08T10:13:08Z</time>
      </trkpt>
      <trkpt lat="43.305542" lon="-2.6426444">
        <time>2023-01-08T10:13:10Z</time>
      </trkpt>
      <trkpt lat="43.30559" lon="-2.642713">
        <time>2023-01-08T10:13:12Z</time>
      </trkpt>
      <trkpt lat="43.305626" lon="-2.642787">
        <time>2023-01-08T10:13:14Z</time>
      </trkpt>
      <trkpt lat="43.30567" lon="-2.6429124">
        <time>2023-01-08T10:13:17Z</time>
      </trkpt>
      <trkpt lat="43.305687" lon="-2.6429923">
        <time>2023-01-08T10:13:19Z</time>
      </trkpt>
      <trkpt lat="43.305702" lon="-2.643076">
        <time>2023-01-08T10:13:21Z</time>
      </trkpt>
      <trkpt lat="43.30573" lon="-2.643157">
        <time>2023-01-08T10:13:23Z</time>
      </trkpt>
      <trkpt lat="43.30575" lon="-2.6432292">
        <time>2023-01-08T10:13:25Z</time>
      </trkpt>
      <trkpt lat="43.30579" lon="-2.6432977">
        <time>2023-01-08T10:13:27Z</time>
      </trkpt>
      <trkpt lat="43.305824" lon="-2.643367">
        <time>2023-01-08T10:13:29Z</time>
      </trkpt>
      <trkpt lat="43.305862" lon="-2.64344">
        <time>2023-01-08T10:13:31Z</time>
      </trkpt>
      <trkpt lat="43.3059" lon="-2.6435072">
        <time>2023-01-08T10:13:33Z</time>
      </trkpt>
      <trkpt lat="43.305946" lon="-2.6435637">
        <time>2023-01-08T10:13:35Z</time>
      </trkpt>
      <trkpt lat="43.306004" lon="-2.643609">
        <time>2023-01-08T10:13:37Z</time>
      </trkpt>
      <trkpt lat="43.30606" lon="-2.6436434">
        <time>2023-01-08T10:13:39Z</time>
      </trkpt>
      <trkpt lat="43.306126" lon="-2.643679">
        <time>2023-01-08T10:13:41Z</time>
      </trkpt>
      <trkpt lat="43.30619" lon="-2.6437187">
        <time>2023-01-08T10:13:43Z</time>
      </trkpt>
      <trkpt lat="43.30624" lon="-2.643769">
        <time>2023-01-08T10:13:45Z</time>
      </trkpt>
      <trkpt lat="43.30629" lon="-2.643824">
        <time>2023-01-08T10:13:47Z</time>
      </trkpt>
      <trkpt lat="43.306335" lon="-2.643886">
        <time>2023-01-08T10:13:49Z</time>
      </trkpt>
      <trkpt lat="43.306385" lon="-2.6439483">
        <time>2023-01-08T10:13:51Z</time>
      </trkpt>
      <trkpt lat="43.30643" lon="-2.6440067">
        <time>2023-01-08T10:13:53Z</time>
      </trkpt>
      <trkpt lat="43.30647" lon="-2.6440606">
        <time>2023-01-08T10:13:55Z</time>
      </trkpt>
      <trkpt lat="43.306515" lon="-2.644115">
        <time>2023-01-08T10:13:57Z</time>
      </trkpt>
      <trkpt lat="43.30657" lon="-2.6441674">
        <time>2023-01-08T10:13:59Z</time>
      </trkpt>
      <trkpt lat="43.306625" lon="-2.644212">
        <time>2023-01-08T10:14:01Z</time>
      </trkpt>
      <trkpt lat="43.30668" lon="-2.644261">
        <time>2023-01-08T10:14:03Z</time>
      </trkpt>
      <trkpt lat="43.306732" lon="-2.6443064">
        <time>2023-01-08T10:14:05Z</time>
      </trkpt>
      <trkpt lat="43.30679" lon="-2.6443503">
        <time>2023-01-08T10:14:07Z</time>
      </trkpt>
      <trkpt lat="43.30684" lon="-2.6443923">
        <time>2023-01-08T10:14:09Z</time>
      </trkpt>
      <trkpt lat="43.30689" lon="-2.64444">
        <time>2023-01-08T10:14:11Z</time>
      </trkpt>
      <trkpt lat="43.30694" lon="-2.644485">
        <time>2023-01-08T10:14:13Z</time>
      </trkpt>
      <trkpt lat="43.306984" lon="-2.644531">
        <time>2023-01-08T10:14:15Z</time>
      </trkpt>
      <trkpt lat="43.307037" lon="-2.6445746">
        <time>2023-01-08T10:14:17Z</time>
      </trkpt>
      <trkpt lat="43.307095" lon="-2.6446154">
        <time>2023-01-08T10:14:19Z</time>
      </trkpt>
      <trkpt lat="43.307137" lon="-2.644665">
        <time>2023-01-08T10:14:21Z</time>
      </trkpt>
      <trkpt lat="43.30718" lon="-2.6447217">
        <time>2023-01-08T10:14:23Z</time>
      </trkpt>
      <trkpt lat="43.307213" lon="-2.6447883">
        <time>2023-01-08T10:14:25Z</time>
      </trkpt>
      <trkpt lat="43.30726" lon="-2.644848">
        <time>2023-01-08T10:14:27Z</time>
      </trkpt>
      <trkpt lat="43.307304" lon="-2.6448996">
        <time>2023-01-08T10:14:29Z</time>
      </trkpt>
      <trkpt lat="43.30735" lon="-2.644953">
        <time>2023-01-08T10:14:31Z</time>
      </trkpt>
      <trkpt lat="43.307423" lon="-2.645046">
        <time>2023-01-08T10:14:34Z</time>
      </trkpt>
      <trkpt lat="43.307484" lon="-2.6451414">
        <time>2023-01-08T10:14:37Z</time>
      </trkpt>
      <trkpt lat="43.30752" lon="-2.6452014">
        <time>2023-01-08T10:14:39Z</time>
      </trkpt>
      <trkpt lat="43.307552" lon="-2.6452513">
        <time>2023-01-08T10:14:41Z</time>
      </trkpt>
      <trkpt lat="43.307602" lon="-2.645324">
        <time>2023-01-08T10:14:44Z</time>
      </trkpt>
      <trkpt lat="43.30765" lon="-2.6453924">
        <time>2023-01-08T10:14:47Z</time>
      </trkpt>
      <trkpt lat="43.307697" lon="-2.6454422">
        <time>2023-01-08T10:14:49Z</time>
      </trkpt>
      <trkpt lat="43.307777" lon="-2.6455193">
        <time>2023-01-08T10:14:52Z</time>
      </trkpt>
      <trkpt lat="43.30784" lon="-2.645576">
        <time>2023-01-08T10:14:54Z</time>
      </trkpt>
      <trkpt lat="43.307896" lon="-2.6456296">
        <time>2023-01-08T10:14:56Z</time>
      </trkpt>
      <trkpt lat="43.307957" lon="-2.6456864">
        <time>2023-01-08T10:14:58Z</time>
      </trkpt>
      <trkpt lat="43.30801" lon="-2.6457436">
        <time>2023-01-08T10:15:00Z</time>
      </trkpt>
      <trkpt lat="43.308064" lon="-2.6457894">
        <time>2023-01-08T10:15:02Z</time>
      </trkpt>
      <trkpt lat="43.308113" lon="-2.6458216">
        <time>2023-01-08T10:15:04Z</time>
      </trkpt>
      <trkpt lat="43.30816" lon="-2.6458566">
        <time>2023-01-08T10:15:06Z</time>
      </trkpt>
      <trkpt lat="43.308212" lon="-2.6458936">
        <time>2023-01-08T10:15:08Z</time>
      </trkpt>
      <trkpt lat="43.308266" lon="-2.645924">
        <time>2023-01-08T10:15:10Z</time>
      </trkpt>
      <trkpt lat="43.308323" lon="-2.645947">
        <time>2023-01-08T10:15:12Z</time>
      </trkpt>
      <trkpt lat="43.308384" lon="-2.6459613">
        <time>2023-01-08T10:15:14Z</time>
      </trkpt>
      <trkpt lat="43.308445" lon="-2.645976">
        <time>2023-01-08T10:15:16Z</time>
      </trkpt>
      <trkpt lat="43.308514" lon="-2.6459963">
        <time>2023-01-08T10:15:18Z</time>
      </trkpt>
      <trkpt lat="43.30858" lon="-2.6460156">
        <time>2023-01-08T10:15:20Z</time>
      </trkpt>
      <trkpt lat="43.30869" lon="-2.6460404">
        <time>2023-01-08T10:15:23Z</time>
      </trkpt>
      <trkpt lat="43.308743" lon="-2.6460652">
        <time>2023-01-08T10:15:25Z</time>
      </trkpt>
      <trkpt lat="43.30879" lon="-2.646088">
        <time>2023-01-08T10:15:27Z</time>
      </trkpt>
      <trkpt lat="43.30885" lon="-2.6461205">
        <time>2023-01-08T10:15:30Z</time>
      </trkpt>
      <trkpt lat="43.308918" lon="-2.6461544">
        <time>2023-01-08T10:15:33Z</time>
      </trkpt>
      <trkpt lat="43.308964" lon="-2.6461716">
        <time>2023-01-08T10:15:35Z</time>
      </trkpt>
      <trkpt lat="43.309013" lon="-2.6462047">
        <time>2023-01-08T10:15:38Z</time>
      </trkpt>
      <trkpt lat="43.309067" lon="-2.6462502">
        <time>2023-01-08T10:15:42Z</time>
      </trkpt>
      <trkpt lat="43.30911" lon="-2.6462986">
        <time>2023-01-08T10:15:46Z</time>
      </trkpt>
      <trkpt lat="43.309147" lon="-2.6463506">
        <time>2023-01-08T10:15:50Z</time>
      </trkpt>
      <trkpt lat="43.30919" lon="-2.6463933">
        <time>2023-01-08T10:15:54Z</time>
      </trkpt>
      <trkpt lat="43.309235" lon="-2.6464336">
        <time>2023-01-08T10:15:59Z</time>
      </trkpt>
      <trkpt lat="43.309273" lon="-2.6465003">
        <time>2023-01-08T10:16:04Z</time>
      </trkpt>
      <trkpt lat="43.309334" lon="-2.6465542">
        <time>2023-01-08T10:16:07Z</time>
      </trkpt>
      <trkpt lat="43.309372" lon="-2.64659">
        <time>2023-01-08T10:16:09Z</time>
      </trkpt>
      <trkpt lat="43.309418" lon="-2.6466346">
        <time>2023-01-08T10:16:11Z</time>
      </trkpt>
      <trkpt lat="43.309456" lon="-2.646687">
        <time>2023-01-08T10:16:13Z</time>
      </trkpt>
      <trkpt lat="43.30949" lon="-2.646739">
        <time>2023-01-08T10:16:15Z</time>
      </trkpt>
      <trkpt lat="43.30953" lon="-2.6468124">
        <time>2023-01-08T10:16:18Z</time>
      </trkpt>
      <trkpt lat="43.309563" lon="-2.6468866">
        <time>2023-01-08T10:16:21Z</time>
      </trkpt>
      <trkpt lat="43.30958" lon="-2.6469576">
        <time>2023-01-08T10:16:24Z</time>
      </trkpt>
      <trkpt lat="43.30962" lon="-2.6470337">
        <time>2023-01-08T10:16:27Z</time>
      </trkpt>
      <trkpt lat="43.30966" lon="-2.6471102">
        <time>2023-01-08T10:16:30Z</time>
      </trkpt>
      <trkpt lat="43.30971" lon="-2.647197">
        <time>2023-01-08T10:16:33Z</time>
      </trkpt>
      <trkpt lat="43.309746" lon="-2.6472454">
        <time>2023-01-08T10:16:35Z</time>
      </trkpt>
      <trkpt lat="43.30979" lon="-2.647292">
        <time>2023-01-08T10:16:37Z</time>
      </trkpt>
      <trkpt lat="43.309864" lon="-2.6473553">
        <time>2023-01-08T10:16:40Z</time>
      </trkpt>
      <trkpt lat="43.309917" lon="-2.6474032">
        <time>2023-01-08T10:16:42Z</time>
      </trkpt>
      <trkpt lat="43.309963" lon="-2.6474433">
        <time>2023-01-08T10:16:44Z</time>
      </trkpt>
      <trkpt lat="43.31002" lon="-2.6474907">
        <time>2023-01-08T10:16:47Z</time>
      </trkpt>
      <trkpt lat="43.31009" lon="-2.6475446">
        <time>2023-01-08T10:16:50Z</time>
      </trkpt>
      <trkpt lat="43.310135" lon="-2.6475863">
        <time>2023-01-08T10:16:52Z</time>
      </trkpt>
      <trkpt lat="43.310173" lon="-2.6476316">
        <time>2023-01-08T10:16:54Z</time>
      </trkpt>
      <trkpt lat="43.310215" lon="-2.6476808">
        <time>2023-01-08T10:16:56Z</time>
      </trkpt>
      <trkpt lat="43.310246" lon="-2.6477318">
        <time>2023-01-08T10:16:58Z</time>
      </trkpt>
      <trkpt lat="43.310307" lon="-2.6478083">
        <time>2023-01-08T10:17:01Z</time>
      </trkpt>
      <trkpt lat="43.31033" lon="-2.6478584">
        <time>2023-01-08T10:17:03Z</time>
      </trkpt>
      <trkpt lat="43.31036" lon="-2.6479313">
        <time>2023-01-08T10:17:06Z</time>
      </trkpt>
      <trkpt lat="43.31039" lon="-2.647999">
        <time>2023-01-08T10:17:09Z</time>
      </trkpt>
      <trkpt lat="43.310425" lon="-2.648062">
        <time>2023-01-08T10:17:12Z</time>
      </trkpt>
      <trkpt lat="43.310463" lon="-2.6481357">
        <time>2023-01-08T10:17:15Z</time>
      </trkpt>
      <trkpt lat="43.310505" lon="-2.6482096">
        <time>2023-01-08T10:17:18Z</time>
      </trkpt>
      <trkpt lat="43.31054" lon="-2.648284">
        <time>2023-01-08T10:17:21Z</time>
      </trkpt>
      <trkpt lat="43.310577" lon="-2.6483665">
        <time>2023-01-08T10:17:24Z</time>
      </trkpt>
      <trkpt lat="43.310608" lon="-2.64843">
        <time>2023-01-08T10:17:26Z</time>
      </trkpt>
      <trkpt lat="43.31064" lon="-2.6485038">
        <time>2023-01-08T10:17:28Z</time>
      </trkpt>
      <trkpt lat="43.31067" lon="-2.648567">
        <time>2023-01-08T10:17:30Z</time>
      </trkpt>
      <trkpt lat="43.31071" lon="-2.6486523">
        <time>2023-01-08T10:17:33Z</time>
      </trkpt>
      <trkpt lat="43.310734" lon="-2.6487157">
        <time>2023-01-08T10:17:35Z</time>
      </trkpt>
      <trkpt lat="43.310772" lon="-2.648818">
        <time>2023-01-08T10:17:38Z</time>
      </trkpt>
      <trkpt lat="43.31079" lon="-2.6488936">
        <time>2023-01-08T10:17:40Z</time>
      </trkpt>
      <trkpt lat="43.310814" lon="-2.648976">
        <time>2023-01-08T10:17:42Z</time>
      </trkpt>
      <trkpt lat="43.310837" lon="-2.6490633">
        <time>2023-01-08T10:17:44Z</time>
      </trkpt>
      <trkpt lat="43.31086" lon="-2.649166">
        <time>2023-01-08T10:17:46Z</time>
      </trkpt>
      <trkpt lat="43.31088" lon="-2.6492805">
        <time>2023-01-08T10:17:48Z</time>
      </trkpt>
      <trkpt lat="43.310898" lon="-2.6493893">
        <time>2023-01-08T10:17:50Z</time>
      </trkpt>
      <trkpt lat="43.31093" lon="-2.6494818">
        <time>2023-01-08T10:17:52Z</time>
      </trkpt>
      <trkpt lat="43.310966" lon="-2.649554">
        <time>2023-01-08T10:17:54Z</time>
      </trkpt>
      <trkpt lat="43.311024" lon="-2.6496074">
        <time>2023-01-08T10:17:56Z</time>
      </trkpt>
      <trkpt lat="43.311077" lon="-2.6496506">
        <time>2023-01-08T10:17:58Z</time>
      </trkpt>
      <trkpt lat="43.31113" lon="-2.6496947">
        <time>2023-01-08T10:18:00Z</time>
      </trkpt>
      <trkpt lat="43.311188" lon="-2.6497374">
        <time>2023-01-08T10:18:02Z</time>
      </trkpt>
      <trkpt lat="43.311234" lon="-2.6497777">
        <time>2023-01-08T10:18:04Z</time>
      </trkpt>
      <trkpt lat="43.31128" lon="-2.6498203">
        <time>2023-01-08T10:18:06Z</time>
      </trkpt>
      <trkpt lat="43.311325" lon="-2.6498666">
        <time>2023-01-08T10:18:08Z</time>
      </trkpt>
      <trkpt lat="43.31137" lon="-2.64991">
        <time>2023-01-08T10:18:10Z</time>
      </trkpt>
      <trkpt lat="43.31143" lon="-2.6499546">
        <time>2023-01-08T10:18:12Z</time>
      </trkpt>
      <trkpt lat="43.311493" lon="-2.6500013">
        <time>2023-01-08T10:18:14Z</time>
      </trkpt>
      <trkpt lat="43.311554" lon="-2.6500494">
        <time>2023-01-08T10:18:16Z</time>
      </trkpt>
      <trkpt lat="43.31161" lon="-2.6500943">
        <time>2023-01-08T10:18:18Z</time>
      </trkpt>
      <trkpt lat="43.31166" lon="-2.6501474">
        <time>2023-01-08T10:18:20Z</time>
      </trkpt>
      <trkpt lat="43.31169" lon="-2.650209">
        <time>2023-01-08T10:18:22Z</time>
      </trkpt>
      <trkpt lat="43.31172" lon="-2.6502776">
        <time>2023-01-08T10:18:24Z</time>
      </trkpt>
      <trkpt lat="43.311737" lon="-2.6503503">
        <time>2023-01-08T10:18:26Z</time>
      </trkpt>
      <trkpt lat="43.311756" lon="-2.6504254">
        <time>2023-01-08T10:18:28Z</time>
      </trkpt>
      <trkpt lat="43.311756" lon="-2.6505008">
        <time>2023-01-08T10:18:30Z</time>
      </trkpt>
      <trkpt lat="43.311737" lon="-2.6505823">
        <time>2023-01-08T10:18:32Z</time>
      </trkpt>
      <trkpt lat="43.311714" lon="-2.6506696">
        <time>2023-01-08T10:18:34Z</time>
      </trkpt>
      <trkpt lat="43.31169" lon="-2.6507554">
        <time>2023-01-08T10:18:36Z</time>
      </trkpt>
      <trkpt lat="43.311684" lon="-2.6508424">
        <time>2023-01-08T10:18:38Z</time>
      </trkpt>
      <trkpt lat="43.311687" lon="-2.650931">
        <time>2023-01-08T10:18:40Z</time>
      </trkpt>
      <trkpt lat="43.31169" lon="-2.6510053">
        <time>2023-01-08T10:18:42Z</time>
      </trkpt>
      <trkpt lat="43.311733" lon="-2.6510627">
        <time>2023-01-08T10:18:45Z</time>
      </trkpt>
      <trkpt lat="43.311787" lon="-2.6510887">
        <time>2023-01-08T10:18:48Z</time>
      </trkpt>
      <trkpt lat="43.311848" lon="-2.651102">
        <time>2023-01-08T10:18:51Z</time>
      </trkpt>
      <trkpt lat="43.31191" lon="-2.6511188">
        <time>2023-01-08T10:18:54Z</time>
      </trkpt>
      <trkpt lat="43.31199" lon="-2.6511364">
        <time>2023-01-08T10:18:57Z</time>
      </trkpt>
      <trkpt lat="43.312042" lon="-2.651146">
        <time>2023-01-08T10:18:59Z</time>
      </trkpt>
      <trkpt lat="43.31208" lon="-2.651149">
        <time>2023-01-08T10:19:01Z</time>
      </trkpt>
      <trkpt lat="43.312145" lon="-2.6511786">
        <time>2023-01-08T10:19:04Z</time>
      </trkpt>
      <trkpt lat="43.312206" lon="-2.6512144">
        <time>2023-01-08T10:19:07Z</time>
      </trkpt>
      <trkpt lat="43.312275" lon="-2.65126">
        <time>2023-01-08T10:19:10Z</time>
      </trkpt>
      <trkpt lat="43.312332" lon="-2.6512964">
        <time>2023-01-08T10:19:12Z</time>
      </trkpt>
      <trkpt lat="43.312386" lon="-2.651341">
        <time>2023-01-08T10:19:14Z</time>
      </trkpt>
      <trkpt lat="43.31243" lon="-2.6513906">
        <time>2023-01-08T10:19:16Z</time>
      </trkpt>
      <trkpt lat="43.31246" lon="-2.6514487">
        <time>2023-01-08T10:19:18Z</time>
      </trkpt>
      <trkpt lat="43.3125" lon="-2.6515102">
        <time>2023-01-08T10:19:20Z</time>
      </trkpt>
      <trkpt lat="43.312534" lon="-2.6515727">
        <time>2023-01-08T10:19:22Z</time>
      </trkpt>
      <trkpt lat="43.31257" lon="-2.6516426">
        <time>2023-01-08T10:19:24Z</time>
      </trkpt>
      <trkpt lat="43.3126" lon="-2.6517124">
        <time>2023-01-08T10:19:26Z</time>
      </trkpt>
      <trkpt lat="43.312626" lon="-2.651785">
        <time>2023-01-08T10:19:28Z</time>
      </trkpt>
      <trkpt lat="43.31264" lon="-2.6518557">
        <time>2023-01-08T10:19:30Z</time>
      </trkpt>
      <trkpt lat="43.31265" lon="-2.6519716">
        <time>2023-01-08T10:19:33Z</time>
      </trkpt>
      <trkpt lat="43.31266" lon="-2.6520503">
        <time>2023-01-08T10:19:35Z</time>
      </trkpt>
      <trkpt lat="43.312675" lon="-2.6521263">
        <time>2023-01-08T10:19:37Z</time>
      </trkpt>
      <trkpt lat="43.31269" lon="-2.652204">
        <time>2023-01-08T10:19:39Z</time>
      </trkpt>
      <trkpt lat="43.312733" lon="-2.6523132">
        <time>2023-01-08T10:19:42Z</time>
      </trkpt>
      <trkpt lat="43.312744" lon="-2.6524127">
        <time>2023-01-08T10:19:45Z</time>
      </trkpt>
      <trkpt lat="43.312744" lon="-2.6525183">
        <time>2023-01-08T10:19:48Z</time>
      </trkpt>
      <trkpt lat="43.312744" lon="-2.6525962">
        <time>2023-01-08T10:19:50Z</time>
      </trkpt>
      <trkpt lat="43.31272" lon="-2.6527088">
        <time>2023-01-08T10:19:53Z</time>
      </trkpt>
      <trkpt lat="43.312695" lon="-2.6527736">
        <time>2023-01-08T10:19:55Z</time>
      </trkpt>
      <trkpt lat="43.31269" lon="-2.6528437">
        <time>2023-01-08T10:19:57Z</time>
      </trkpt>
      <trkpt lat="43.312695" lon="-2.6529453">
        <time>2023-01-08T10:20:00Z</time>
      </trkpt>
      <trkpt lat="43.312706" lon="-2.6530278">
        <time>2023-01-08T10:20:03Z</time>
      </trkpt>
      <trkpt lat="43.312702" lon="-2.65315">
        <time>2023-01-08T10:20:07Z</time>
      </trkpt>
      <trkpt lat="43.312695" lon="-2.6532798">
        <time>2023-01-08T10:20:11Z</time>
      </trkpt>
      <trkpt lat="43.31269" lon="-2.6533427">
        <time>2023-01-08T10:20:13Z</time>
      </trkpt>
      <trkpt lat="43.312664" lon="-2.653433">
        <time>2023-01-08T10:20:16Z</time>
      </trkpt>
      <trkpt lat="43.31264" lon="-2.6535397">
        <time>2023-01-08T10:20:19Z</time>
      </trkpt>
      <trkpt lat="43.31263" lon="-2.65361">
        <time>2023-01-08T10:20:21Z</time>
      </trkpt>
      <trkpt lat="43.31262" lon="-2.653677">
        <time>2023-01-08T10:20:23Z</time>
      </trkpt>
      <trkpt lat="43.312595" lon="-2.6537857">
        <time>2023-01-08T10:20:27Z</time>
      </trkpt>
      <trkpt lat="43.31263" lon="-2.6538937">
        <time>2023-01-08T10:20:31Z</time>
      </trkpt>
      <trkpt lat="43.31266" lon="-2.6539857">
        <time>2023-01-08T10:20:34Z</time>
      </trkpt>
      <trkpt lat="43.312675" lon="-2.654072">
        <time>2023-01-08T10:20:37Z</time>
      </trkpt>
      <trkpt lat="43.31269" lon="-2.6541893">
        <time>2023-01-08T10:20:41Z</time>
      </trkpt>
      <trkpt lat="43.312687" lon="-2.6542976">
        <time>2023-01-08T10:20:45Z</time>
      </trkpt>
      <trkpt lat="43.312687" lon="-2.6543822">
        <time>2023-01-08T10:20:48Z</time>
      </trkpt>
      <trkpt lat="43.31268" lon="-2.654504">
        <time>2023-01-08T10:20:51Z</time>
      </trkpt>
      <trkpt lat="43.31268" lon="-2.654584">
        <time>2023-01-08T10:20:53Z</time>
      </trkpt>
      <trkpt lat="43.31265" lon="-2.6546807">
        <time>2023-01-08T10:20:56Z</time>
      </trkpt>
      <trkpt lat="43.312614" lon="-2.654739">
        <time>2023-01-08T10:20:58Z</time>
      </trkpt>
      <trkpt lat="43.312565" lon="-2.654812">
        <time>2023-01-08T10:21:01Z</time>
      </trkpt>
      <trkpt lat="43.31255" lon="-2.6549106">
        <time>2023-01-08T10:21:05Z</time>
      </trkpt>
      <trkpt lat="43.312565" lon="-2.654981">
        <time>2023-01-08T10:21:08Z</time>
      </trkpt>
      <trkpt lat="43.31261" lon="-2.655072">
        <time>2023-01-08T10:21:12Z</time>
      </trkpt>
      <trkpt lat="43.31265" lon="-2.6551223">
        <time>2023-01-08T10:21:15Z</time>
      </trkpt>
      <trkpt lat="43.312717" lon="-2.6551948">
        <time>2023-01-08T10:21:18Z</time>
      </trkpt>
      <trkpt lat="43.312775" lon="-2.6552517">
        <time>2023-01-08T10:21:22Z</time>
      </trkpt>
      <trkpt lat="43.312843" lon="-2.6553392">
        <time>2023-01-08T10:21:26Z</time>
      </trkpt>
      <trkpt lat="43.312866" lon="-2.6554053">
        <time>2023-01-08T10:21:30Z</time>
      </trkpt>
      <trkpt lat="43.31281" lon="-2.6554527">
        <time>2023-01-08T10:21:35Z</time>
      </trkpt>
      <trkpt lat="43.312737" lon="-2.6554945">
        <time>2023-01-08T10:21:39Z</time>
      </trkpt>
      <trkpt lat="43.312664" lon="-2.655519">
        <time>2023-01-08T10:21:42Z</time>
      </trkpt>
      <trkpt lat="43.312595" lon="-2.6555424">
        <time>2023-01-08T10:21:45Z</time>
      </trkpt>
      <trkpt lat="43.31254" lon="-2.655548">
        <time>2023-01-08T10:21:47Z</time>
      </trkpt>
      <trkpt lat="43.312485" lon="-2.655555">
        <time>2023-01-08T10:21:49Z</time>
      </trkpt>
      <trkpt lat="43.31242" lon="-2.655574">
        <time>2023-01-08T10:21:52Z</time>
      </trkpt>
      <trkpt lat="43.31237" lon="-2.6556866">
        <time>2023-01-08T10:21:54Z</time>
      </trkpt>
      <trkpt lat="43.312298" lon="-2.655737">
        <time>2023-01-08T10:22:01Z</time>
      </trkpt>
      <trkpt lat="43.312237" lon="-2.6557903">
        <time>2023-01-08T10:22:04Z</time>
      </trkpt>
      <trkpt lat="43.31218" lon="-2.6558273">
        <time>2023-01-08T10:22:06Z</time>
      </trkpt>
      <trkpt lat="43.312122" lon="-2.6558664">
        <time>2023-01-08T10:22:08Z</time>
      </trkpt>
      <trkpt lat="43.312077" lon="-2.6559007">
        <time>2023-01-08T10:22:10Z</time>
      </trkpt>
      <trkpt lat="43.312027" lon="-2.6559362">
        <time>2023-01-08T10:22:12Z</time>
      </trkpt>
      <trkpt lat="43.31194" lon="-2.656005">
        <time>2023-01-08T10:22:15Z</time>
      </trkpt>
      <trkpt lat="43.311867" lon="-2.6560585">
        <time>2023-01-08T10:22:17Z</time>
      </trkpt>
      <trkpt lat="43.31178" lon="-2.6561487">
        <time>2023-01-08T10:22:20Z</time>
      </trkpt>
      <trkpt lat="43.31173" lon="-2.6562216">
        <time>2023-01-08T10:22:22Z</time>
      </trkpt>
      <trkpt lat="43.311676" lon="-2.6562986">
        <time>2023-01-08T10:22:24Z</time>
      </trkpt>
      <trkpt lat="43.311638" lon="-2.6563804">
        <time>2023-01-08T10:22:26Z</time>
      </trkpt>
      <trkpt lat="43.3116" lon="-2.656464">
        <time>2023-01-08T10:22:28Z</time>
      </trkpt>
      <trkpt lat="43.31157" lon="-2.656552">
        <time>2023-01-08T10:22:30Z</time>
      </trkpt>
      <trkpt lat="43.311535" lon="-2.6566353">
        <time>2023-01-08T10:22:32Z</time>
      </trkpt>
      <trkpt lat="43.31148" lon="-2.656761">
        <time>2023-01-08T10:22:35Z</time>
      </trkpt>
      <trkpt lat="43.31145" lon="-2.65685">
        <time>2023-01-08T10:22:37Z</time>
      </trkpt>
      <trkpt lat="43.311398" lon="-2.6569846">
        <time>2023-01-08T10:22:40Z</time>
      </trkpt>
      <trkpt lat="43.311363" lon="-2.6570716">
        <time>2023-01-08T10:22:42Z</time>
      </trkpt>
      <trkpt lat="43.311325" lon="-2.6571584">
        <time>2023-01-08T10:22:44Z</time>
      </trkpt>
      <trkpt lat="43.311287" lon="-2.6572423">
        <time>2023-01-08T10:22:46Z</time>
      </trkpt>
      <trkpt lat="43.311253" lon="-2.6573284">
        <time>2023-01-08T10:22:48Z</time>
      </trkpt>
      <trkpt lat="43.31121" lon="-2.6574047">
        <time>2023-01-08T10:22:50Z</time>
      </trkpt>
      <trkpt lat="43.31117" lon="-2.657477">
        <time>2023-01-08T10:22:52Z</time>
      </trkpt>
      <trkpt lat="43.3111" lon="-2.657589">
        <time>2023-01-08T10:22:55Z</time>
      </trkpt>
      <trkpt lat="43.311054" lon="-2.657667">
        <time>2023-01-08T10:22:57Z</time>
      </trkpt>
      <trkpt lat="43.31101" lon="-2.6577497">
        <time>2023-01-08T10:22:59Z</time>
      </trkpt>
      <trkpt lat="43.310966" lon="-2.6578343">
        <time>2023-01-08T10:23:01Z</time>
      </trkpt>
      <trkpt lat="43.31092" lon="-2.6579146">
        <time>2023-01-08T10:23:03Z</time>
      </trkpt>
      <trkpt lat="43.31088" lon="-2.6580014">
        <time>2023-01-08T10:23:05Z</time>
      </trkpt>
      <trkpt lat="43.310844" lon="-2.6580927">
        <time>2023-01-08T10:23:07Z</time>
      </trkpt>
      <trkpt lat="43.310802" lon="-2.6581786">
        <time>2023-01-08T10:23:09Z</time>
      </trkpt>
      <trkpt lat="43.31076" lon="-2.6582637">
        <time>2023-01-08T10:23:11Z</time>
      </trkpt>
      <trkpt lat="43.310726" lon="-2.658352">
        <time>2023-01-08T10:23:13Z</time>
      </trkpt>
      <trkpt lat="43.310703" lon="-2.6584916">
        <time>2023-01-08T10:23:16Z</time>
      </trkpt>
      <trkpt lat="43.310745" lon="-2.6586447">
        <time>2023-01-08T10:23:19Z</time>
      </trkpt>
      <trkpt lat="43.310802" lon="-2.6587994">
        <time>2023-01-08T10:23:22Z</time>
      </trkpt>
      <trkpt lat="43.310833" lon="-2.6589453">
        <time>2023-01-08T10:23:25Z</time>
      </trkpt>
      <trkpt lat="43.310852" lon="-2.6590803">
        <time>2023-01-08T10:23:28Z</time>
      </trkpt>
      <trkpt lat="43.31086" lon="-2.659207">
        <time>2023-01-08T10:23:31Z</time>
      </trkpt>
      <trkpt lat="43.31089" lon="-2.6594584">
        <time>2023-01-08T10:23:34Z</time>
      </trkpt>
      <trkpt lat="43.31089" lon="-2.6594968">
        <time>2023-01-08T10:23:36Z</time>
      </trkpt>
      <trkpt lat="43.310875" lon="-2.659614">
        <time>2023-01-08T10:23:39Z</time>
      </trkpt>
      <trkpt lat="43.31082" lon="-2.6597092">
        <time>2023-01-08T10:23:42Z</time>
      </trkpt>
      <trkpt lat="43.310745" lon="-2.6597803">
        <time>2023-01-08T10:23:45Z</time>
      </trkpt>
      <trkpt lat="43.310684" lon="-2.6598244">
        <time>2023-01-08T10:23:47Z</time>
      </trkpt>
      <trkpt lat="43.310585" lon="-2.659893">
        <time>2023-01-08T10:23:50Z</time>
      </trkpt>
      <trkpt lat="43.310524" lon="-2.6599414">
        <time>2023-01-08T10:23:52Z</time>
      </trkpt>
      <trkpt lat="43.310463" lon="-2.6599903">
        <time>2023-01-08T10:23:54Z</time>
      </trkpt>
      <trkpt lat="43.31039" lon="-2.660036">
        <time>2023-01-08T10:23:56Z</time>
      </trkpt>
      <trkpt lat="43.31029" lon="-2.6600986">
        <time>2023-01-08T10:23:59Z</time>
      </trkpt>
      <trkpt lat="43.310223" lon="-2.6601346">
        <time>2023-01-08T10:24:01Z</time>
      </trkpt>
      <trkpt lat="43.310165" lon="-2.6601644">
        <time>2023-01-08T10:24:03Z</time>
      </trkpt>
      <trkpt lat="43.310116" lon="-2.6602">
        <time>2023-01-08T10:24:05Z</time>
      </trkpt>
      <trkpt lat="43.310066" lon="-2.6602902">
        <time>2023-01-08T10:24:08Z</time>
      </trkpt>
      <trkpt lat="43.31004" lon="-2.6603713">
        <time>2023-01-08T10:24:10Z</time>
      </trkpt>
      <trkpt lat="43.31" lon="-2.660448">
        <time>2023-01-08T10:24:12Z</time>
      </trkpt>
      <trkpt lat="43.309925" lon="-2.6605453">
        <time>2023-01-08T10:24:15Z</time>
      </trkpt>
      <trkpt lat="43.309864" lon="-2.6606016">
        <time>2023-01-08T10:24:17Z</time>
      </trkpt>
      <trkpt lat="43.3098" lon="-2.6606536">
        <time>2023-01-08T10:24:19Z</time>
      </trkpt>
      <trkpt lat="43.30971" lon="-2.6607513">
        <time>2023-01-08T10:24:22Z</time>
      </trkpt>
      <trkpt lat="43.309677" lon="-2.6608436">
        <time>2023-01-08T10:24:24Z</time>
      </trkpt>
      <trkpt lat="43.30967" lon="-2.6609883">
        <time>2023-01-08T10:24:27Z</time>
      </trkpt>
      <trkpt lat="43.309727" lon="-2.6611104">
        <time>2023-01-08T10:24:30Z</time>
      </trkpt>
      <trkpt lat="43.30979" lon="-2.661152">
        <time>2023-01-08T10:24:32Z</time>
      </trkpt>
      <trkpt lat="43.309906" lon="-2.6611516">
        <time>2023-01-08T10:24:35Z</time>
      </trkpt>
      <trkpt lat="43.30998" lon="-2.6611493">
        <time>2023-01-08T10:24:37Z</time>
      </trkpt>
      <trkpt lat="43.31004" lon="-2.661165">
        <time>2023-01-08T10:24:39Z</time>
      </trkpt>
      <trkpt lat="43.310097" lon="-2.6612067">
        <time>2023-01-08T10:24:41Z</time>
      </trkpt>
      <trkpt lat="43.310135" lon="-2.6612766">
        <time>2023-01-08T10:24:43Z</time>
      </trkpt>
      <trkpt lat="43.310165" lon="-2.6613667">
        <time>2023-01-08T10:24:45Z</time>
      </trkpt>
      <trkpt lat="43.310173" lon="-2.6614654">
        <time>2023-01-08T10:24:47Z</time>
      </trkpt>
      <trkpt lat="43.310158" lon="-2.661615">
        <time>2023-01-08T10:24:50Z</time>
      </trkpt>
      <trkpt lat="43.31013" lon="-2.661708">
        <time>2023-01-08T10:24:52Z</time>
      </trkpt>
      <trkpt lat="43.310112" lon="-2.6617963">
        <time>2023-01-08T10:24:54Z</time>
      </trkpt>
      <trkpt lat="43.310097" lon="-2.6619186">
        <time>2023-01-08T10:24:57Z</time>
      </trkpt>
      <trkpt lat="43.310104" lon="-2.6620226">
        <time>2023-01-08T10:25:00Z</time>
      </trkpt>
      <trkpt lat="43.310112" lon="-2.6621013">
        <time>2023-01-08T10:25:03Z</time>
      </trkpt>
      <trkpt lat="43.310112" lon="-2.662183">
        <time>2023-01-08T10:25:05Z</time>
      </trkpt>
      <trkpt lat="43.310104" lon="-2.6623187">
        <time>2023-01-08T10:25:08Z</time>
      </trkpt>
      <trkpt lat="43.31009" lon="-2.6624074">
        <time>2023-01-08T10:25:10Z</time>
      </trkpt>
      <trkpt lat="43.310074" lon="-2.6624904">
        <time>2023-01-08T10:25:12Z</time>
      </trkpt>
      <trkpt lat="43.310055" lon="-2.6625667">
        <time>2023-01-08T10:25:14Z</time>
      </trkpt>
      <trkpt lat="43.31006" lon="-2.6626694">
        <time>2023-01-08T10:25:17Z</time>
      </trkpt>
      <trkpt lat="43.31009" lon="-2.662753">
        <time>2023-01-08T10:25:20Z</time>
      </trkpt>
      <trkpt lat="43.31012" lon="-2.6628087">
        <time>2023-01-08T10:25:23Z</time>
      </trkpt>
      <trkpt lat="43.310192" lon="-2.6628706">
        <time>2023-01-08T10:25:28Z</time>
      </trkpt>
      <trkpt lat="43.31026" lon="-2.6629083">
        <time>2023-01-08T10:25:31Z</time>
      </trkpt>
      <trkpt lat="43.31031" lon="-2.662913">
        <time>2023-01-08T10:25:33Z</time>
      </trkpt>
      <trkpt lat="43.310368" lon="-2.6629024">
        <time>2023-01-08T10:25:35Z</time>
      </trkpt>
      <trkpt lat="43.310425" lon="-2.6628842">
        <time>2023-01-08T10:25:37Z</time>
      </trkpt>
      <trkpt lat="43.310493" lon="-2.6628866">
        <time>2023-01-08T10:25:40Z</time>
      </trkpt>
      <trkpt lat="43.31057" lon="-2.662944">
        <time>2023-01-08T10:25:43Z</time>
      </trkpt>
      <trkpt lat="43.310665" lon="-2.6629767">
        <time>2023-01-08T10:25:46Z</time>
      </trkpt>
      <trkpt lat="43.310715" lon="-2.6629624">
        <time>2023-01-08T10:25:49Z</time>
      </trkpt>
      <trkpt lat="43.31078" lon="-2.6629307">
        <time>2023-01-08T10:25:53Z</time>
      </trkpt>
      <trkpt lat="43.310844" lon="-2.662906">
        <time>2023-01-08T10:25:55Z</time>
      </trkpt>
      <trkpt lat="43.310944" lon="-2.6629093">
        <time>2023-01-08T10:25:58Z</time>
      </trkpt>
      <trkpt lat="43.311012" lon="-2.6629236">
        <time>2023-01-08T10:26:00Z</time>
      </trkpt>
      <trkpt lat="43.311085" lon="-2.6629417">
        <time>2023-01-08T10:26:02Z</time>
      </trkpt>
      <trkpt lat="43.31116" lon="-2.6629643">
        <time>2023-01-08T10:26:04Z</time>
      </trkpt>
      <trkpt lat="43.31128" lon="-2.663023">
        <time>2023-01-08T10:26:07Z</time>
      </trkpt>
      <trkpt lat="43.311398" lon="-2.663077">
        <time>2023-01-08T10:26:10Z</time>
      </trkpt>
      <trkpt lat="43.311474" lon="-2.6631186">
        <time>2023-01-08T10:26:12Z</time>
      </trkpt>
      <trkpt lat="43.311584" lon="-2.66319">
        <time>2023-01-08T10:26:15Z</time>
      </trkpt>
      <trkpt lat="43.311684" lon="-2.663284">
        <time>2023-01-08T10:26:18Z</time>
      </trkpt>
      <trkpt lat="43.311764" lon="-2.663403">
        <time>2023-01-08T10:26:21Z</time>
      </trkpt>
      <trkpt lat="43.311832" lon="-2.6635413">
        <time>2023-01-08T10:26:24Z</time>
      </trkpt>
      <trkpt lat="43.311867" lon="-2.6636353">
        <time>2023-01-08T10:26:26Z</time>
      </trkpt>
      <trkpt lat="43.3119" lon="-2.6637173">
        <time>2023-01-08T10:26:28Z</time>
      </trkpt>
      <trkpt lat="43.31193" lon="-2.6637974">
        <time>2023-01-08T10:26:30Z</time>
      </trkpt>
      <trkpt lat="43.31198" lon="-2.6639154">
        <time>2023-01-08T10:26:33Z</time>
      </trkpt>
      <trkpt lat="43.31201" lon="-2.6639843">
        <time>2023-01-08T10:26:35Z</time>
      </trkpt>
      <trkpt lat="43.312035" lon="-2.6640453">
        <time>2023-01-08T10:26:37Z</time>
      </trkpt>
      <trkpt lat="43.312057" lon="-2.6641026">
        <time>2023-01-08T10:26:39Z</time>
      </trkpt>
      <trkpt lat="43.312096" lon="-2.664208">
        <time>2023-01-08T10:26:43Z</time>
      </trkpt>
      <trkpt lat="43.312126" lon="-2.6642637">
        <time>2023-01-08T10:26:45Z</time>
      </trkpt>
      <trkpt lat="43.31217" lon="-2.6643536">
        <time>2023-01-08T10:26:48Z</time>
      </trkpt>
      <trkpt lat="43.312195" lon="-2.6644232">
        <time>2023-01-08T10:26:50Z</time>
      </trkpt>
      <trkpt lat="43.31222" lon="-2.664497">
        <time>2023-01-08T10:26:52Z</time>
      </trkpt>
      <trkpt lat="43.31224" lon="-2.6645663">
        <time>2023-01-08T10:26:54Z</time>
      </trkpt>
      <trkpt lat="43.312275" lon="-2.6646566">
        <time>2023-01-08T10:26:57Z</time>
      </trkpt>
      <trkpt lat="43.312313" lon="-2.6647472">
        <time>2023-01-08T10:27:00Z</time>
      </trkpt>
      <trkpt lat="43.312355" lon="-2.6648586">
        <time>2023-01-08T10:27:03Z</time>
      </trkpt>
      <trkpt lat="43.31237" lon="-2.6649373">
        <time>2023-01-08T10:27:05Z</time>
      </trkpt>
      <trkpt lat="43.31239" lon="-2.665017">
        <time>2023-01-08T10:27:07Z</time>
      </trkpt>
      <trkpt lat="43.31242" lon="-2.665143">
        <time>2023-01-08T10:27:10Z</time>
      </trkpt>
      <trkpt lat="43.31244" lon="-2.6652327">
        <time>2023-01-08T10:27:12Z</time>
      </trkpt>
      <trkpt lat="43.31247" lon="-2.6653657">
        <time>2023-01-08T10:27:15Z</time>
      </trkpt>
      <trkpt lat="43.312485" lon="-2.665451">
        <time>2023-01-08T10:27:17Z</time>
      </trkpt>
      <trkpt lat="43.312508" lon="-2.665534">
        <time>2023-01-08T10:27:19Z</time>
      </trkpt>
      <trkpt lat="43.312523" lon="-2.6656222">
        <time>2023-01-08T10:27:21Z</time>
      </trkpt>
      <trkpt lat="43.31255" lon="-2.66571">
        <time>2023-01-08T10:27:23Z</time>
      </trkpt>
      <trkpt lat="43.31258" lon="-2.665787">
        <time>2023-01-08T10:27:25Z</time>
      </trkpt>
      <trkpt lat="43.312614" lon="-2.665897">
        <time>2023-01-08T10:27:28Z</time>
      </trkpt>
      <trkpt lat="43.31265" lon="-2.6659627">
        <time>2023-01-08T10:27:31Z</time>
      </trkpt>
      <trkpt lat="43.312733" lon="-2.6660454">
        <time>2023-01-08T10:27:35Z</time>
      </trkpt>
      <trkpt lat="43.312813" lon="-2.6661336">
        <time>2023-01-08T10:27:38Z</time>
      </trkpt>
      <trkpt lat="43.312874" lon="-2.666189">
        <time>2023-01-08T10:27:40Z</time>
      </trkpt>
      <trkpt lat="43.31293" lon="-2.6662397">
        <time>2023-01-08T10:27:42Z</time>
      </trkpt>
      <trkpt lat="43.31299" lon="-2.6662846">
        <time>2023-01-08T10:27:44Z</time>
      </trkpt>
      <trkpt lat="43.313053" lon="-2.6663237">
        <time>2023-01-08T10:27:46Z</time>
      </trkpt>
      <trkpt lat="43.31311" lon="-2.6663616">
        <time>2023-01-08T10:27:48Z</time>
      </trkpt>
      <trkpt lat="43.31318" lon="-2.666395">
        <time>2023-01-08T10:27:50Z</time>
      </trkpt>
      <trkpt lat="43.313232" lon="-2.6664276">
        <time>2023-01-08T10:27:52Z</time>
      </trkpt>
      <trkpt lat="43.313293" lon="-2.666469">
        <time>2023-01-08T10:27:54Z</time>
      </trkpt>
      <trkpt lat="43.313374" lon="-2.6665514">
        <time>2023-01-08T10:27:57Z</time>
      </trkpt>
      <trkpt lat="43.313435" lon="-2.6666508">
        <time>2023-01-08T10:28:00Z</time>
      </trkpt>
      <trkpt lat="43.313484" lon="-2.6667488">
        <time>2023-01-08T10:28:03Z</time>
      </trkpt>
      <trkpt lat="43.31354" lon="-2.6668556">
        <time>2023-01-08T10:28:06Z</time>
      </trkpt>
      <trkpt lat="43.313606" lon="-2.6669557">
        <time>2023-01-08T10:28:09Z</time>
      </trkpt>
      <trkpt lat="43.313686" lon="-2.6670737">
        <time>2023-01-08T10:28:12Z</time>
      </trkpt>
      <trkpt lat="43.31374" lon="-2.667153">
        <time>2023-01-08T10:28:14Z</time>
      </trkpt>
      <trkpt lat="43.313786" lon="-2.6672304">
        <time>2023-01-08T10:28:16Z</time>
      </trkpt>
      <trkpt lat="43.313847" lon="-2.6673524">
        <time>2023-01-08T10:28:19Z</time>
      </trkpt>
      <trkpt lat="43.31388" lon="-2.667499">
        <time>2023-01-08T10:28:22Z</time>
      </trkpt>
      <trkpt lat="43.3139" lon="-2.6676567">
        <time>2023-01-08T10:28:25Z</time>
      </trkpt>
      <trkpt lat="43.313927" lon="-2.667757">
        <time>2023-01-08T10:28:27Z</time>
      </trkpt>
      <trkpt lat="43.31396" lon="-2.6678562">
        <time>2023-01-08T10:28:29Z</time>
      </trkpt>
      <trkpt lat="43.31402" lon="-2.6679907">
        <time>2023-01-08T10:28:32Z</time>
      </trkpt>
      <trkpt lat="43.314056" lon="-2.6680746">
        <time>2023-01-08T10:28:34Z</time>
      </trkpt>
      <trkpt lat="43.3141" lon="-2.668152">
        <time>2023-01-08T10:28:36Z</time>
      </trkpt>
      <trkpt lat="43.314167" lon="-2.66826">
        <time>2023-01-08T10:28:39Z</time>
      </trkpt>
      <trkpt lat="43.31422" lon="-2.6683226">
        <time>2023-01-08T10:28:41Z</time>
      </trkpt>
      <trkpt lat="43.31431" lon="-2.6683908">
        <time>2023-01-08T10:28:44Z</time>
      </trkpt>
      <trkpt lat="43.31437" lon="-2.6684206">
        <time>2023-01-08T10:28:46Z</time>
      </trkpt>
      <trkpt lat="43.314423" lon="-2.6684406">
        <time>2023-01-08T10:28:48Z</time>
      </trkpt>
      <trkpt lat="43.31448" lon="-2.6684604">
        <time>2023-01-08T10:28:50Z</time>
      </trkpt>
      <trkpt lat="43.314526" lon="-2.6684773">
        <time>2023-01-08T10:28:52Z</time>
      </trkpt>
      <trkpt lat="43.314575" lon="-2.668494">
        <time>2023-01-08T10:28:54Z</time>
      </trkpt>
      <trkpt lat="43.314625" lon="-2.6685157">
        <time>2023-01-08T10:28:56Z</time>
      </trkpt>
      <trkpt lat="43.314713" lon="-2.6685612">
        <time>2023-01-08T10:28:59Z</time>
      </trkpt>
      <trkpt lat="43.314804" lon="-2.6685922">
        <time>2023-01-08T10:29:02Z</time>
      </trkpt>
      <trkpt lat="43.314907" lon="-2.668633">
        <time>2023-01-08T10:29:05Z</time>
      </trkpt>
      <trkpt lat="43.315" lon="-2.6686597">
        <time>2023-01-08T10:29:08Z</time>
      </trkpt>
      <trkpt lat="43.315067" lon="-2.668669">
        <time>2023-01-08T10:29:10Z</time>
      </trkpt>
      <trkpt lat="43.31517" lon="-2.6686904">
        <time>2023-01-08T10:29:13Z</time>
      </trkpt>
      <trkpt lat="43.315247" lon="-2.6687143">
        <time>2023-01-08T10:29:15Z</time>
      </trkpt>
      <trkpt lat="43.315353" lon="-2.668727">
        <time>2023-01-08T10:29:18Z</time>
      </trkpt>
      <trkpt lat="43.315422" lon="-2.668726">
        <time>2023-01-08T10:29:20Z</time>
      </trkpt>
      <trkpt lat="43.315487" lon="-2.6687393">
        <time>2023-01-08T10:29:22Z</time>
      </trkpt>
      <trkpt lat="43.31558" lon="-2.668785">
        <time>2023-01-08T10:29:25Z</time>
      </trkpt>
      <trkpt lat="43.315636" lon="-2.6688247">
        <time>2023-01-08T10:29:27Z</time>
      </trkpt>
      <trkpt lat="43.315697" lon="-2.6688707">
        <time>2023-01-08T10:29:29Z</time>
      </trkpt>
      <trkpt lat="43.315746" lon="-2.66892">
        <time>2023-01-08T10:29:31Z</time>
      </trkpt>
      <trkpt lat="43.31584" lon="-2.669003">
        <time>2023-01-08T10:29:34Z</time>
      </trkpt>
      <trkpt lat="43.31592" lon="-2.6690862">
        <time>2023-01-08T10:29:37Z</time>
      </trkpt>
      <trkpt lat="43.315956" lon="-2.669153">
        <time>2023-01-08T10:29:39Z</time>
      </trkpt>
      <trkpt lat="43.315956" lon="-2.669224">
        <time>2023-01-08T10:29:41Z</time>
      </trkpt>
      <trkpt lat="43.31592" lon="-2.6693306">
        <time>2023-01-08T10:29:44Z</time>
      </trkpt>
      <trkpt lat="43.315865" lon="-2.669431">
        <time>2023-01-08T10:29:47Z</time>
      </trkpt>
      <trkpt lat="43.315826" lon="-2.669496">
        <time>2023-01-08T10:29:49Z</time>
      </trkpt>
      <trkpt lat="43.315792" lon="-2.6695583">
        <time>2023-01-08T10:29:51Z</time>
      </trkpt>
      <trkpt lat="43.315754" lon="-2.6696737">
        <time>2023-01-08T10:29:55Z</time>
      </trkpt>
      <trkpt lat="43.315727" lon="-2.6697307">
        <time>2023-01-08T10:29:57Z</time>
      </trkpt>
      <trkpt lat="43.315693" lon="-2.6697958">
        <time>2023-01-08T10:29:59Z</time>
      </trkpt>
      <trkpt lat="43.315624" lon="-2.6699">
        <time>2023-01-08T10:30:02Z</time>
      </trkpt>
      <trkpt lat="43.315544" lon="-2.6699867">
        <time>2023-01-08T10:30:05Z</time>
      </trkpt>
      <trkpt lat="43.315456" lon="-2.670071">
        <time>2023-01-08T10:30:08Z</time>
      </trkpt>
      <trkpt lat="43.3154" lon="-2.670134">
        <time>2023-01-08T10:30:10Z</time>
      </trkpt>
      <trkpt lat="43.315323" lon="-2.6702306">
        <time>2023-01-08T10:30:13Z</time>
      </trkpt>
      <trkpt lat="43.315258" lon="-2.6703203">
        <time>2023-01-08T10:30:16Z</time>
      </trkpt>
      <trkpt lat="43.31521" lon="-2.670367">
        <time>2023-01-08T10:30:18Z</time>
      </trkpt>
      <trkpt lat="43.31513" lon="-2.6704054">
        <time>2023-01-08T10:30:21Z</time>
      </trkpt>
      <trkpt lat="43.315063" lon="-2.670435">
        <time>2023-01-08T10:30:23Z</time>
      </trkpt>
      <trkpt lat="43.31499" lon="-2.670482">
        <time>2023-01-08T10:30:25Z</time>
      </trkpt>
      <trkpt lat="43.31493" lon="-2.6705372">
        <time>2023-01-08T10:30:27Z</time>
      </trkpt>
      <trkpt lat="43.314835" lon="-2.6706138">
        <time>2023-01-08T10:30:30Z</time>
      </trkpt>
      <trkpt lat="43.314774" lon="-2.6706543">
        <time>2023-01-08T10:30:32Z</time>
      </trkpt>
      <trkpt lat="43.314705" lon="-2.670694">
        <time>2023-01-08T10:30:34Z</time>
      </trkpt>
      <trkpt lat="43.314606" lon="-2.6707487">
        <time>2023-01-08T10:30:37Z</time>
      </trkpt>
      <trkpt lat="43.31454" lon="-2.6707904">
        <time>2023-01-08T10:30:39Z</time>
      </trkpt>
      <trkpt lat="43.31448" lon="-2.670833">
        <time>2023-01-08T10:30:41Z</time>
      </trkpt>
      <trkpt lat="43.314396" lon="-2.6709187">
        <time>2023-01-08T10:30:44Z</time>
      </trkpt>
      <trkpt lat="43.314346" lon="-2.6709826">
        <time>2023-01-08T10:30:46Z</time>
      </trkpt>
      <trkpt lat="43.314293" lon="-2.6710434">
        <time>2023-01-08T10:30:48Z</time>
      </trkpt>
      <trkpt lat="43.314236" lon="-2.6710937">
        <time>2023-01-08T10:30:50Z</time>
      </trkpt>
      <trkpt lat="43.31415" lon="-2.6711624">
        <time>2023-01-08T10:30:53Z</time>
      </trkpt>
      <trkpt lat="43.314083" lon="-2.6712186">
        <time>2023-01-08T10:30:56Z</time>
      </trkpt>
      <trkpt lat="43.314034" lon="-2.6713004">
        <time>2023-01-08T10:31:02Z</time>
      </trkpt>
      <trkpt lat="43.31401" lon="-2.671377">
        <time>2023-01-08T10:31:04Z</time>
      </trkpt>
      <trkpt lat="43.31399" lon="-2.6714706">
        <time>2023-01-08T10:31:06Z</time>
      </trkpt>
      <trkpt lat="43.313972" lon="-2.671541">
        <time>2023-01-08T10:31:08Z</time>
      </trkpt>
      <trkpt lat="43.313927" lon="-2.671587">
        <time>2023-01-08T10:31:12Z</time>
      </trkpt>
      <trkpt lat="43.313843" lon="-2.671538">
        <time>2023-01-08T10:31:16Z</time>
      </trkpt>
      <trkpt lat="43.31374" lon="-2.6715407">
        <time>2023-01-08T10:31:19Z</time>
      </trkpt>
      <trkpt lat="43.31362" lon="-2.67156">
        <time>2023-01-08T10:31:22Z</time>
      </trkpt>
      <trkpt lat="43.313553" lon="-2.6715822">
        <time>2023-01-08T10:31:24Z</time>
      </trkpt>
      <trkpt lat="43.313442" lon="-2.671618">
        <time>2023-01-08T10:31:27Z</time>
      </trkpt>
      <trkpt lat="43.31333" lon="-2.6716542">
        <time>2023-01-08T10:31:30Z</time>
      </trkpt>
      <trkpt lat="43.31326" lon="-2.6716774">
        <time>2023-01-08T10:31:32Z</time>
      </trkpt>
      <trkpt lat="43.313194" lon="-2.6717036">
        <time>2023-01-08T10:31:34Z</time>
      </trkpt>
      <trkpt lat="43.31309" lon="-2.6717463">
        <time>2023-01-08T10:31:37Z</time>
      </trkpt>
      <trkpt lat="43.313023" lon="-2.6717696">
        <time>2023-01-08T10:31:39Z</time>
      </trkpt>
      <trkpt lat="43.312927" lon="-2.6718063">
        <time>2023-01-08T10:31:42Z</time>
      </trkpt>
      <trkpt lat="43.312824" lon="-2.671842">
        <time>2023-01-08T10:31:45Z</time>
      </trkpt>
      <trkpt lat="43.31276" lon="-2.6718674">
        <time>2023-01-08T10:31:47Z</time>
      </trkpt>
      <trkpt lat="43.312695" lon="-2.671889">
        <time>2023-01-08T10:31:49Z</time>
      </trkpt>
      <trkpt lat="43.312626" lon="-2.6719112">
        <time>2023-01-08T10:31:51Z</time>
      </trkpt>
      <trkpt lat="43.312553" lon="-2.6719275">
        <time>2023-01-08T10:31:53Z</time>
      </trkpt>
      <trkpt lat="43.31248" lon="-2.6719368">
        <time>2023-01-08T10:31:55Z</time>
      </trkpt>
      <trkpt lat="43.312374" lon="-2.67196">
        <time>2023-01-08T10:31:58Z</time>
      </trkpt>
      <trkpt lat="43.312313" lon="-2.6719832">
        <time>2023-01-08T10:32:00Z</time>
      </trkpt>
      <trkpt lat="43.312244" lon="-2.672001">
        <time>2023-01-08T10:32:02Z</time>
      </trkpt>
      <trkpt lat="43.312145" lon="-2.6720257">
        <time>2023-01-08T10:32:05Z</time>
      </trkpt>
      <trkpt lat="43.31208" lon="-2.6720486">
        <time>2023-01-08T10:32:07Z</time>
      </trkpt>
      <trkpt lat="43.311974" lon="-2.6720827">
        <time>2023-01-08T10:32:10Z</time>
      </trkpt>
      <trkpt lat="43.311867" lon="-2.6721134">
        <time>2023-01-08T10:32:13Z</time>
      </trkpt>
      <trkpt lat="43.311794" lon="-2.6721356">
        <time>2023-01-08T10:32:15Z</time>
      </trkpt>
      <trkpt lat="43.31173" lon="-2.6721673">
        <time>2023-01-08T10:32:17Z</time>
      </trkpt>
      <trkpt lat="43.31163" lon="-2.6722114">
        <time>2023-01-08T10:32:20Z</time>
      </trkpt>
      <trkpt lat="43.311565" lon="-2.6722367">
        <time>2023-01-08T10:32:22Z</time>
      </trkpt>
      <trkpt lat="43.311493" lon="-2.672263">
        <time>2023-01-08T10:32:24Z</time>
      </trkpt>
      <trkpt lat="43.311398" lon="-2.6723073">
        <time>2023-01-08T10:32:27Z</time>
      </trkpt>
      <trkpt lat="43.31133" lon="-2.6723397">
        <time>2023-01-08T10:32:29Z</time>
      </trkpt>
      <trkpt lat="43.311268" lon="-2.6723707">
        <time>2023-01-08T10:32:31Z</time>
      </trkpt>
      <trkpt lat="43.311203" lon="-2.6724017">
        <time>2023-01-08T10:32:33Z</time>
      </trkpt>
      <trkpt lat="43.31114" lon="-2.6724358">
        <time>2023-01-08T10:32:35Z</time>
      </trkpt>
      <trkpt lat="43.311054" lon="-2.6724806">
        <time>2023-01-08T10:32:38Z</time>
      </trkpt>
      <trkpt lat="43.31095" lon="-2.672523">
        <time>2023-01-08T10:32:41Z</time>
      </trkpt>
      <trkpt lat="43.31089" lon="-2.6725523">
        <time>2023-01-08T10:32:43Z</time>
      </trkpt>
      <trkpt lat="43.31083" lon="-2.6725786">
        <time>2023-01-08T10:32:45Z</time>
      </trkpt>
      <trkpt lat="43.31076" lon="-2.672608">
        <time>2023-01-08T10:32:47Z</time>
      </trkpt>
      <trkpt lat="43.310665" lon="-2.672655">
        <time>2023-01-08T10:32:50Z</time>
      </trkpt>
      <trkpt lat="43.310604" lon="-2.6726882">
        <time>2023-01-08T10:32:53Z</time>
      </trkpt>
      <trkpt lat="43.310493" lon="-2.6727397">
        <time>2023-01-08T10:32:56Z</time>
      </trkpt>
      <trkpt lat="43.310425" lon="-2.6727724">
        <time>2023-01-08T10:32:58Z</time>
      </trkpt>
      <trkpt lat="43.310352" lon="-2.672803">
        <time>2023-01-08T10:33:00Z</time>
      </trkpt>
      <trkpt lat="43.31029" lon="-2.6728277">
        <time>2023-01-08T10:33:02Z</time>
      </trkpt>
      <trkpt lat="43.310207" lon="-2.6728606">
        <time>2023-01-08T10:33:05Z</time>
      </trkpt>
      <trkpt lat="43.310127" lon="-2.672895">
        <time>2023-01-08T10:33:07Z</time>
      </trkpt>
      <trkpt lat="43.310055" lon="-2.6729276">
        <time>2023-01-08T10:33:09Z</time>
      </trkpt>
      <trkpt lat="43.30998" lon="-2.6729558">
        <time>2023-01-08T10:33:11Z</time>
      </trkpt>
      <trkpt lat="43.309902" lon="-2.67299">
        <time>2023-01-08T10:33:13Z</time>
      </trkpt>
      <trkpt lat="43.309834" lon="-2.6730194">
        <time>2023-01-08T10:33:15Z</time>
      </trkpt>
      <trkpt lat="43.30976" lon="-2.67305">
        <time>2023-01-08T10:33:17Z</time>
      </trkpt>
      <trkpt lat="43.309696" lon="-2.67308">
        <time>2023-01-08T10:33:19Z</time>
      </trkpt>
      <trkpt lat="43.309628" lon="-2.6731117">
        <time>2023-01-08T10:33:21Z</time>
      </trkpt>
      <trkpt lat="43.30956" lon="-2.6731393">
        <time>2023-01-08T10:33:23Z</time>
      </trkpt>
      <trkpt lat="43.309498" lon="-2.673169">
        <time>2023-01-08T10:33:25Z</time>
      </trkpt>
      <trkpt lat="43.309433" lon="-2.673196">
        <time>2023-01-08T10:33:27Z</time>
      </trkpt>
      <trkpt lat="43.30937" lon="-2.6732223">
        <time>2023-01-08T10:33:29Z</time>
      </trkpt>
      <trkpt lat="43.309303" lon="-2.6732564">
        <time>2023-01-08T10:33:31Z</time>
      </trkpt>
      <trkpt lat="43.30924" lon="-2.6732893">
        <time>2023-01-08T10:33:33Z</time>
      </trkpt>
      <trkpt lat="43.309177" lon="-2.6733246">
        <time>2023-01-08T10:33:35Z</time>
      </trkpt>
      <trkpt lat="43.309113" lon="-2.6733606">
        <time>2023-01-08T10:33:37Z</time>
      </trkpt>
      <trkpt lat="43.309044" lon="-2.6733978">
        <time>2023-01-08T10:33:39Z</time>
      </trkpt>
      <trkpt lat="43.308983" lon="-2.6734374">
        <time>2023-01-08T10:33:41Z</time>
      </trkpt>
      <trkpt lat="43.308914" lon="-2.673474">
        <time>2023-01-08T10:33:43Z</time>
      </trkpt>
      <trkpt lat="43.30882" lon="-2.6735306">
        <time>2023-01-08T10:33:46Z</time>
      </trkpt>
      <trkpt lat="43.308754" lon="-2.673571">
        <time>2023-01-08T10:33:48Z</time>
      </trkpt>
      <trkpt lat="43.308693" lon="-2.6736114">
        <time>2023-01-08T10:33:50Z</time>
      </trkpt>
      <trkpt lat="43.30863" lon="-2.6736474">
        <time>2023-01-08T10:33:52Z</time>
      </trkpt>
      <trkpt lat="43.30857" lon="-2.6736844">
        <time>2023-01-08T10:33:54Z</time>
      </trkpt>
      <trkpt lat="43.308468" lon="-2.6737394">
        <time>2023-01-08T10:33:57Z</time>
      </trkpt>
      <trkpt lat="43.3084" lon="-2.6737747">
        <time>2023-01-08T10:33:59Z</time>
      </trkpt>
      <trkpt lat="43.30834" lon="-2.67381">
        <time>2023-01-08T10:34:01Z</time>
      </trkpt>
      <trkpt lat="43.308266" lon="-2.6738427">
        <time>2023-01-08T10:34:03Z</time>
      </trkpt>
      <trkpt lat="43.3082" lon="-2.6738768">
        <time>2023-01-08T10:34:05Z</time>
      </trkpt>
      <trkpt lat="43.30811" lon="-2.673945">
        <time>2023-01-08T10:34:08Z</time>
      </trkpt>
      <trkpt lat="43.308018" lon="-2.6740112">
        <time>2023-01-08T10:34:11Z</time>
      </trkpt>
      <trkpt lat="43.307957" lon="-2.6740506">
        <time>2023-01-08T10:34:13Z</time>
      </trkpt>
      <trkpt lat="43.307846" lon="-2.6741">
        <time>2023-01-08T10:34:16Z</time>
      </trkpt>
      <trkpt lat="43.307747" lon="-2.6741517">
        <time>2023-01-08T10:34:19Z</time>
      </trkpt>
      <trkpt lat="43.30765" lon="-2.6742094">
        <time>2023-01-08T10:34:22Z</time>
      </trkpt>
      <trkpt lat="43.307587" lon="-2.674244">
        <time>2023-01-08T10:34:24Z</time>
      </trkpt>
      <trkpt lat="43.307514" lon="-2.6742778">
        <time>2023-01-08T10:34:26Z</time>
      </trkpt>
      <trkpt lat="43.30745" lon="-2.6743193">
        <time>2023-01-08T10:34:28Z</time>
      </trkpt>
      <trkpt lat="43.30739" lon="-2.674361">
        <time>2023-01-08T10:34:30Z</time>
      </trkpt>
      <trkpt lat="43.30729" lon="-2.6744168">
        <time>2023-01-08T10:34:33Z</time>
      </trkpt>
      <trkpt lat="43.307228" lon="-2.674443">
        <time>2023-01-08T10:34:35Z</time>
      </trkpt>
      <trkpt lat="43.30717" lon="-2.6744673">
        <time>2023-01-08T10:34:37Z</time>
      </trkpt>
      <trkpt lat="43.307114" lon="-2.674506">
        <time>2023-01-08T10:34:39Z</time>
      </trkpt>
      <trkpt lat="43.307053" lon="-2.674547">
        <time>2023-01-08T10:34:41Z</time>
      </trkpt>
      <trkpt lat="43.306988" lon="-2.6745827">
        <time>2023-01-08T10:34:43Z</time>
      </trkpt>
      <trkpt lat="43.306927" lon="-2.6746223">
        <time>2023-01-08T10:34:45Z</time>
      </trkpt>
      <trkpt lat="43.306828" lon="-2.674686">
        <time>2023-01-08T10:34:48Z</time>
      </trkpt>
      <trkpt lat="43.306736" lon="-2.674747">
        <time>2023-01-08T10:34:51Z</time>
      </trkpt>
      <trkpt lat="43.306675" lon="-2.6747904">
        <time>2023-01-08T10:34:53Z</time>
      </trkpt>
      <trkpt lat="43.306614" lon="-2.674842">
        <time>2023-01-08T10:34:55Z</time>
      </trkpt>
      <trkpt lat="43.306515" lon="-2.6749177">
        <time>2023-01-08T10:34:58Z</time>
      </trkpt>
      <trkpt lat="43.306454" lon="-2.6749628">
        <time>2023-01-08T10:35:00Z</time>
      </trkpt>
      <trkpt lat="43.306374" lon="-2.6750267">
        <time>2023-01-08T10:35:03Z</time>
      </trkpt>
      <trkpt lat="43.306313" lon="-2.6750696">
        <time>2023-01-08T10:35:05Z</time>
      </trkpt>
      <trkpt lat="43.306213" lon="-2.675115">
        <time>2023-01-08T10:35:08Z</time>
      </trkpt>
      <trkpt lat="43.30614" lon="-2.6751363">
        <time>2023-01-08T10:35:10Z</time>
      </trkpt>
      <trkpt lat="43.306076" lon="-2.6751664">
        <time>2023-01-08T10:35:12Z</time>
      </trkpt>
      <trkpt lat="43.30601" lon="-2.6752024">
        <time>2023-01-08T10:35:14Z</time>
      </trkpt>
      <trkpt lat="43.305946" lon="-2.675246">
        <time>2023-01-08T10:35:16Z</time>
      </trkpt>
      <trkpt lat="43.305885" lon="-2.675297">
        <time>2023-01-08T10:35:18Z</time>
      </trkpt>
      <trkpt lat="43.305794" lon="-2.67538">
        <time>2023-01-08T10:35:21Z</time>
      </trkpt>
      <trkpt lat="43.305702" lon="-2.6754572">
        <time>2023-01-08T10:35:24Z</time>
      </trkpt>
      <trkpt lat="43.305637" lon="-2.6755083">
        <time>2023-01-08T10:35:26Z</time>
      </trkpt>
      <trkpt lat="43.305573" lon="-2.675561">
        <time>2023-01-08T10:35:28Z</time>
      </trkpt>
      <trkpt lat="43.30549" lon="-2.6756413">
        <time>2023-01-08T10:35:31Z</time>
      </trkpt>
      <trkpt lat="43.305428" lon="-2.6756883">
        <time>2023-01-08T10:35:33Z</time>
      </trkpt>
      <trkpt lat="43.305332" lon="-2.6757476">
        <time>2023-01-08T10:35:36Z</time>
      </trkpt>
      <trkpt lat="43.30524" lon="-2.6758184">
        <time>2023-01-08T10:35:39Z</time>
      </trkpt>
      <trkpt lat="43.30518" lon="-2.6758676">
        <time>2023-01-08T10:35:41Z</time>
      </trkpt>
      <trkpt lat="43.305088" lon="-2.675931">
        <time>2023-01-08T10:35:44Z</time>
      </trkpt>
      <trkpt lat="43.305023" lon="-2.6759727">
        <time>2023-01-08T10:35:46Z</time>
      </trkpt>
      <trkpt lat="43.30496" lon="-2.6760187">
        <time>2023-01-08T10:35:48Z</time>
      </trkpt>
      <trkpt lat="43.304874" lon="-2.676098">
        <time>2023-01-08T10:35:51Z</time>
      </trkpt>
      <trkpt lat="43.304813" lon="-2.6761453">
        <time>2023-01-08T10:35:53Z</time>
      </trkpt>
      <trkpt lat="43.30475" lon="-2.676187">
        <time>2023-01-08T10:35:55Z</time>
      </trkpt>
      <trkpt lat="43.304695" lon="-2.6762254">
        <time>2023-01-08T10:35:57Z</time>
      </trkpt>
      <trkpt lat="43.304634" lon="-2.676254">
        <time>2023-01-08T10:35:59Z</time>
      </trkpt>
      <trkpt lat="43.30455" lon="-2.6762676">
        <time>2023-01-08T10:36:02Z</time>
      </trkpt>
      <trkpt lat="43.304474" lon="-2.6762686">
        <time>2023-01-08T10:36:05Z</time>
      </trkpt>
      <trkpt lat="43.304367" lon="-2.6762602">
        <time>2023-01-08T10:36:09Z</time>
      </trkpt>
      <trkpt lat="43.30426" lon="-2.676257">
        <time>2023-01-08T10:36:12Z</time>
      </trkpt>
      <trkpt lat="43.30418" lon="-2.6762674">
        <time>2023-01-08T10:36:14Z</time>
      </trkpt>
      <trkpt lat="43.304104" lon="-2.6762786">
        <time>2023-01-08T10:36:16Z</time>
      </trkpt>
      <trkpt lat="43.303986" lon="-2.6763263">
        <time>2023-01-08T10:36:19Z</time>
      </trkpt>
      <trkpt lat="43.303917" lon="-2.676371">
        <time>2023-01-08T10:36:21Z</time>
      </trkpt>
      <trkpt lat="43.30382" lon="-2.6764567">
        <time>2023-01-08T10:36:24Z</time>
      </trkpt>
      <trkpt lat="43.30376" lon="-2.6765218">
        <time>2023-01-08T10:36:26Z</time>
      </trkpt>
      <trkpt lat="43.30371" lon="-2.676592">
        <time>2023-01-08T10:36:28Z</time>
      </trkpt>
      <trkpt lat="43.30366" lon="-2.6766667">
        <time>2023-01-08T10:36:30Z</time>
      </trkpt>
      <trkpt lat="43.30361" lon="-2.676736">
        <time>2023-01-08T10:36:32Z</time>
      </trkpt>
      <trkpt lat="43.303535" lon="-2.6768267">
        <time>2023-01-08T10:36:35Z</time>
      </trkpt>
      <trkpt lat="43.303448" lon="-2.6768844">
        <time>2023-01-08T10:36:38Z</time>
      </trkpt>
      <trkpt lat="43.303383" lon="-2.6769137">
        <time>2023-01-08T10:36:40Z</time>
      </trkpt>
      <trkpt lat="43.30328" lon="-2.6769586">
        <time>2023-01-08T10:36:43Z</time>
      </trkpt>
      <trkpt lat="43.303215" lon="-2.6769836">
        <time>2023-01-08T10:36:45Z</time>
      </trkpt>
      <trkpt lat="43.303143" lon="-2.677055">
        <time>2023-01-08T10:36:48Z</time>
      </trkpt>
      <trkpt lat="43.303123" lon="-2.677128">
        <time>2023-01-08T10:36:50Z</time>
      </trkpt>
      <trkpt lat="43.30313" lon="-2.6772432">
        <time>2023-01-08T10:36:53Z</time>
      </trkpt>
      <trkpt lat="43.30317" lon="-2.6773086">
        <time>2023-01-08T10:36:55Z</time>
      </trkpt>
      <trkpt lat="43.30322" lon="-2.6773686">
        <time>2023-01-08T10:36:57Z</time>
      </trkpt>
      <trkpt lat="43.30328" lon="-2.677445">
        <time>2023-01-08T10:37:00Z</time>
      </trkpt>
      <trkpt lat="43.303337" lon="-2.677531">
        <time>2023-01-08T10:37:02Z</time>
      </trkpt>
      <trkpt lat="43.30341" lon="-2.677663">
        <time>2023-01-08T10:37:05Z</time>
      </trkpt>
      <trkpt lat="43.303448" lon="-2.6777434">
        <time>2023-01-08T10:37:07Z</time>
      </trkpt>
      <trkpt lat="43.303497" lon="-2.677868">
        <time>2023-01-08T10:37:10Z</time>
      </trkpt>
      <trkpt lat="43.303535" lon="-2.6779833">
        <time>2023-01-08T10:37:13Z</time>
      </trkpt>
      <trkpt lat="43.303596" lon="-2.6781077">
        <time>2023-01-08T10:37:18Z</time>
      </trkpt>
      <trkpt lat="43.303627" lon="-2.6781623">
        <time>2023-01-08T10:37:19Z</time>
      </trkpt>
      <trkpt lat="43.30369" lon="-2.67826">
        <time>2023-01-08T10:37:21Z</time>
      </trkpt>
      <trkpt lat="43.30376" lon="-2.678376">
        <time>2023-01-08T10:37:24Z</time>
      </trkpt>
      <trkpt lat="43.303837" lon="-2.678469">
        <time>2023-01-08T10:37:27Z</time>
      </trkpt>
      <trkpt lat="43.30389" lon="-2.6785297">
        <time>2023-01-08T10:37:29Z</time>
      </trkpt>
      <trkpt lat="43.30394" lon="-2.6785884">
        <time>2023-01-08T10:37:31Z</time>
      </trkpt>
      <trkpt lat="43.303986" lon="-2.6786454">
        <time>2023-01-08T10:37:33Z</time>
      </trkpt>
      <trkpt lat="43.304066" lon="-2.6787307">
        <time>2023-01-08T10:37:36Z</time>
      </trkpt>
      <trkpt lat="43.30411" lon="-2.6787946">
        <time>2023-01-08T10:37:38Z</time>
      </trkpt>
      <trkpt lat="43.30416" lon="-2.6788633">
        <time>2023-01-08T10:37:40Z</time>
      </trkpt>
      <trkpt lat="43.30421" lon="-2.6789253">
        <time>2023-01-08T10:37:42Z</time>
      </trkpt>
      <trkpt lat="43.304268" lon="-2.6789846">
        <time>2023-01-08T10:37:44Z</time>
      </trkpt>
      <trkpt lat="43.304325" lon="-2.6790476">
        <time>2023-01-08T10:37:46Z</time>
      </trkpt>
      <trkpt lat="43.304413" lon="-2.679142">
        <time>2023-01-08T10:37:49Z</time>
      </trkpt>
      <trkpt lat="43.30449" lon="-2.6792257">
        <time>2023-01-08T10:37:52Z</time>
      </trkpt>
      <trkpt lat="43.304535" lon="-2.6792927">
        <time>2023-01-08T10:37:54Z</time>
      </trkpt>
      <trkpt lat="43.304607" lon="-2.6793864">
        <time>2023-01-08T10:37:57Z</time>
      </trkpt>
      <trkpt lat="43.304665" lon="-2.6794503">
        <time>2023-01-08T10:37:59Z</time>
      </trkpt>
      <trkpt lat="43.30471" lon="-2.6795204">
        <time>2023-01-08T10:38:01Z</time>
      </trkpt>
      <trkpt lat="43.30478" lon="-2.6796327">
        <time>2023-01-08T10:38:04Z</time>
      </trkpt>
      <trkpt lat="43.304832" lon="-2.6797023">
        <time>2023-01-08T10:38:06Z</time>
      </trkpt>
      <trkpt lat="43.30489" lon="-2.6797647">
        <time>2023-01-08T10:38:08Z</time>
      </trkpt>
      <trkpt lat="43.30494" lon="-2.6798267">
        <time>2023-01-08T10:38:10Z</time>
      </trkpt>
      <trkpt lat="43.305023" lon="-2.6799283">
        <time>2023-01-08T10:38:13Z</time>
      </trkpt>
      <trkpt lat="43.30506" lon="-2.6799917">
        <time>2023-01-08T10:38:15Z</time>
      </trkpt>
      <trkpt lat="43.305103" lon="-2.6800497">
        <time>2023-01-08T10:38:17Z</time>
      </trkpt>
      <trkpt lat="43.30515" lon="-2.680107">
        <time>2023-01-08T10:38:19Z</time>
      </trkpt>
      <trkpt lat="43.30521" lon="-2.680195">
        <time>2023-01-08T10:38:22Z</time>
      </trkpt>
      <trkpt lat="43.30525" lon="-2.680261">
        <time>2023-01-08T10:38:24Z</time>
      </trkpt>
      <trkpt lat="43.305298" lon="-2.6803644">
        <time>2023-01-08T10:38:27Z</time>
      </trkpt>
      <trkpt lat="43.30533" lon="-2.6804376">
        <time>2023-01-08T10:38:29Z</time>
      </trkpt>
      <trkpt lat="43.305363" lon="-2.6805413">
        <time>2023-01-08T10:38:32Z</time>
      </trkpt>
      <trkpt lat="43.305397" lon="-2.6806076">
        <time>2023-01-08T10:38:34Z</time>
      </trkpt>
      <trkpt lat="43.305428" lon="-2.6806686">
        <time>2023-01-08T10:38:36Z</time>
      </trkpt>
      <trkpt lat="43.30546" lon="-2.680756">
        <time>2023-01-08T10:38:39Z</time>
      </trkpt>
      <trkpt lat="43.30548" lon="-2.6808136">
        <time>2023-01-08T10:38:41Z</time>
      </trkpt>
      <trkpt lat="43.30551" lon="-2.680916">
        <time>2023-01-08T10:38:44Z</time>
      </trkpt>
      <trkpt lat="43.305542" lon="-2.6809826">
        <time>2023-01-08T10:38:46Z</time>
      </trkpt>
      <trkpt lat="43.305573" lon="-2.6810493">
        <time>2023-01-08T10:38:48Z</time>
      </trkpt>
      <trkpt lat="43.305607" lon="-2.6811132">
        <time>2023-01-08T10:38:50Z</time>
      </trkpt>
      <trkpt lat="43.305614" lon="-2.6811817">
        <time>2023-01-08T10:38:52Z</time>
      </trkpt>
      <trkpt lat="43.305622" lon="-2.6812644">
        <time>2023-01-08T10:38:54Z</time>
      </trkpt>
      <trkpt lat="43.30561" lon="-2.681403">
        <time>2023-01-08T10:38:57Z</time>
      </trkpt>
      <trkpt lat="43.30559" lon="-2.681491">
        <time>2023-01-08T10:38:59Z</time>
      </trkpt>
      <trkpt lat="43.30606" lon="-2.68248">
        <time>2023-01-08T09:08:32Z</time>
      </trkpt>
      <trkpt lat="43.306046" lon="-2.6824718">
        <time>2023-01-08T09:08:33Z</time>
      </trkpt>
      <trkpt lat="43.30604" lon="-2.6824706">
        <time>2023-01-08T09:08:34Z</time>
      </trkpt>
      <trkpt lat="43.306034" lon="-2.6824634">
        <time>2023-01-08T09:08:35Z</time>
      </trkpt>
      <trkpt lat="43.30602" lon="-2.682455">
        <time>2023-01-08T09:08:36Z</time>
      </trkpt>
      <trkpt lat="43.30599" lon="-2.6824408">
        <time>2023-01-08T09:08:38Z</time>
      </trkpt>
      <trkpt lat="43.305958" lon="-2.6824248">
        <time>2023-01-08T09:08:39Z</time>
      </trkpt>
      <trkpt lat="43.305916" lon="-2.6823914">
        <time>2023-01-08T09:08:41Z</time>
      </trkpt>
      <trkpt lat="43.305897" lon="-2.682311">
        <time>2023-01-08T09:08:44Z</time>
      </trkpt>
      <trkpt lat="43.3059" lon="-2.6822016">
        <time>2023-01-08T09:08:47Z</time>
      </trkpt>
      <trkpt lat="43.305897" lon="-2.6821206">
        <time>2023-01-08T09:08:49Z</time>
      </trkpt>
      <trkpt lat="43.30585" lon="-2.6820087">
        <time>2023-01-08T09:08:52Z</time>
      </trkpt>
      <trkpt lat="43.3058" lon="-2.6819024">
        <time>2023-01-08T09:08:55Z</time>
      </trkpt>
      <trkpt lat="43.305767" lon="-2.6818273">
        <time>2023-01-08T09:08:57Z</time>
      </trkpt>
      <trkpt lat="43.305748" lon="-2.6817474">
        <time>2023-01-08T09:08:59Z</time>
      </trkpt>
      <trkpt lat="43.305733" lon="-2.681667">
        <time>2023-01-08T09:09:01Z</time>
      </trkpt>
      <trkpt lat="43.305717" lon="-2.681545">
        <time>2023-01-08T09:09:04Z</time>
      </trkpt>
      <trkpt lat="43.305714" lon="-2.6814647">
        <time>2023-01-08T09:09:06Z</time>
      </trkpt>
      <trkpt lat="43.305706" lon="-2.681386">
        <time>2023-01-08T09:09:08Z</time>
      </trkpt>
      <trkpt lat="43.305706" lon="-2.6813047">
        <time>2023-01-08T09:09:10Z</time>
      </trkpt>
      <trkpt lat="43.305706" lon="-2.6812217">
        <time>2023-01-08T09:09:12Z</time>
      </trkpt>
      <trkpt lat="43.305702" lon="-2.6811466">
        <time>2023-01-08T09:09:14Z</time>
      </trkpt>
      <trkpt lat="43.305676" lon="-2.6810756">
        <time>2023-01-08T09:09:16Z</time>
      </trkpt>
      <trkpt lat="43.305656" lon="-2.6810033">
        <time>2023-01-08T09:09:18Z</time>
      </trkpt>
      <trkpt lat="43.305626" lon="-2.680931">
        <time>2023-01-08T09:09:20Z</time>
      </trkpt>
      <trkpt lat="43.3056" lon="-2.6808584">
        <time>2023-01-08T09:09:22Z</time>
      </trkpt>
      <trkpt lat="43.305542" lon="-2.6807444">
        <time>2023-01-08T09:09:25Z</time>
      </trkpt>
      <trkpt lat="43.30551" lon="-2.6806653">
        <time>2023-01-08T09:09:27Z</time>
      </trkpt>
      <trkpt lat="43.30548" lon="-2.6805906">
        <time>2023-01-08T09:09:29Z</time>
      </trkpt>
      <trkpt lat="43.305447" lon="-2.6805162">
        <time>2023-01-08T09:09:31Z</time>
      </trkpt>
      <trkpt lat="43.305397" lon="-2.6804004">
        <time>2023-01-08T09:09:34Z</time>
      </trkpt>
      <trkpt lat="43.305355" lon="-2.6803226">
        <time>2023-01-08T09:09:36Z</time>
      </trkpt>
      <trkpt lat="43.305313" lon="-2.6802454">
        <time>2023-01-08T09:09:38Z</time>
      </trkpt>
      <trkpt lat="43.30528" lon="-2.680171">
        <time>2023-01-08T09:09:40Z</time>
      </trkpt>
      <trkpt lat="43.30524" lon="-2.6801">
        <time>2023-01-08T09:09:42Z</time>
      </trkpt>
      <trkpt lat="43.305183" lon="-2.6799867">
        <time>2023-01-08T09:09:45Z</time>
      </trkpt>
      <trkpt lat="43.305138" lon="-2.6799142">
        <time>2023-01-08T09:09:47Z</time>
      </trkpt>
      <trkpt lat="43.30507" lon="-2.6798077">
        <time>2023-01-08T09:09:50Z</time>
      </trkpt>
      <trkpt lat="43.305016" lon="-2.6797454">
        <time>2023-01-08T09:09:52Z</time>
      </trkpt>
      <trkpt lat="43.304943" lon="-2.6796474">
        <time>2023-01-08T09:09:55Z</time>
      </trkpt>
      <trkpt lat="43.304893" lon="-2.6795847">
        <time>2023-01-08T09:09:57Z</time>
      </trkpt>
      <trkpt lat="43.304817" lon="-2.6794934">
        <time>2023-01-08T09:10:00Z</time>
      </trkpt>
      <trkpt lat="43.304764" lon="-2.679435">
        <time>2023-01-08T09:10:02Z</time>
      </trkpt>
      <trkpt lat="43.30471" lon="-2.6793683">
        <time>2023-01-08T09:10:05Z</time>
      </trkpt>
      <trkpt lat="43.304638" lon="-2.679299">
        <time>2023-01-08T09:10:08Z</time>
      </trkpt>
      <trkpt lat="43.3046" lon="-2.679265">
        <time>2023-01-08T09:10:09Z</time>
      </trkpt>
      <trkpt lat="43.304516" lon="-2.6791637">
        <time>2023-01-08T09:10:12Z</time>
      </trkpt>
      <trkpt lat="43.30446" lon="-2.6791036">
        <time>2023-01-08T09:10:14Z</time>
      </trkpt>
      <trkpt lat="43.3044" lon="-2.6790473">
        <time>2023-01-08T09:10:16Z</time>
      </trkpt>
      <trkpt lat="43.304344" lon="-2.678992">
        <time>2023-01-08T09:10:18Z</time>
      </trkpt>
      <trkpt lat="43.304264" lon="-2.6789134">
        <time>2023-01-08T09:10:21Z</time>
      </trkpt>
      <trkpt lat="43.30421" lon="-2.678858">
        <time>2023-01-08T09:10:23Z</time>
      </trkpt>
      <trkpt lat="43.30413" lon="-2.678769">
        <time>2023-01-08T09:10:26Z</time>
      </trkpt>
      <trkpt lat="43.304054" lon="-2.6786838">
        <time>2023-01-08T09:10:29Z</time>
      </trkpt>
      <trkpt lat="43.304" lon="-2.6786237">
        <time>2023-01-08T09:10:31Z</time>
      </trkpt>
      <trkpt lat="43.30395" lon="-2.678565">
        <time>2023-01-08T09:10:33Z</time>
      </trkpt>
      <trkpt lat="43.3039" lon="-2.678501">
        <time>2023-01-08T09:10:35Z</time>
      </trkpt>
      <trkpt lat="43.303837" lon="-2.6784267">
        <time>2023-01-08T09:10:38Z</time>
      </trkpt>
      <trkpt lat="43.303783" lon="-2.6783493">
        <time>2023-01-08T09:10:40Z</time>
      </trkpt>
      <trkpt lat="43.30371" lon="-2.678239">
        <time>2023-01-08T09:10:43Z</time>
      </trkpt>
      <trkpt lat="43.30367" lon="-2.6781564">
        <time>2023-01-08T09:10:45Z</time>
      </trkpt>
      <trkpt lat="43.303627" lon="-2.6780684">
        <time>2023-01-08T09:10:47Z</time>
      </trkpt>
      <trkpt lat="43.30358" lon="-2.6779497">
        <time>2023-01-08T09:10:50Z</time>
      </trkpt>
      <trkpt lat="43.30355" lon="-2.6778364">
        <time>2023-01-08T09:10:53Z</time>
      </trkpt>
      <trkpt lat="43.303535" lon="-2.677762">
        <time>2023-01-08T09:10:55Z</time>
      </trkpt>
      <trkpt lat="43.303513" lon="-2.6776853">
        <time>2023-01-08T09:10:57Z</time>
      </trkpt>
      <trkpt lat="43.303448" lon="-2.677582">
        <time>2023-01-08T09:11:00Z</time>
      </trkpt>
      <trkpt lat="43.303402" lon="-2.677524">
        <time>2023-01-08T09:11:02Z</time>
      </trkpt>
      <trkpt lat="43.303356" lon="-2.677467">
        <time>2023-01-08T09:11:04Z</time>
      </trkpt>
      <trkpt lat="43.303288" lon="-2.6773794">
        <time>2023-01-08T09:11:07Z</time>
      </trkpt>
      <trkpt lat="43.303204" lon="-2.6773016">
        <time>2023-01-08T09:11:10Z</time>
      </trkpt>
      <trkpt lat="43.303146" lon="-2.6772563">
        <time>2023-01-08T09:11:12Z</time>
      </trkpt>
      <trkpt lat="43.30306" lon="-2.6772127">
        <time>2023-01-08T09:11:15Z</time>
      </trkpt>
      <trkpt lat="43.302963" lon="-2.6771777">
        <time>2023-01-08T09:11:18Z</time>
      </trkpt>
      <trkpt lat="43.302902" lon="-2.6771476">
        <time>2023-01-08T09:11:20Z</time>
      </trkpt>
      <trkpt lat="43.302845" lon="-2.677103">
        <time>2023-01-08T09:11:22Z</time>
      </trkpt>
      <trkpt lat="43.302803" lon="-2.677043">
        <time>2023-01-08T09:11:24Z</time>
      </trkpt>
      <trkpt lat="43.30278" lon="-2.6769593">
        <time>2023-01-08T09:11:26Z</time>
      </trkpt>
      <trkpt lat="43.30278" lon="-2.676876">
        <time>2023-01-08T09:11:28Z</time>
      </trkpt>
      <trkpt lat="43.302788" lon="-2.6767907">
        <time>2023-01-08T09:11:30Z</time>
      </trkpt>
      <trkpt lat="43.3028" lon="-2.6767054">
        <time>2023-01-08T09:11:32Z</time>
      </trkpt>
      <trkpt lat="43.30282" lon="-2.6766102">
        <time>2023-01-08T09:11:34Z</time>
      </trkpt>
      <trkpt lat="43.30284" lon="-2.6764674">
        <time>2023-01-08T09:11:37Z</time>
      </trkpt>
      <trkpt lat="43.30285" lon="-2.6763773">
        <time>2023-01-08T09:11:39Z</time>
      </trkpt>
      <trkpt lat="43.302876" lon="-2.6762407">
        <time>2023-01-08T09:11:42Z</time>
      </trkpt>
      <trkpt lat="43.3029" lon="-2.676106">
        <time>2023-01-08T09:11:45Z</time>
      </trkpt>
      <trkpt lat="43.302906" lon="-2.675972">
        <time>2023-01-08T09:11:48Z</time>
      </trkpt>
      <trkpt lat="43.30293" lon="-2.6758397">
        <time>2023-01-08T09:11:51Z</time>
      </trkpt>
      <trkpt lat="43.302948" lon="-2.6757133">
        <time>2023-01-08T09:11:54Z</time>
      </trkpt>
      <trkpt lat="43.302975" lon="-2.6755834">
        <time>2023-01-08T09:11:57Z</time>
      </trkpt>
      <trkpt lat="43.302982" lon="-2.6754932">
        <time>2023-01-08T09:11:59Z</time>
      </trkpt>
      <trkpt lat="43.303005" lon="-2.6754076">
        <time>2023-01-08T09:12:01Z</time>
      </trkpt>
      <trkpt lat="43.303013" lon="-2.6753178">
        <time>2023-01-08T09:12:03Z</time>
      </trkpt>
      <trkpt lat="43.303036" lon="-2.6751847">
        <time>2023-01-08T09:12:06Z</time>
      </trkpt>
      <trkpt lat="43.30305" lon="-2.675091">
        <time>2023-01-08T09:12:08Z</time>
      </trkpt>
      <trkpt lat="43.303078" lon="-2.674956">
        <time>2023-01-08T09:12:11Z</time>
      </trkpt>
      <trkpt lat="43.303093" lon="-2.674869">
        <time>2023-01-08T09:12:13Z</time>
      </trkpt>
      <trkpt lat="43.303116" lon="-2.6747444">
        <time>2023-01-08T09:12:16Z</time>
      </trkpt>
      <trkpt lat="43.30314" lon="-2.6746647">
        <time>2023-01-08T09:12:18Z</time>
      </trkpt>
      <trkpt lat="43.30317" lon="-2.6745396">
        <time>2023-01-08T09:12:21Z</time>
      </trkpt>
      <trkpt lat="43.30319" lon="-2.67445">
        <time>2023-01-08T09:12:23Z</time>
      </trkpt>
      <trkpt lat="43.303207" lon="-2.674318">
        <time>2023-01-08T09:12:26Z</time>
      </trkpt>
      <trkpt lat="43.303223" lon="-2.6742268">
        <time>2023-01-08T09:12:28Z</time>
      </trkpt>
      <trkpt lat="43.303253" lon="-2.6740913">
        <time>2023-01-08T09:12:31Z</time>
      </trkpt>
      <trkpt lat="43.303276" lon="-2.6740046">
        <time>2023-01-08T09:12:33Z</time>
      </trkpt>
      <trkpt lat="43.303303" lon="-2.6738694">
        <time>2023-01-08T09:12:36Z</time>
      </trkpt>
      <trkpt lat="43.30331" lon="-2.673785">
        <time>2023-01-08T09:12:38Z</time>
      </trkpt>
      <trkpt lat="43.303318" lon="-2.673693">
        <time>2023-01-08T09:12:40Z</time>
      </trkpt>
      <trkpt lat="43.303326" lon="-2.6735563">
        <time>2023-01-08T09:12:43Z</time>
      </trkpt>
      <trkpt lat="43.303337" lon="-2.67342">
        <time>2023-01-08T09:12:46Z</time>
      </trkpt>
      <trkpt lat="43.30335" lon="-2.673327">
        <time>2023-01-08T09:12:48Z</time>
      </trkpt>
      <trkpt lat="43.303356" lon="-2.673232">
        <time>2023-01-08T09:12:50Z</time>
      </trkpt>
      <trkpt lat="43.303368" lon="-2.6730917">
        <time>2023-01-08T09:12:53Z</time>
      </trkpt>
      <trkpt lat="43.303368" lon="-2.6729987">
        <time>2023-01-08T09:12:55Z</time>
      </trkpt>
      <trkpt lat="43.303352" lon="-2.6728637">
        <time>2023-01-08T09:12:58Z</time>
      </trkpt>
      <trkpt lat="43.30335" lon="-2.672776">
        <time>2023-01-08T09:13:00Z</time>
      </trkpt>
      <trkpt lat="43.30331" lon="-2.6725483">
        <time>2023-01-08T09:13:03Z</time>
      </trkpt>
      <trkpt lat="43.303307" lon="-2.6725183">
        <time>2023-01-08T09:13:05Z</time>
      </trkpt>
      <trkpt lat="43.303295" lon="-2.672415">
        <time>2023-01-08T09:13:08Z</time>
      </trkpt>
      <trkpt lat="43.303272" lon="-2.6722922">
        <time>2023-01-08T09:13:11Z</time>
      </trkpt>
      <trkpt lat="43.303253" lon="-2.6722066">
        <time>2023-01-08T09:13:13Z</time>
      </trkpt>
      <trkpt lat="43.303234" lon="-2.6721184">
        <time>2023-01-08T09:13:15Z</time>
      </trkpt>
      <trkpt lat="43.30322" lon="-2.6720223">
        <time>2023-01-08T09:13:17Z</time>
      </trkpt>
      <trkpt lat="43.303192" lon="-2.6719277">
        <time>2023-01-08T09:13:19Z</time>
      </trkpt>
      <trkpt lat="43.303173" lon="-2.671833">
        <time>2023-01-08T09:13:21Z</time>
      </trkpt>
      <trkpt lat="43.303158" lon="-2.6717393">
        <time>2023-01-08T09:13:23Z</time>
      </trkpt>
      <trkpt lat="43.303146" lon="-2.6716516">
        <time>2023-01-08T09:13:25Z</time>
      </trkpt>
      <trkpt lat="43.30314" lon="-2.6715624">
        <time>2023-01-08T09:13:27Z</time>
      </trkpt>
      <trkpt lat="43.303127" lon="-2.6714737">
        <time>2023-01-08T09:13:29Z</time>
      </trkpt>
      <trkpt lat="43.303116" lon="-2.671341">
        <time>2023-01-08T09:13:32Z</time>
      </trkpt>
      <trkpt lat="43.303112" lon="-2.671253">
        <time>2023-01-08T09:13:34Z</time>
      </trkpt>
      <trkpt lat="43.30311" lon="-2.6711173">
        <time>2023-01-08T09:13:37Z</time>
      </trkpt>
      <trkpt lat="43.303097" lon="-2.6709857">
        <time>2023-01-08T09:13:40Z</time>
      </trkpt>
      <trkpt lat="43.303093" lon="-2.6708956">
        <time>2023-01-08T09:13:42Z</time>
      </trkpt>
      <trkpt lat="43.303078" lon="-2.6708074">
        <time>2023-01-08T09:13:44Z</time>
      </trkpt>
      <trkpt lat="43.30303" lon="-2.6706953">
        <time>2023-01-08T09:13:47Z</time>
      </trkpt>
      <trkpt lat="43.30298" lon="-2.670631">
        <time>2023-01-08T09:13:49Z</time>
      </trkpt>
      <trkpt lat="43.30293" lon="-2.6705787">
        <time>2023-01-08T09:13:51Z</time>
      </trkpt>
      <trkpt lat="43.302876" lon="-2.6705296">
        <time>2023-01-08T09:13:53Z</time>
      </trkpt>
      <trkpt lat="43.302788" lon="-2.6704586">
        <time>2023-01-08T09:13:56Z</time>
      </trkpt>
      <trkpt lat="43.302696" lon="-2.6703882">
        <time>2023-01-08T09:13:59Z</time>
      </trkpt>
      <trkpt lat="43.30263" lon="-2.670346">
        <time>2023-01-08T09:14:01Z</time>
      </trkpt>
      <trkpt lat="43.302547" lon="-2.6702833">
        <time>2023-01-08T09:14:04Z</time>
      </trkpt>
      <trkpt lat="43.30246" lon="-2.670218">
        <time>2023-01-08T09:14:07Z</time>
      </trkpt>
      <trkpt lat="43.302406" lon="-2.6701753">
        <time>2023-01-08T09:14:09Z</time>
      </trkpt>
      <trkpt lat="43.302353" lon="-2.6701276">
        <time>2023-01-08T09:14:11Z</time>
      </trkpt>
      <trkpt lat="43.3023" lon="-2.6700826">
        <time>2023-01-08T09:14:13Z</time>
      </trkpt>
      <trkpt lat="43.30225" lon="-2.670035">
        <time>2023-01-08T09:14:15Z</time>
      </trkpt>
      <trkpt lat="43.30218" lon="-2.6699626">
        <time>2023-01-08T09:14:18Z</time>
      </trkpt>
      <trkpt lat="43.302124" lon="-2.6699173">
        <time>2023-01-08T09:14:20Z</time>
      </trkpt>
      <trkpt lat="43.30204" lon="-2.6698484">
        <time>2023-01-08T09:14:23Z</time>
      </trkpt>
      <trkpt lat="43.301987" lon="-2.6698012">
        <time>2023-01-08T09:14:25Z</time>
      </trkpt>
      <trkpt lat="43.301933" lon="-2.669758">
        <time>2023-01-08T09:14:27Z</time>
      </trkpt>
      <trkpt lat="43.301846" lon="-2.6696887">
        <time>2023-01-08T09:14:30Z</time>
      </trkpt>
      <trkpt lat="43.301792" lon="-2.669642">
        <time>2023-01-08T09:14:32Z</time>
      </trkpt>
      <trkpt lat="43.301712" lon="-2.669569">
        <time>2023-01-08T09:14:35Z</time>
      </trkpt>
      <trkpt lat="43.301666" lon="-2.6695106">
        <time>2023-01-08T09:14:37Z</time>
      </trkpt>
      <trkpt lat="43.301617" lon="-2.669403">
        <time>2023-01-08T09:14:40Z</time>
      </trkpt>
      <trkpt lat="43.30162" lon="-2.66932">
        <time>2023-01-08T09:14:43Z</time>
      </trkpt>
      <trkpt lat="43.30171" lon="-2.6693168">
        <time>2023-01-08T09:14:47Z</time>
      </trkpt>
      <trkpt lat="43.301777" lon="-2.6693244">
        <time>2023-01-08T09:14:49Z</time>
      </trkpt>
      <trkpt lat="43.30184" lon="-2.6693313">
        <time>2023-01-08T09:14:51Z</time>
      </trkpt>
      <trkpt lat="43.301907" lon="-2.6693404">
        <time>2023-01-08T09:14:53Z</time>
      </trkpt>
      <trkpt lat="43.301975" lon="-2.6693537">
        <time>2023-01-08T09:14:55Z</time>
      </trkpt>
      <trkpt lat="43.302036" lon="-2.6693723">
        <time>2023-01-08T09:14:57Z</time>
      </trkpt>
      <trkpt lat="43.30212" lon="-2.6694052">
        <time>2023-01-08T09:15:00Z</time>
      </trkpt>
      <trkpt lat="43.30218" lon="-2.6694298">
        <time>2023-01-08T09:15:02Z</time>
      </trkpt>
      <trkpt lat="43.302242" lon="-2.6694546">
        <time>2023-01-08T09:15:04Z</time>
      </trkpt>
      <trkpt lat="43.302334" lon="-2.669493">
        <time>2023-01-08T09:15:07Z</time>
      </trkpt>
      <trkpt lat="43.302414" lon="-2.6695364">
        <time>2023-01-08T09:15:10Z</time>
      </trkpt>
      <trkpt lat="43.302475" lon="-2.6695697">
        <time>2023-01-08T09:15:12Z</time>
      </trkpt>
      <trkpt lat="43.302532" lon="-2.6695993">
        <time>2023-01-08T09:15:14Z</time>
      </trkpt>
      <trkpt lat="43.302586" lon="-2.6696327">
        <time>2023-01-08T09:15:16Z</time>
      </trkpt>
      <trkpt lat="43.30267" lon="-2.669677">
        <time>2023-01-08T09:15:19Z</time>
      </trkpt>
      <trkpt lat="43.30274" lon="-2.669703">
        <time>2023-01-08T09:15:21Z</time>
      </trkpt>
      <trkpt lat="43.30284" lon="-2.6697266">
        <time>2023-01-08T09:15:24Z</time>
      </trkpt>
      <trkpt lat="43.302906" lon="-2.6697264">
        <time>2023-01-08T09:15:26Z</time>
      </trkpt>
      <trkpt lat="43.302998" lon="-2.669698">
        <time>2023-01-08T09:15:29Z</time>
      </trkpt>
      <trkpt lat="43.30306" lon="-2.6696684">
        <time>2023-01-08T09:15:31Z</time>
      </trkpt>
      <trkpt lat="43.30314" lon="-2.6696167">
        <time>2023-01-08T09:15:34Z</time>
      </trkpt>
      <trkpt lat="43.303173" lon="-2.6695724">
        <time>2023-01-08T09:15:36Z</time>
      </trkpt>
      <trkpt lat="43.303238" lon="-2.6695027">
        <time>2023-01-08T09:15:39Z</time>
      </trkpt>
      <trkpt lat="43.303352" lon="-2.669477">
        <time>2023-01-08T09:15:44Z</time>
      </trkpt>
      <trkpt lat="43.30341" lon="-2.6694705">
        <time>2023-01-08T09:15:46Z</time>
      </trkpt>
      <trkpt lat="43.30347" lon="-2.669464">
        <time>2023-01-08T09:15:48Z</time>
      </trkpt>
      <trkpt lat="43.30353" lon="-2.6694467">
        <time>2023-01-08T09:15:50Z</time>
      </trkpt>
      <trkpt lat="43.30358" lon="-2.6694057">
        <time>2023-01-08T09:15:52Z</time>
      </trkpt>
      <trkpt lat="43.303635" lon="-2.6693223">
        <time>2023-01-08T09:15:55Z</time>
      </trkpt>
      <trkpt lat="43.30368" lon="-2.669231">
        <time>2023-01-08T09:15:58Z</time>
      </trkpt>
      <trkpt lat="43.303726" lon="-2.669133">
        <time>2023-01-08T09:16:01Z</time>
      </trkpt>
      <trkpt lat="43.30376" lon="-2.6690292">
        <time>2023-01-08T09:16:04Z</time>
      </trkpt>
      <trkpt lat="43.30379" lon="-2.66897">
        <time>2023-01-08T09:16:06Z</time>
      </trkpt>
      <trkpt lat="43.303856" lon="-2.6689196">
        <time>2023-01-08T09:16:09Z</time>
      </trkpt>
      <trkpt lat="43.303925" lon="-2.6689017">
        <time>2023-01-08T09:16:12Z</time>
      </trkpt>
      <trkpt lat="43.303978" lon="-2.6688907">
        <time>2023-01-08T09:16:14Z</time>
      </trkpt>
      <trkpt lat="43.304035" lon="-2.6688733">
        <time>2023-01-08T09:16:16Z</time>
      </trkpt>
      <trkpt lat="43.30408" lon="-2.6688437">
        <time>2023-01-08T09:16:18Z</time>
      </trkpt>
      <trkpt lat="43.304127" lon="-2.6688066">
        <time>2023-01-08T09:16:20Z</time>
      </trkpt>
      <trkpt lat="43.304165" lon="-2.6687624">
        <time>2023-01-08T09:16:22Z</time>
      </trkpt>
      <trkpt lat="43.304234" lon="-2.6686833">
        <time>2023-01-08T09:16:25Z</time>
      </trkpt>
      <trkpt lat="43.304276" lon="-2.6686356">
        <time>2023-01-08T09:16:27Z</time>
      </trkpt>
      <trkpt lat="43.304337" lon="-2.6685693">
        <time>2023-01-08T09:16:30Z</time>
      </trkpt>
      <trkpt lat="43.304405" lon="-2.6685083">
        <time>2023-01-08T09:16:33Z</time>
      </trkpt>
      <trkpt lat="43.30446" lon="-2.6684763">
        <time>2023-01-08T09:16:35Z</time>
      </trkpt>
      <trkpt lat="43.304523" lon="-2.6684446">
        <time>2023-01-08T09:16:38Z</time>
      </trkpt>
      <trkpt lat="43.30462" lon="-2.6683893">
        <time>2023-01-08T09:16:42Z</time>
      </trkpt>
      <trkpt lat="43.30468" lon="-2.6683106">
        <time>2023-01-08T09:16:45Z</time>
      </trkpt>
      <trkpt lat="43.304703" lon="-2.6682386">
        <time>2023-01-08T09:16:47Z</time>
      </trkpt>
      <trkpt lat="43.304714" lon="-2.668164">
        <time>2023-01-08T09:16:49Z</time>
      </trkpt>
      <trkpt lat="43.304718" lon="-2.6680803">
        <time>2023-01-08T09:16:51Z</time>
      </trkpt>
      <trkpt lat="43.304726" lon="-2.667998">
        <time>2023-01-08T09:16:53Z</time>
      </trkpt>
      <trkpt lat="43.304733" lon="-2.6678712">
        <time>2023-01-08T09:16:56Z</time>
      </trkpt>
      <trkpt lat="43.30475" lon="-2.6677904">
        <time>2023-01-08T09:16:58Z</time>
      </trkpt>
      <trkpt lat="43.304764" lon="-2.6676714">
        <time>2023-01-08T09:17:01Z</time>
      </trkpt>
      <trkpt lat="43.304764" lon="-2.6675503">
        <time>2023-01-08T09:17:04Z</time>
      </trkpt>
      <trkpt lat="43.30476" lon="-2.6674287">
        <time>2023-01-08T09:17:07Z</time>
      </trkpt>
      <trkpt lat="43.30476" lon="-2.6672976">
        <time>2023-01-08T09:17:10Z</time>
      </trkpt>
      <trkpt lat="43.30476" lon="-2.6671777">
        <time>2023-01-08T09:17:13Z</time>
      </trkpt>
      <trkpt lat="43.30476" lon="-2.667098">
        <time>2023-01-08T09:17:15Z</time>
      </trkpt>
      <trkpt lat="43.30476" lon="-2.6670136">
        <time>2023-01-08T09:17:17Z</time>
      </trkpt>
      <trkpt lat="43.304756" lon="-2.666926">
        <time>2023-01-08T09:17:19Z</time>
      </trkpt>
      <trkpt lat="43.304756" lon="-2.6668406">
        <time>2023-01-08T09:17:21Z</time>
      </trkpt>
      <trkpt lat="43.30475" lon="-2.6667576">
        <time>2023-01-08T09:17:23Z</time>
      </trkpt>
      <trkpt lat="43.30475" lon="-2.6666727">
        <time>2023-01-08T09:17:25Z</time>
      </trkpt>
      <trkpt lat="43.304756" lon="-2.6665857">
        <time>2023-01-08T09:17:27Z</time>
      </trkpt>
      <trkpt lat="43.30476" lon="-2.6665018">
        <time>2023-01-08T09:17:29Z</time>
      </trkpt>
      <trkpt lat="43.304764" lon="-2.6663754">
        <time>2023-01-08T09:17:32Z</time>
      </trkpt>
      <trkpt lat="43.30476" lon="-2.6662934">
        <time>2023-01-08T09:17:34Z</time>
      </trkpt>
      <trkpt lat="43.30475" lon="-2.6661756">
        <time>2023-01-08T09:17:37Z</time>
      </trkpt>
      <trkpt lat="43.30473" lon="-2.6660664">
        <time>2023-01-08T09:17:40Z</time>
      </trkpt>
      <trkpt lat="43.304714" lon="-2.6659937">
        <time>2023-01-08T09:17:42Z</time>
      </trkpt>
      <trkpt lat="43.304703" lon="-2.665923">
        <time>2023-01-08T09:17:44Z</time>
      </trkpt>
      <trkpt lat="43.304695" lon="-2.6658514">
        <time>2023-01-08T09:17:46Z</time>
      </trkpt>
      <trkpt lat="43.304684" lon="-2.6657453">
        <time>2023-01-08T09:17:49Z</time>
      </trkpt>
      <trkpt lat="43.30468" lon="-2.6656756">
        <time>2023-01-08T09:17:51Z</time>
      </trkpt>
      <trkpt lat="43.30468" lon="-2.665605">
        <time>2023-01-08T09:17:53Z</time>
      </trkpt>
      <trkpt lat="43.30468" lon="-2.665505">
        <time>2023-01-08T09:17:56Z</time>
      </trkpt>
      <trkpt lat="43.304684" lon="-2.665404">
        <time>2023-01-08T09:17:59Z</time>
      </trkpt>
      <trkpt lat="43.304688" lon="-2.665331">
        <time>2023-01-08T09:18:01Z</time>
      </trkpt>
      <trkpt lat="43.304684" lon="-2.6652553">
        <time>2023-01-08T09:18:03Z</time>
      </trkpt>
      <trkpt lat="43.30468" lon="-2.6651738">
        <time>2023-01-08T09:18:05Z</time>
      </trkpt>
      <trkpt lat="43.304672" lon="-2.6650927">
        <time>2023-01-08T09:18:07Z</time>
      </trkpt>
      <trkpt lat="43.30468" lon="-2.665012">
        <time>2023-01-08T09:18:09Z</time>
      </trkpt>
      <trkpt lat="43.304688" lon="-2.6649337">
        <time>2023-01-08T09:18:11Z</time>
      </trkpt>
      <trkpt lat="43.304703" lon="-2.664855">
        <time>2023-01-08T09:18:13Z</time>
      </trkpt>
      <trkpt lat="43.304718" lon="-2.6647797">
        <time>2023-01-08T09:18:15Z</time>
      </trkpt>
      <trkpt lat="43.30475" lon="-2.6646664">
        <time>2023-01-08T09:18:18Z</time>
      </trkpt>
      <trkpt lat="43.30477" lon="-2.6645927">
        <time>2023-01-08T09:18:20Z</time>
      </trkpt>
      <trkpt lat="43.30479" lon="-2.6645207">
        <time>2023-01-08T09:18:22Z</time>
      </trkpt>
      <trkpt lat="43.304813" lon="-2.6644247">
        <time>2023-01-08T09:18:25Z</time>
      </trkpt>
      <trkpt lat="43.30483" lon="-2.6643336">
        <time>2023-01-08T09:18:28Z</time>
      </trkpt>
      <trkpt lat="43.30483" lon="-2.6642334">
        <time>2023-01-08T09:18:31Z</time>
      </trkpt>
      <trkpt lat="43.30483" lon="-2.6641204">
        <time>2023-01-08T09:18:34Z</time>
      </trkpt>
      <trkpt lat="43.304844" lon="-2.6639216">
        <time>2023-01-08T09:18:37Z</time>
      </trkpt>
      <trkpt lat="43.304844" lon="-2.6639104">
        <time>2023-01-08T09:18:38Z</time>
      </trkpt>
      <trkpt lat="43.30485" lon="-2.6637902">
        <time>2023-01-08T09:18:42Z</time>
      </trkpt>
      <trkpt lat="43.30486" lon="-2.6637094">
        <time>2023-01-08T09:18:44Z</time>
      </trkpt>
      <trkpt lat="43.30486" lon="-2.6636302">
        <time>2023-01-08T09:18:46Z</time>
      </trkpt>
      <trkpt lat="43.30486" lon="-2.66354">
        <time>2023-01-08T09:18:48Z</time>
      </trkpt>
      <trkpt lat="43.30485" lon="-2.663455">
        <time>2023-01-08T09:18:50Z</time>
      </trkpt>
      <trkpt lat="43.304832" lon="-2.6633468">
        <time>2023-01-08T09:18:53Z</time>
      </trkpt>
      <trkpt lat="43.304832" lon="-2.66328">
        <time>2023-01-08T09:18:55Z</time>
      </trkpt>
      <trkpt lat="43.304848" lon="-2.66317">
        <time>2023-01-08T09:18:58Z</time>
      </trkpt>
      <trkpt lat="43.304874" lon="-2.6630902">
        <time>2023-01-08T09:19:00Z</time>
      </trkpt>
      <trkpt lat="43.304897" lon="-2.663003">
        <time>2023-01-08T09:19:02Z</time>
      </trkpt>
      <trkpt lat="43.304928" lon="-2.6628766">
        <time>2023-01-08T09:19:05Z</time>
      </trkpt>
      <trkpt lat="43.304943" lon="-2.662789">
        <time>2023-01-08T09:19:08Z</time>
      </trkpt>
      <trkpt lat="43.30496" lon="-2.6627026">
        <time>2023-01-08T09:19:10Z</time>
      </trkpt>
      <trkpt lat="43.304943" lon="-2.6626267">
        <time>2023-01-08T09:19:13Z</time>
      </trkpt>
      <trkpt lat="43.304913" lon="-2.6625392">
        <time>2023-01-08T09:19:16Z</time>
      </trkpt>
      <trkpt lat="43.304874" lon="-2.662459">
        <time>2023-01-08T09:19:20Z</time>
      </trkpt>
      <trkpt lat="43.304844" lon="-2.6623893">
        <time>2023-01-08T09:19:23Z</time>
      </trkpt>
      <trkpt lat="43.304802" lon="-2.6623096">
        <time>2023-01-08T09:19:27Z</time>
      </trkpt>
      <trkpt lat="43.304764" lon="-2.6622517">
        <time>2023-01-08T09:19:30Z</time>
      </trkpt>
      <trkpt lat="43.30473" lon="-2.662203">
        <time>2023-01-08T09:19:33Z</time>
      </trkpt>
      <trkpt lat="43.304695" lon="-2.6621604">
        <time>2023-01-08T09:19:36Z</time>
      </trkpt>
      <trkpt lat="43.30464" lon="-2.6620944">
        <time>2023-01-08T09:19:41Z</time>
      </trkpt>
      <trkpt lat="43.3046" lon="-2.6620414">
        <time>2023-01-08T09:19:44Z</time>
      </trkpt>
      <trkpt lat="43.304554" lon="-2.6619756">
        <time>2023-01-08T09:19:48Z</time>
      </trkpt>
      <trkpt lat="43.304535" lon="-2.6618984">
        <time>2023-01-08T09:19:52Z</time>
      </trkpt>
      <trkpt lat="43.304523" lon="-2.6618254">
        <time>2023-01-08T09:19:55Z</time>
      </trkpt>
      <trkpt lat="43.304516" lon="-2.6617484">
        <time>2023-01-08T09:19:58Z</time>
      </trkpt>
      <trkpt lat="43.3045" lon="-2.6616647">
        <time>2023-01-08T09:20:01Z</time>
      </trkpt>
      <trkpt lat="43.304485" lon="-2.6615927">
        <time>2023-01-08T09:20:04Z</time>
      </trkpt>
      <trkpt lat="43.304424" lon="-2.6615148">
        <time>2023-01-08T09:20:08Z</time>
      </trkpt>
      <trkpt lat="43.304344" lon="-2.6614544">
        <time>2023-01-08T09:20:12Z</time>
      </trkpt>
      <trkpt lat="43.30429" lon="-2.6614127">
        <time>2023-01-08T09:20:15Z</time>
      </trkpt>
      <trkpt lat="43.30423" lon="-2.6613858">
        <time>2023-01-08T09:20:18Z</time>
      </trkpt>
      <trkpt lat="43.304176" lon="-2.6613634">
        <time>2023-01-08T09:20:21Z</time>
      </trkpt>
      <trkpt lat="43.304127" lon="-2.6613476">
        <time>2023-01-08T09:20:24Z</time>
      </trkpt>
      <trkpt lat="43.304054" lon="-2.661321">
        <time>2023-01-08T09:20:28Z</time>
      </trkpt>
      <trkpt lat="43.30397" lon="-2.6612687">
        <time>2023-01-08T09:20:32Z</time>
      </trkpt>
      <trkpt lat="43.303917" lon="-2.6612184">
        <time>2023-01-08T09:20:36Z</time>
      </trkpt>
      <trkpt lat="43.30388" lon="-2.6611667">
        <time>2023-01-08T09:20:40Z</time>
      </trkpt>
      <trkpt lat="43.303833" lon="-2.6611116">
        <time>2023-01-08T09:20:44Z</time>
      </trkpt>
      <trkpt lat="43.303783" lon="-2.6610794">
        <time>2023-01-08T09:20:47Z</time>
      </trkpt>
      <trkpt lat="43.303738" lon="-2.661044">
        <time>2023-01-08T09:20:50Z</time>
      </trkpt>
      <trkpt lat="43.303677" lon="-2.6610024">
        <time>2023-01-08T09:20:53Z</time>
      </trkpt>
      <trkpt lat="43.30361" lon="-2.6609647">
        <time>2023-01-08T09:20:56Z</time>
      </trkpt>
      <trkpt lat="43.303566" lon="-2.6609173">
        <time>2023-01-08T09:20:59Z</time>
      </trkpt>
      <trkpt lat="43.303513" lon="-2.660865">
        <time>2023-01-08T09:21:02Z</time>
      </trkpt>
      <trkpt lat="43.30347" lon="-2.660815">
        <time>2023-01-08T09:21:05Z</time>
      </trkpt>
      <trkpt lat="43.303425" lon="-2.6607664">
        <time>2023-01-08T09:21:08Z</time>
      </trkpt>
      <trkpt lat="43.30337" lon="-2.6607203">
        <time>2023-01-08T09:21:11Z</time>
      </trkpt>
      <trkpt lat="43.303318" lon="-2.6606808">
        <time>2023-01-08T09:21:14Z</time>
      </trkpt>
      <trkpt lat="43.30325" lon="-2.6606417">
        <time>2023-01-08T09:21:17Z</time>
      </trkpt>
      <trkpt lat="43.3032" lon="-2.6606197">
        <time>2023-01-08T09:21:19Z</time>
      </trkpt>
      <trkpt lat="43.303116" lon="-2.6605973">
        <time>2023-01-08T09:21:22Z</time>
      </trkpt>
      <trkpt lat="43.30303" lon="-2.6605778">
        <time>2023-01-08T09:21:25Z</time>
      </trkpt>
      <trkpt lat="43.302982" lon="-2.660561">
        <time>2023-01-08T09:21:27Z</time>
      </trkpt>
      <trkpt lat="43.302902" lon="-2.6605284">
        <time>2023-01-08T09:21:30Z</time>
      </trkpt>
      <trkpt lat="43.30283" lon="-2.660497">
        <time>2023-01-08T09:21:33Z</time>
      </trkpt>
      <trkpt lat="43.302784" lon="-2.6604807">
        <time>2023-01-08T09:21:35Z</time>
      </trkpt>
      <trkpt lat="43.302727" lon="-2.6604598">
        <time>2023-01-08T09:21:38Z</time>
      </trkpt>
      <trkpt lat="43.30266" lon="-2.6604464">
        <time>2023-01-08T09:21:41Z</time>
      </trkpt>
      <trkpt lat="43.3026" lon="-2.6604304">
        <time>2023-01-08T09:21:44Z</time>
      </trkpt>
      <trkpt lat="43.30254" lon="-2.6604078">
        <time>2023-01-08T09:21:47Z</time>
      </trkpt>
      <trkpt lat="43.30246" lon="-2.6603718">
        <time>2023-01-08T09:21:51Z</time>
      </trkpt>
      <trkpt lat="43.3024" lon="-2.660352">
        <time>2023-01-08T09:21:54Z</time>
      </trkpt>
      <trkpt lat="43.30233" lon="-2.6603503">
        <time>2023-01-08T09:21:57Z</time>
      </trkpt>
      <trkpt lat="43.30228" lon="-2.6603594">
        <time>2023-01-08T09:21:59Z</time>
      </trkpt>
      <trkpt lat="43.302204" lon="-2.6603796">
        <time>2023-01-08T09:22:02Z</time>
      </trkpt>
      <trkpt lat="43.302128" lon="-2.6604095">
        <time>2023-01-08T09:22:05Z</time>
      </trkpt>
      <trkpt lat="43.30207" lon="-2.660436">
        <time>2023-01-08T09:22:07Z</time>
      </trkpt>
      <trkpt lat="43.30202" lon="-2.660466">
        <time>2023-01-08T09:22:09Z</time>
      </trkpt>
      <trkpt lat="43.30197" lon="-2.6604996">
        <time>2023-01-08T09:22:11Z</time>
      </trkpt>
      <trkpt lat="43.301926" lon="-2.6605346">
        <time>2023-01-08T09:22:13Z</time>
      </trkpt>
      <trkpt lat="43.301872" lon="-2.660589">
        <time>2023-01-08T09:22:16Z</time>
      </trkpt>
      <trkpt lat="43.301815" lon="-2.660653">
        <time>2023-01-08T09:22:19Z</time>
      </trkpt>
      <trkpt lat="43.301777" lon="-2.6607194">
        <time>2023-01-08T09:22:22Z</time>
      </trkpt>
      <trkpt lat="43.301723" lon="-2.6608143">
        <time>2023-01-08T09:22:26Z</time>
      </trkpt>
      <trkpt lat="43.301697" lon="-2.6608806">
        <time>2023-01-08T09:22:29Z</time>
      </trkpt>
      <trkpt lat="43.301674" lon="-2.6609404">
        <time>2023-01-08T09:22:32Z</time>
      </trkpt>
      <trkpt lat="43.301643" lon="-2.661059">
        <time>2023-01-08T09:22:37Z</time>
      </trkpt>
      <trkpt lat="43.30162" lon="-2.6611927">
        <time>2023-01-08T09:22:42Z</time>
      </trkpt>
      <trkpt lat="43.301613" lon="-2.6612816">
        <time>2023-01-08T09:22:45Z</time>
      </trkpt>
      <trkpt lat="43.301586" lon="-2.661395">
        <time>2023-01-08T09:22:49Z</time>
      </trkpt>
      <trkpt lat="43.301575" lon="-2.6615033">
        <time>2023-01-08T09:22:53Z</time>
      </trkpt>
      <trkpt lat="43.301556" lon="-2.6615813">
        <time>2023-01-08T09:22:56Z</time>
      </trkpt>
      <trkpt lat="43.30151" lon="-2.6616383">
        <time>2023-01-08T09:22:59Z</time>
      </trkpt>
      <trkpt lat="43.30145" lon="-2.6616337">
        <time>2023-01-08T09:23:02Z</time>
      </trkpt>
      <trkpt lat="43.301388" lon="-2.6615894">
        <time>2023-01-08T09:23:05Z</time>
      </trkpt>
      <trkpt lat="43.301308" lon="-2.661549">
        <time>2023-01-08T09:23:08Z</time>
      </trkpt>
      <trkpt lat="43.301258" lon="-2.6615243">
        <time>2023-01-08T09:23:10Z</time>
      </trkpt>
      <trkpt lat="43.3012" lon="-2.661498">
        <time>2023-01-08T09:23:12Z</time>
      </trkpt>
      <trkpt lat="43.301147" lon="-2.6614726">
        <time>2023-01-08T09:23:14Z</time>
      </trkpt>
      <trkpt lat="43.301105" lon="-2.6614406">
        <time>2023-01-08T09:23:16Z</time>
      </trkpt>
      <trkpt lat="43.301052" lon="-2.6613762">
        <time>2023-01-08T09:23:19Z</time>
      </trkpt>
      <trkpt lat="43.301003" lon="-2.6612647">
        <time>2023-01-08T09:23:23Z</time>
      </trkpt>
      <trkpt lat="43.30096" lon="-2.661173">
        <time>2023-01-08T09:23:26Z</time>
      </trkpt>
      <trkpt lat="43.30092" lon="-2.6610932">
        <time>2023-01-08T09:23:29Z</time>
      </trkpt>
      <trkpt lat="43.300873" lon="-2.6610367">
        <time>2023-01-08T09:23:32Z</time>
      </trkpt>
      <trkpt lat="43.30082" lon="-2.660985">
        <time>2023-01-08T09:23:36Z</time>
      </trkpt>
      <trkpt lat="43.300762" lon="-2.6609414">
        <time>2023-01-08T09:23:40Z</time>
      </trkpt>
      <trkpt lat="43.30071" lon="-2.660903">
        <time>2023-01-08T09:23:43Z</time>
      </trkpt>
      <trkpt lat="43.300655" lon="-2.660876">
        <time>2023-01-08T09:23:46Z</time>
      </trkpt>
      <trkpt lat="43.300602" lon="-2.660852">
        <time>2023-01-08T09:23:49Z</time>
      </trkpt>
      <trkpt lat="43.30053" lon="-2.6608136">
        <time>2023-01-08T09:23:53Z</time>
      </trkpt>
      <trkpt lat="43.300484" lon="-2.6607947">
        <time>2023-01-08T09:23:56Z</time>
      </trkpt>
      <trkpt lat="43.30043" lon="-2.6607797">
        <time>2023-01-08T09:23:59Z</time>
      </trkpt>
      <trkpt lat="43.300385" lon="-2.6607606">
        <time>2023-01-08T09:24:02Z</time>
      </trkpt>
      <trkpt lat="43.300316" lon="-2.6607268">
        <time>2023-01-08T09:24:07Z</time>
      </trkpt>
      <trkpt lat="43.300255" lon="-2.6606953">
        <time>2023-01-08T09:24:11Z</time>
      </trkpt>
      <trkpt lat="43.300205" lon="-2.6606762">
        <time>2023-01-08T09:24:14Z</time>
      </trkpt>
      <trkpt lat="43.300148" lon="-2.660658">
        <time>2023-01-08T09:24:17Z</time>
      </trkpt>
      <trkpt lat="43.300095" lon="-2.660631">
        <time>2023-01-08T09:24:20Z</time>
      </trkpt>
      <trkpt lat="43.30005" lon="-2.6605973">
        <time>2023-01-08T09:24:24Z</time>
      </trkpt>
      <trkpt lat="43.299995" lon="-2.660571">
        <time>2023-01-08T09:24:27Z</time>
      </trkpt>
      <trkpt lat="43.299927" lon="-2.6605327">
        <time>2023-01-08T09:24:31Z</time>
      </trkpt>
      <trkpt lat="43.299885" lon="-2.6605017">
        <time>2023-01-08T09:24:35Z</time>
      </trkpt>
      <trkpt lat="43.299835" lon="-2.6604567">
        <time>2023-01-08T09:24:39Z</time>
      </trkpt>
      <trkpt lat="43.2998" lon="-2.6603954">
        <time>2023-01-08T09:24:43Z</time>
      </trkpt>
      <trkpt lat="43.299744" lon="-2.6603067">
        <time>2023-01-08T09:24:48Z</time>
      </trkpt>
      <trkpt lat="43.29969" lon="-2.6602542">
        <time>2023-01-08T09:24:51Z</time>
      </trkpt>
      <trkpt lat="43.299652" lon="-2.6602063">
        <time>2023-01-08T09:24:54Z</time>
      </trkpt>
      <trkpt lat="43.299583" lon="-2.660155">
        <time>2023-01-08T09:24:58Z</time>
      </trkpt>
      <trkpt lat="43.299538" lon="-2.6601102">
        <time>2023-01-08T09:25:01Z</time>
      </trkpt>
      <trkpt lat="43.299503" lon="-2.6600587">
        <time>2023-01-08T09:25:04Z</time>
      </trkpt>
      <trkpt lat="43.299458" lon="-2.659978">
        <time>2023-01-08T09:25:08Z</time>
      </trkpt>
      <trkpt lat="43.299427" lon="-2.659868">
        <time>2023-01-08T09:25:13Z</time>
      </trkpt>
      <trkpt lat="43.29941" lon="-2.6597927">
        <time>2023-01-08T09:25:16Z</time>
      </trkpt>
      <trkpt lat="43.299393" lon="-2.659723">
        <time>2023-01-08T09:25:19Z</time>
      </trkpt>
      <trkpt lat="43.29933" lon="-2.6596463">
        <time>2023-01-08T09:25:23Z</time>
      </trkpt>
      <trkpt lat="43.299282" lon="-2.659569">
        <time>2023-01-08T09:25:27Z</time>
      </trkpt>
      <trkpt lat="43.29925" lon="-2.6595013">
        <time>2023-01-08T09:25:30Z</time>
      </trkpt>
      <trkpt lat="43.29924" lon="-2.6594296">
        <time>2023-01-08T09:25:33Z</time>
      </trkpt>
      <trkpt lat="43.299232" lon="-2.6593614">
        <time>2023-01-08T09:25:36Z</time>
      </trkpt>
      <trkpt lat="43.29919" lon="-2.6592896">
        <time>2023-01-08T09:25:39Z</time>
      </trkpt>
      <trkpt lat="43.29913" lon="-2.659217">
        <time>2023-01-08T09:25:42Z</time>
      </trkpt>
      <trkpt lat="43.29909" lon="-2.6591713">
        <time>2023-01-08T09:25:44Z</time>
      </trkpt>
      <trkpt lat="43.299038" lon="-2.6591058">
        <time>2023-01-08T09:25:47Z</time>
      </trkpt>
      <trkpt lat="43.29899" lon="-2.6590698">
        <time>2023-01-08T09:25:49Z</time>
      </trkpt>
      <trkpt lat="43.29894" lon="-2.659017">
        <time>2023-01-08T09:25:52Z</time>
      </trkpt>
      <trkpt lat="43.298893" lon="-2.6589634">
        <time>2023-01-08T09:25:55Z</time>
      </trkpt>
      <trkpt lat="43.298847" lon="-2.658903">
        <time>2023-01-08T09:25:58Z</time>
      </trkpt>
      <trkpt lat="43.298786" lon="-2.6588287">
        <time>2023-01-08T09:26:02Z</time>
      </trkpt>
      <trkpt lat="43.298733" lon="-2.658773">
        <time>2023-01-08T09:26:05Z</time>
      </trkpt>
      <trkpt lat="43.298664" lon="-2.658691">
        <time>2023-01-08T09:26:08Z</time>
      </trkpt>
      <trkpt lat="43.298584" lon="-2.6586096">
        <time>2023-01-08T09:26:13Z</time>
      </trkpt>
      <trkpt lat="43.298534" lon="-2.658532">
        <time>2023-01-08T09:26:16Z</time>
      </trkpt>
      <trkpt lat="43.29849" lon="-2.6584427">
        <time>2023-01-08T09:26:19Z</time>
      </trkpt>
      <trkpt lat="43.298443" lon="-2.65839">
        <time>2023-01-08T09:26:21Z</time>
      </trkpt>
      <trkpt lat="43.29839" lon="-2.6583374">
        <time>2023-01-08T09:26:23Z</time>
      </trkpt>
      <trkpt lat="43.298313" lon="-2.6582587">
        <time>2023-01-08T09:26:26Z</time>
      </trkpt>
      <trkpt lat="43.29826" lon="-2.65821">
        <time>2023-01-08T09:26:28Z</time>
      </trkpt>
      <trkpt lat="43.298206" lon="-2.6581664">
        <time>2023-01-08T09:26:30Z</time>
      </trkpt>
      <trkpt lat="43.29815" lon="-2.6581216">
        <time>2023-01-08T09:26:32Z</time>
      </trkpt>
      <trkpt lat="43.298073" lon="-2.6580546">
        <time>2023-01-08T09:26:35Z</time>
      </trkpt>
      <trkpt lat="43.298" lon="-2.6579983">
        <time>2023-01-08T09:26:38Z</time>
      </trkpt>
      <trkpt lat="43.297916" lon="-2.6579237">
        <time>2023-01-08T09:26:41Z</time>
      </trkpt>
      <trkpt lat="43.29782" lon="-2.6578484">
        <time>2023-01-08T09:26:44Z</time>
      </trkpt>
      <trkpt lat="43.29776" lon="-2.657803">
        <time>2023-01-08T09:26:46Z</time>
      </trkpt>
      <trkpt lat="43.2977" lon="-2.6577666">
        <time>2023-01-08T09:26:48Z</time>
      </trkpt>
      <trkpt lat="43.297638" lon="-2.6577396">
        <time>2023-01-08T09:26:50Z</time>
      </trkpt>
      <trkpt lat="43.297543" lon="-2.6576993">
        <time>2023-01-08T09:26:53Z</time>
      </trkpt>
      <trkpt lat="43.29744" lon="-2.657658">
        <time>2023-01-08T09:26:56Z</time>
      </trkpt>
      <trkpt lat="43.297348" lon="-2.6576114">
        <time>2023-01-08T09:26:59Z</time>
      </trkpt>
      <trkpt lat="43.297287" lon="-2.657574">
        <time>2023-01-08T09:27:01Z</time>
      </trkpt>
      <trkpt lat="43.29723" lon="-2.6575444">
        <time>2023-01-08T09:27:03Z</time>
      </trkpt>
      <trkpt lat="43.297142" lon="-2.6575074">
        <time>2023-01-08T09:27:06Z</time>
      </trkpt>
      <trkpt lat="43.29705" lon="-2.6574817">
        <time>2023-01-08T09:27:09Z</time>
      </trkpt>
      <trkpt lat="43.29699" lon="-2.6574676">
        <time>2023-01-08T09:27:11Z</time>
      </trkpt>
      <trkpt lat="43.29689" lon="-2.657453">
        <time>2023-01-08T09:27:14Z</time>
      </trkpt>
      <trkpt lat="43.296818" lon="-2.657453">
        <time>2023-01-08T09:27:16Z</time>
      </trkpt>
      <trkpt lat="43.29672" lon="-2.657451">
        <time>2023-01-08T09:27:19Z</time>
      </trkpt>
      <trkpt lat="43.296665" lon="-2.657448">
        <time>2023-01-08T09:27:21Z</time>
      </trkpt>
      <trkpt lat="43.296616" lon="-2.6574423">
        <time>2023-01-08T09:27:23Z</time>
      </trkpt>
      <trkpt lat="43.296562" lon="-2.6574297">
        <time>2023-01-08T09:27:25Z</time>
      </trkpt>
      <trkpt lat="43.296482" lon="-2.6573923">
        <time>2023-01-08T09:27:28Z</time>
      </trkpt>
      <trkpt lat="43.296436" lon="-2.65736">
        <time>2023-01-08T09:27:30Z</time>
      </trkpt>
      <trkpt lat="43.296383" lon="-2.6573327">
        <time>2023-01-08T09:27:32Z</time>
      </trkpt>
      <trkpt lat="43.296333" lon="-2.6573184">
        <time>2023-01-08T09:27:34Z</time>
      </trkpt>
      <trkpt lat="43.29628" lon="-2.6573186">
        <time>2023-01-08T09:27:36Z</time>
      </trkpt>
      <trkpt lat="43.29621" lon="-2.6573293">
        <time>2023-01-08T09:27:39Z</time>
      </trkpt>
      <trkpt lat="43.29615" lon="-2.6573386">
        <time>2023-01-08T09:27:41Z</time>
      </trkpt>
      <trkpt lat="43.296047" lon="-2.657341">
        <time>2023-01-08T09:27:44Z</time>
      </trkpt>
      <trkpt lat="43.295986" lon="-2.6573458">
        <time>2023-01-08T09:27:46Z</time>
      </trkpt>
      <trkpt lat="43.295906" lon="-2.6573627">
        <time>2023-01-08T09:27:49Z</time>
      </trkpt>
      <trkpt lat="43.295837" lon="-2.6573718">
        <time>2023-01-08T09:27:52Z</time>
      </trkpt>
      <trkpt lat="43.295776" lon="-2.657368">
        <time>2023-01-08T09:27:55Z</time>
      </trkpt>
      <trkpt lat="43.29572" lon="-2.6573617">
        <time>2023-01-08T09:27:58Z</time>
      </trkpt>
      <trkpt lat="43.29566" lon="-2.657346">
        <time>2023-01-08T09:28:01Z</time>
      </trkpt>
      <trkpt lat="43.29559" lon="-2.657314">
        <time>2023-01-08T09:28:04Z</time>
      </trkpt>
      <trkpt lat="43.29555" lon="-2.6572838">
        <time>2023-01-08T09:28:06Z</time>
      </trkpt>
      <trkpt lat="43.295483" lon="-2.657237">
        <time>2023-01-08T09:28:09Z</time>
      </trkpt>
      <trkpt lat="43.295403" lon="-2.6571703">
        <time>2023-01-08T09:28:13Z</time>
      </trkpt>
      <trkpt lat="43.295322" lon="-2.6571264">
        <time>2023-01-08T09:28:16Z</time>
      </trkpt>
      <trkpt lat="43.295273" lon="-2.657099">
        <time>2023-01-08T09:28:18Z</time>
      </trkpt>
      <trkpt lat="43.295223" lon="-2.6570816">
        <time>2023-01-08T09:28:20Z</time>
      </trkpt>
      <trkpt lat="43.295162" lon="-2.6570673">
        <time>2023-01-08T09:28:23Z</time>
      </trkpt>
      <trkpt lat="43.295074" lon="-2.6570466">
        <time>2023-01-08T09:28:27Z</time>
      </trkpt>
      <trkpt lat="43.295013" lon="-2.6570306">
        <time>2023-01-08T09:28:30Z</time>
      </trkpt>
      <trkpt lat="43.294945" lon="-2.6570055">
        <time>2023-01-08T09:28:33Z</time>
      </trkpt>
      <trkpt lat="43.29488" lon="-2.65697">
        <time>2023-01-08T09:28:36Z</time>
      </trkpt>
      <trkpt lat="43.294827" lon="-2.65693">
        <time>2023-01-08T09:28:39Z</time>
      </trkpt>
      <trkpt lat="43.294754" lon="-2.6568844">
        <time>2023-01-08T09:28:42Z</time>
      </trkpt>
      <trkpt lat="43.294685" lon="-2.6568193">
        <time>2023-01-08T09:28:45Z</time>
      </trkpt>
      <trkpt lat="43.294647" lon="-2.6567852">
        <time>2023-01-08T09:28:47Z</time>
      </trkpt>
      <trkpt lat="43.294594" lon="-2.6567283">
        <time>2023-01-08T09:28:50Z</time>
      </trkpt>
      <trkpt lat="43.29453" lon="-2.6566606">
        <time>2023-01-08T09:28:54Z</time>
      </trkpt>
      <trkpt lat="43.294483" lon="-2.6566212">
        <time>2023-01-08T09:28:57Z</time>
      </trkpt>
      <trkpt lat="43.29442" lon="-2.656567">
        <time>2023-01-08T09:29:00Z</time>
      </trkpt>
      <trkpt lat="43.29436" lon="-2.656517">
        <time>2023-01-08T09:29:03Z</time>
      </trkpt>
      <trkpt lat="43.2943" lon="-2.6564684">
        <time>2023-01-08T09:29:05Z</time>
      </trkpt>
      <trkpt lat="43.29422" lon="-2.656419">
        <time>2023-01-08T09:29:08Z</time>
      </trkpt>
      <trkpt lat="43.29414" lon="-2.656388">
        <time>2023-01-08T09:29:11Z</time>
      </trkpt>
      <trkpt lat="43.294086" lon="-2.6563504">
        <time>2023-01-08T09:29:14Z</time>
      </trkpt>
      <trkpt lat="43.294018" lon="-2.6562924">
        <time>2023-01-08T09:29:17Z</time>
      </trkpt>
      <trkpt lat="43.293972" lon="-2.656251">
        <time>2023-01-08T09:29:19Z</time>
      </trkpt>
      <trkpt lat="43.2939" lon="-2.656199">
        <time>2023-01-08T09:29:22Z</time>
      </trkpt>
      <trkpt lat="43.29382" lon="-2.656164">
        <time>2023-01-08T09:29:25Z</time>
      </trkpt>
      <trkpt lat="43.293766" lon="-2.6561506">
        <time>2023-01-08T09:29:27Z</time>
      </trkpt>
      <trkpt lat="43.293713" lon="-2.6561403">
        <time>2023-01-08T09:29:29Z</time>
      </trkpt>
      <trkpt lat="43.293636" lon="-2.656132">
        <time>2023-01-08T09:29:32Z</time>
      </trkpt>
      <trkpt lat="43.293564" lon="-2.6561327">
        <time>2023-01-08T09:29:35Z</time>
      </trkpt>
      <trkpt lat="43.293465" lon="-2.65614">
        <time>2023-01-08T09:29:39Z</time>
      </trkpt>
      <trkpt lat="43.29336" lon="-2.6561406">
        <time>2023-01-08T09:29:43Z</time>
      </trkpt>
      <trkpt lat="43.293316" lon="-2.6561377">
        <time>2023-01-08T09:29:45Z</time>
      </trkpt>
      <trkpt lat="43.293247" lon="-2.656111">
        <time>2023-01-08T09:29:48Z</time>
      </trkpt>
      <trkpt lat="43.293182" lon="-2.6560636">
        <time>2023-01-08T09:29:51Z</time>
      </trkpt>
      <trkpt lat="43.293137" lon="-2.6560178">
        <time>2023-01-08T09:29:53Z</time>
      </trkpt>
      <trkpt lat="43.2931" lon="-2.6559744">
        <time>2023-01-08T09:29:55Z</time>
      </trkpt>
      <trkpt lat="43.29303" lon="-2.6558948">
        <time>2023-01-08T09:29:59Z</time>
      </trkpt>
      <trkpt lat="43.29298" lon="-2.6558423">
        <time>2023-01-08T09:30:02Z</time>
      </trkpt>
      <trkpt lat="43.292934" lon="-2.6557944">
        <time>2023-01-08T09:30:05Z</time>
      </trkpt>
      <trkpt lat="43.29288" lon="-2.6557403">
        <time>2023-01-08T09:30:08Z</time>
      </trkpt>
      <trkpt lat="43.29283" lon="-2.6556947">
        <time>2023-01-08T09:30:11Z</time>
      </trkpt>
      <trkpt lat="43.292755" lon="-2.6556404">
        <time>2023-01-08T09:30:15Z</time>
      </trkpt>
      <trkpt lat="43.292683" lon="-2.655586">
        <time>2023-01-08T09:30:18Z</time>
      </trkpt>
      <trkpt lat="43.29263" lon="-2.655552">
        <time>2023-01-08T09:30:20Z</time>
      </trkpt>
      <trkpt lat="43.29258" lon="-2.655518">
        <time>2023-01-08T09:30:22Z</time>
      </trkpt>
      <trkpt lat="43.2925" lon="-2.655472">
        <time>2023-01-08T09:30:25Z</time>
      </trkpt>
      <trkpt lat="43.292446" lon="-2.6554422">
        <time>2023-01-08T09:30:27Z</time>
      </trkpt>
      <trkpt lat="43.29239" lon="-2.6554134">
        <time>2023-01-08T09:30:29Z</time>
      </trkpt>
      <trkpt lat="43.292305" lon="-2.655367">
        <time>2023-01-08T09:30:32Z</time>
      </trkpt>
      <trkpt lat="43.29224" lon="-2.6553366">
        <time>2023-01-08T09:30:34Z</time>
      </trkpt>
      <trkpt lat="43.29218" lon="-2.65531">
        <time>2023-01-08T09:30:36Z</time>
      </trkpt>
      <trkpt lat="43.292088" lon="-2.6552813">
        <time>2023-01-08T09:30:39Z</time>
      </trkpt>
      <trkpt lat="43.292027" lon="-2.6552694">
        <time>2023-01-08T09:30:41Z</time>
      </trkpt>
      <trkpt lat="43.29197" lon="-2.655258">
        <time>2023-01-08T09:30:43Z</time>
      </trkpt>
      <trkpt lat="43.291885" lon="-2.6552618">
        <time>2023-01-08T09:30:46Z</time>
      </trkpt>
      <trkpt lat="43.291775" lon="-2.6552827">
        <time>2023-01-08T09:30:49Z</time>
      </trkpt>
      <trkpt lat="43.291656" lon="-2.6552784">
        <time>2023-01-08T09:30:52Z</time>
      </trkpt>
      <trkpt lat="43.29158" lon="-2.65525">
        <time>2023-01-08T09:30:54Z</time>
      </trkpt>
      <trkpt lat="43.291477" lon="-2.6552036">
        <time>2023-01-08T09:30:57Z</time>
      </trkpt>
      <trkpt lat="43.291424" lon="-2.6551673">
        <time>2023-01-08T09:30:59Z</time>
      </trkpt>
      <trkpt lat="43.291378" lon="-2.6551187">
        <time>2023-01-08T09:31:01Z</time>
      </trkpt>
      <trkpt lat="43.291348" lon="-2.65506">
        <time>2023-01-08T09:31:03Z</time>
      </trkpt>
      <trkpt lat="43.291317" lon="-2.6549582">
        <time>2023-01-08T09:31:06Z</time>
      </trkpt>
      <trkpt lat="43.29131" lon="-2.6548517">
        <time>2023-01-08T09:31:09Z</time>
      </trkpt>
      <trkpt lat="43.2913" lon="-2.6547847">
        <time>2023-01-08T09:31:11Z</time>
      </trkpt>
      <trkpt lat="43.29128" lon="-2.6547046">
        <time>2023-01-08T09:31:14Z</time>
      </trkpt>
      <trkpt lat="43.291252" lon="-2.6546292">
        <time>2023-01-08T09:31:17Z</time>
      </trkpt>
      <trkpt lat="43.291218" lon="-2.6545436">
        <time>2023-01-08T09:31:21Z</time>
      </trkpt>
      <trkpt lat="43.29117" lon="-2.654485">
        <time>2023-01-08T09:31:24Z</time>
      </trkpt>
      <trkpt lat="43.291107" lon="-2.6544802">
        <time>2023-01-08T09:31:29Z</time>
      </trkpt>
      <trkpt lat="43.291054" lon="-2.654513">
        <time>2023-01-08T09:31:32Z</time>
      </trkpt>
      <trkpt lat="43.291008" lon="-2.654553">
        <time>2023-01-08T09:31:35Z</time>
      </trkpt>
      <trkpt lat="43.290966" lon="-2.6545947">
        <time>2023-01-08T09:31:38Z</time>
      </trkpt>
      <trkpt lat="43.290916" lon="-2.6546507">
        <time>2023-01-08T09:31:42Z</time>
      </trkpt>
      <trkpt lat="43.29088" lon="-2.6547053">
        <time>2023-01-08T09:31:45Z</time>
      </trkpt>
      <trkpt lat="43.290848" lon="-2.6547697">
        <time>2023-01-08T09:31:48Z</time>
      </trkpt>
      <trkpt lat="43.29081" lon="-2.6548326">
        <time>2023-01-08T09:31:51Z</time>
      </trkpt>
      <trkpt lat="43.29078" lon="-2.6549034">
        <time>2023-01-08T09:31:54Z</time>
      </trkpt>
      <trkpt lat="43.29074" lon="-2.6549823">
        <time>2023-01-08T09:31:57Z</time>
      </trkpt>
      <trkpt lat="43.290707" lon="-2.6550603">
        <time>2023-01-08T09:32:00Z</time>
      </trkpt>
      <trkpt lat="43.29067" lon="-2.6551232">
        <time>2023-01-08T09:32:03Z</time>
      </trkpt>
      <trkpt lat="43.290638" lon="-2.6552064">
        <time>2023-01-08T09:32:06Z</time>
      </trkpt>
      <trkpt lat="43.2906" lon="-2.6553288">
        <time>2023-01-08T09:32:10Z</time>
      </trkpt>
      <trkpt lat="43.290554" lon="-2.6554487">
        <time>2023-01-08T09:32:14Z</time>
      </trkpt>
      <trkpt lat="43.290516" lon="-2.6555343">
        <time>2023-01-08T09:32:17Z</time>
      </trkpt>
      <trkpt lat="43.290455" lon="-2.655606">
        <time>2023-01-08T09:32:21Z</time>
      </trkpt>
      <trkpt lat="43.290398" lon="-2.6555607">
        <time>2023-01-08T09:32:26Z</time>
      </trkpt>
      <trkpt lat="43.29036" lon="-2.655471">
        <time>2023-01-08T09:32:29Z</time>
      </trkpt>
      <trkpt lat="43.290325" lon="-2.6554086">
        <time>2023-01-08T09:32:31Z</time>
      </trkpt>
      <trkpt lat="43.29029" lon="-2.6553178">
        <time>2023-01-08T09:32:34Z</time>
      </trkpt>
      <trkpt lat="43.290245" lon="-2.6551914">
        <time>2023-01-08T09:32:38Z</time>
      </trkpt>
      <trkpt lat="43.290226" lon="-2.655131">
        <time>2023-01-08T09:32:40Z</time>
      </trkpt>
      <trkpt lat="43.29018" lon="-2.6550033">
        <time>2023-01-08T09:32:44Z</time>
      </trkpt>
      <trkpt lat="43.29013" lon="-2.6549168">
        <time>2023-01-08T09:32:47Z</time>
      </trkpt>
      <trkpt lat="43.290077" lon="-2.6547976">
        <time>2023-01-08T09:32:51Z</time>
      </trkpt>
      <trkpt lat="43.290035" lon="-2.6547027">
        <time>2023-01-08T09:32:54Z</time>
      </trkpt>
      <trkpt lat="43.290005" lon="-2.6546257">
        <time>2023-01-08T09:32:57Z</time>
      </trkpt>
      <trkpt lat="43.28997" lon="-2.654548">
        <time>2023-01-08T09:32:59Z</time>
      </trkpt>
      <trkpt lat="43.289917" lon="-2.6544387">
        <time>2023-01-08T09:33:02Z</time>
      </trkpt>
      <trkpt lat="43.289883" lon="-2.6543722">
        <time>2023-01-08T09:33:04Z</time>
      </trkpt>
      <trkpt lat="43.289852" lon="-2.6543097">
        <time>2023-01-08T09:33:06Z</time>
      </trkpt>
      <trkpt lat="43.289814" lon="-2.6542122">
        <time>2023-01-08T09:33:09Z</time>
      </trkpt>
      <trkpt lat="43.289783" lon="-2.6541486">
        <time>2023-01-08T09:33:11Z</time>
      </trkpt>
      <trkpt lat="43.28975" lon="-2.6540916">
        <time>2023-01-08T09:33:13Z</time>
      </trkpt>
      <trkpt lat="43.28971" lon="-2.6540246">
        <time>2023-01-08T09:33:16Z</time>
      </trkpt>
      <trkpt lat="43.289658" lon="-2.6539192">
        <time>2023-01-08T09:33:19Z</time>
      </trkpt>
      <trkpt lat="43.2896" lon="-2.6538212">
        <time>2023-01-08T09:33:22Z</time>
      </trkpt>
      <trkpt lat="43.28956" lon="-2.6537633">
        <time>2023-01-08T09:33:24Z</time>
      </trkpt>
      <trkpt lat="43.289516" lon="-2.6537123">
        <time>2023-01-08T09:33:26Z</time>
      </trkpt>
      <trkpt lat="43.28947" lon="-2.653664">
        <time>2023-01-08T09:33:28Z</time>
      </trkpt>
      <trkpt lat="43.28942" lon="-2.653581">
        <time>2023-01-08T09:33:31Z</time>
      </trkpt>
      <trkpt lat="43.28937" lon="-2.6534956">
        <time>2023-01-08T09:33:34Z</time>
      </trkpt>
      <trkpt lat="43.289307" lon="-2.6534073">
        <time>2023-01-08T09:33:37Z</time>
      </trkpt>
      <trkpt lat="43.289272" lon="-2.6533487">
        <time>2023-01-08T09:33:39Z</time>
      </trkpt>
      <trkpt lat="43.28921" lon="-2.653265">
        <time>2023-01-08T09:33:42Z</time>
      </trkpt>
      <trkpt lat="43.289165" lon="-2.653217">
        <time>2023-01-08T09:33:44Z</time>
      </trkpt>
      <trkpt lat="43.289097" lon="-2.6531444">
        <time>2023-01-08T09:33:47Z</time>
      </trkpt>
      <trkpt lat="43.289036" lon="-2.6530657">
        <time>2023-01-08T09:33:50Z</time>
      </trkpt>
      <trkpt lat="43.289" lon="-2.6530082">
        <time>2023-01-08T09:33:52Z</time>
      </trkpt>
      <trkpt lat="43.288963" lon="-2.6529517">
        <time>2023-01-08T09:33:54Z</time>
      </trkpt>
      <trkpt lat="43.28893" lon="-2.652897">
        <time>2023-01-08T09:33:56Z</time>
      </trkpt>
      <trkpt lat="43.288887" lon="-2.652846">
        <time>2023-01-08T09:33:58Z</time>
      </trkpt>
      <trkpt lat="43.28884" lon="-2.652805">
        <time>2023-01-08T09:34:00Z</time>
      </trkpt>
      <trkpt lat="43.28877" lon="-2.6527398">
        <time>2023-01-08T09:34:03Z</time>
      </trkpt>
      <trkpt lat="43.28872" lon="-2.652674">
        <time>2023-01-08T09:34:06Z</time>
      </trkpt>
      <trkpt lat="43.28866" lon="-2.652611">
        <time>2023-01-08T09:34:09Z</time>
      </trkpt>
      <trkpt lat="43.28859" lon="-2.6525474">
        <time>2023-01-08T09:34:12Z</time>
      </trkpt>
      <trkpt lat="43.28854" lon="-2.652509">
        <time>2023-01-08T09:34:14Z</time>
      </trkpt>
      <trkpt lat="43.28849" lon="-2.6524765">
        <time>2023-01-08T09:34:16Z</time>
      </trkpt>
      <trkpt lat="43.288414" lon="-2.6524308">
        <time>2023-01-08T09:34:19Z</time>
      </trkpt>
      <trkpt lat="43.28835" lon="-2.652401">
        <time>2023-01-08T09:34:21Z</time>
      </trkpt>
      <trkpt lat="43.288296" lon="-2.652378">
        <time>2023-01-08T09:34:23Z</time>
      </trkpt>
      <trkpt lat="43.28824" lon="-2.6523566">
        <time>2023-01-08T09:34:25Z</time>
      </trkpt>
      <trkpt lat="43.288185" lon="-2.6523263">
        <time>2023-01-08T09:34:27Z</time>
      </trkpt>
      <trkpt lat="43.288105" lon="-2.6522384">
        <time>2023-01-08T09:34:31Z</time>
      </trkpt>
      <trkpt lat="43.28807" lon="-2.652187">
        <time>2023-01-08T09:34:33Z</time>
      </trkpt>
      <trkpt lat="43.288025" lon="-2.6521323">
        <time>2023-01-08T09:34:35Z</time>
      </trkpt>
      <trkpt lat="43.287952" lon="-2.6520593">
        <time>2023-01-08T09:34:38Z</time>
      </trkpt>
      <trkpt lat="43.28788" lon="-2.6520016">
        <time>2023-01-08T09:34:41Z</time>
      </trkpt>
      <trkpt lat="43.28782" lon="-2.651947">
        <time>2023-01-08T09:34:44Z</time>
      </trkpt>
      <trkpt lat="43.28778" lon="-2.6519043">
        <time>2023-01-08T09:34:46Z</time>
      </trkpt>
      <trkpt lat="43.28772" lon="-2.6518533">
        <time>2023-01-08T09:34:49Z</time>
      </trkpt>
      <trkpt lat="43.28766" lon="-2.6518407">
        <time>2023-01-08T09:34:52Z</time>
      </trkpt>
      <trkpt lat="43.287598" lon="-2.651831">
        <time>2023-01-08T09:34:55Z</time>
      </trkpt>
      <trkpt lat="43.28751" lon="-2.651797">
        <time>2023-01-08T09:34:59Z</time>
      </trkpt>
      <trkpt lat="43.287464" lon="-2.651771">
        <time>2023-01-08T09:35:01Z</time>
      </trkpt>
      <trkpt lat="43.2874" lon="-2.6517212">
        <time>2023-01-08T09:35:04Z</time>
      </trkpt>
      <trkpt lat="43.287346" lon="-2.6516516">
        <time>2023-01-08T09:35:07Z</time>
      </trkpt>
      <trkpt lat="43.287323" lon="-2.6515968">
        <time>2023-01-08T09:35:09Z</time>
      </trkpt>
      <trkpt lat="43.28727" lon="-2.6514935">
        <time>2023-01-08T09:35:13Z</time>
      </trkpt>
      <trkpt lat="43.287212" lon="-2.651401">
        <time>2023-01-08T09:35:17Z</time>
      </trkpt>
      <trkpt lat="43.287174" lon="-2.6513343">
        <time>2023-01-08T09:35:20Z</time>
      </trkpt>
      <trkpt lat="43.28713" lon="-2.6512794">
        <time>2023-01-08T09:35:23Z</time>
      </trkpt>
      <trkpt lat="43.287075" lon="-2.6512394">
        <time>2023-01-08T09:35:26Z</time>
      </trkpt>
      <trkpt lat="43.287025" lon="-2.651227">
        <time>2023-01-08T09:35:28Z</time>
      </trkpt>
      <trkpt lat="43.286938" lon="-2.6512024">
        <time>2023-01-08T09:35:32Z</time>
      </trkpt>
      <trkpt lat="43.28689" lon="-2.6511893">
        <time>2023-01-08T09:35:35Z</time>
      </trkpt>
      <trkpt lat="43.28684" lon="-2.651176">
        <time>2023-01-08T09:35:38Z</time>
      </trkpt>
      <trkpt lat="43.286762" lon="-2.651145">
        <time>2023-01-08T09:35:43Z</time>
      </trkpt>
      <trkpt lat="43.28668" lon="-2.6511323">
        <time>2023-01-08T09:35:48Z</time>
      </trkpt>
      <trkpt lat="43.28662" lon="-2.6511157">
        <time>2023-01-08T09:35:51Z</time>
      </trkpt>
      <trkpt lat="43.286568" lon="-2.6510978">
        <time>2023-01-08T09:35:54Z</time>
      </trkpt>
      <trkpt lat="43.28649" lon="-2.6510568">
        <time>2023-01-08T09:35:58Z</time>
      </trkpt>
      <trkpt lat="43.28645" lon="-2.6510003">
        <time>2023-01-08T09:36:02Z</time>
      </trkpt>
      <trkpt lat="43.28639" lon="-2.650963">
        <time>2023-01-08T09:36:08Z</time>
      </trkpt>
      <trkpt lat="43.286335" lon="-2.650941">
        <time>2023-01-08T09:36:11Z</time>
      </trkpt>
      <trkpt lat="43.286263" lon="-2.650912">
        <time>2023-01-08T09:36:15Z</time>
      </trkpt>
      <trkpt lat="43.2862" lon="-2.650886">
        <time>2023-01-08T09:36:18Z</time>
      </trkpt>
      <trkpt lat="43.28614" lon="-2.650876">
        <time>2023-01-08T09:36:21Z</time>
      </trkpt>
      <trkpt lat="43.286087" lon="-2.6508484">
        <time>2023-01-08T09:36:24Z</time>
      </trkpt>
      <trkpt lat="43.286045" lon="-2.6508036">
        <time>2023-01-08T09:36:27Z</time>
      </trkpt>
      <trkpt lat="43.286" lon="-2.650759">
        <time>2023-01-08T09:36:30Z</time>
      </trkpt>
      <trkpt lat="43.285965" lon="-2.650716">
        <time>2023-01-08T09:36:33Z</time>
      </trkpt>
      <trkpt lat="43.285908" lon="-2.6506517">
        <time>2023-01-08T09:36:37Z</time>
      </trkpt>
      <trkpt lat="43.285866" lon="-2.650603">
        <time>2023-01-08T09:36:40Z</time>
      </trkpt>
      <trkpt lat="43.285816" lon="-2.6505523">
        <time>2023-01-08T09:36:43Z</time>
      </trkpt>
      <trkpt lat="43.285767" lon="-2.6504943">
        <time>2023-01-08T09:36:46Z</time>
      </trkpt>
      <trkpt lat="43.28572" lon="-2.650434">
        <time>2023-01-08T09:36:49Z</time>
      </trkpt>
      <trkpt lat="43.28567" lon="-2.6503756">
        <time>2023-01-08T09:36:52Z</time>
      </trkpt>
      <trkpt lat="43.285625" lon="-2.6503186">
        <time>2023-01-08T09:36:55Z</time>
      </trkpt>
      <trkpt lat="43.28558" lon="-2.6502624">
        <time>2023-01-08T09:36:58Z</time>
      </trkpt>
      <trkpt lat="43.28554" lon="-2.6502063">
        <time>2023-01-08T09:37:01Z</time>
      </trkpt>
      <trkpt lat="43.285492" lon="-2.6501503">
        <time>2023-01-08T09:37:04Z</time>
      </trkpt>
      <trkpt lat="43.285427" lon="-2.650074">
        <time>2023-01-08T09:37:08Z</time>
      </trkpt>
      <trkpt lat="43.285378" lon="-2.6500096">
        <time>2023-01-08T09:37:11Z</time>
      </trkpt>
      <trkpt lat="43.285324" lon="-2.649933">
        <time>2023-01-08T09:37:14Z</time>
      </trkpt>
      <trkpt lat="43.285282" lon="-2.649844">
        <time>2023-01-08T09:37:17Z</time>
      </trkpt>
      <trkpt lat="43.285263" lon="-2.6497827">
        <time>2023-01-08T09:37:19Z</time>
      </trkpt>
      <trkpt lat="43.28522" lon="-2.6496954">
        <time>2023-01-08T09:37:22Z</time>
      </trkpt>
      <trkpt lat="43.285206" lon="-2.6496058">
        <time>2023-01-08T09:37:25Z</time>
      </trkpt>
      <trkpt lat="43.285206" lon="-2.6494663">
        <time>2023-01-08T09:37:29Z</time>
      </trkpt>
      <trkpt lat="43.2852" lon="-2.6493967">
        <time>2023-01-08T09:37:31Z</time>
      </trkpt>
      <trkpt lat="43.285168" lon="-2.649329">
        <time>2023-01-08T09:37:33Z</time>
      </trkpt>
      <trkpt lat="43.285126" lon="-2.6492283">
        <time>2023-01-08T09:37:36Z</time>
      </trkpt>
      <trkpt lat="43.285088" lon="-2.6491213">
        <time>2023-01-08T09:37:39Z</time>
      </trkpt>
      <trkpt lat="43.285065" lon="-2.6490417">
        <time>2023-01-08T09:37:41Z</time>
      </trkpt>
      <trkpt lat="43.28502" lon="-2.6488633">
        <time>2023-01-08T09:37:44Z</time>
      </trkpt>
      <trkpt lat="43.284958" lon="-2.6487033">
        <time>2023-01-08T09:37:49Z</time>
      </trkpt>
      <trkpt lat="43.28492" lon="-2.648623">
        <time>2023-01-08T09:37:51Z</time>
      </trkpt>
      <trkpt lat="43.284878" lon="-2.6485417">
        <time>2023-01-08T09:37:53Z</time>
      </trkpt>
      <trkpt lat="43.284855" lon="-2.648455">
        <time>2023-01-08T09:37:55Z</time>
      </trkpt>
      <trkpt lat="43.28481" lon="-2.6483288">
        <time>2023-01-08T09:37:58Z</time>
      </trkpt>
      <trkpt lat="43.28478" lon="-2.6482484">
        <time>2023-01-08T09:38:00Z</time>
      </trkpt>
      <trkpt lat="43.28472" lon="-2.6481314">
        <time>2023-01-08T09:38:03Z</time>
      </trkpt>
      <trkpt lat="43.284653" lon="-2.648011">
        <time>2023-01-08T09:38:06Z</time>
      </trkpt>
      <trkpt lat="43.28463" lon="-2.6479216">
        <time>2023-01-08T09:38:08Z</time>
      </trkpt>
      <trkpt lat="43.284615" lon="-2.6478248">
        <time>2023-01-08T09:38:10Z</time>
      </trkpt>
      <trkpt lat="43.284615" lon="-2.6476817">
        <time>2023-01-08T09:38:13Z</time>
      </trkpt>
      <trkpt lat="43.284645" lon="-2.6475587">
        <time>2023-01-08T09:38:16Z</time>
      </trkpt>
      <trkpt lat="43.28471" lon="-2.6474624">
        <time>2023-01-08T09:38:19Z</time>
      </trkpt>
      <trkpt lat="43.284756" lon="-2.6473877">
        <time>2023-01-08T09:38:21Z</time>
      </trkpt>
      <trkpt lat="43.2848" lon="-2.647256">
        <time>2023-01-08T09:38:24Z</time>
      </trkpt>
      <trkpt lat="43.284798" lon="-2.6471634">
        <time>2023-01-08T09:38:26Z</time>
      </trkpt>
      <trkpt lat="43.28478" lon="-2.6470773">
        <time>2023-01-08T09:38:28Z</time>
      </trkpt>
      <trkpt lat="43.28473" lon="-2.646964">
        <time>2023-01-08T09:38:31Z</time>
      </trkpt>
      <trkpt lat="43.284664" lon="-2.6468518">
        <time>2023-01-08T09:38:34Z</time>
      </trkpt>
      <trkpt lat="43.28459" lon="-2.646741">
        <time>2023-01-08T09:38:37Z</time>
      </trkpt>
      <trkpt lat="43.284515" lon="-2.6466374">
        <time>2023-01-08T09:38:40Z</time>
      </trkpt>
      <trkpt lat="43.284466" lon="-2.6465716">
        <time>2023-01-08T09:38:42Z</time>
      </trkpt>
      <trkpt lat="43.28439" lon="-2.646477">
        <time>2023-01-08T09:38:45Z</time>
      </trkpt>
      <trkpt lat="43.284336" lon="-2.6464136">
        <time>2023-01-08T09:38:47Z</time>
      </trkpt>
      <trkpt lat="43.28428" lon="-2.646352">
        <time>2023-01-08T09:38:49Z</time>
      </trkpt>
      <trkpt lat="43.284225" lon="-2.6462927">
        <time>2023-01-08T09:38:51Z</time>
      </trkpt>
      <trkpt lat="43.28413" lon="-2.6462042">
        <time>2023-01-08T09:38:54Z</time>
      </trkpt>
      <trkpt lat="43.28408" lon="-2.6461446">
        <time>2023-01-08T09:38:56Z</time>
      </trkpt>
      <trkpt lat="43.284008" lon="-2.6460657">
        <time>2023-01-08T09:38:59Z</time>
      </trkpt>
      <trkpt lat="43.28396" lon="-2.6460116">
        <time>2023-01-08T09:39:01Z</time>
      </trkpt>
      <trkpt lat="43.283875" lon="-2.6459413">
        <time>2023-01-08T09:39:04Z</time>
      </trkpt>
      <trkpt lat="43.283794" lon="-2.645873">
        <time>2023-01-08T09:39:07Z</time>
      </trkpt>
      <trkpt lat="43.28371" lon="-2.6458066">
        <time>2023-01-08T09:39:10Z</time>
      </trkpt>
      <trkpt lat="43.283627" lon="-2.6457407">
        <time>2023-01-08T09:39:13Z</time>
      </trkpt>
      <trkpt lat="43.283573" lon="-2.645693">
        <time>2023-01-08T09:39:15Z</time>
      </trkpt>
      <trkpt lat="43.283516" lon="-2.645643">
        <time>2023-01-08T09:39:17Z</time>
      </trkpt>
      <trkpt lat="43.283463" lon="-2.6455925">
        <time>2023-01-08T09:39:19Z</time>
      </trkpt>
      <trkpt lat="43.28341" lon="-2.6455452">
        <time>2023-01-08T09:39:21Z</time>
      </trkpt>
      <trkpt lat="43.28336" lon="-2.6454976">
        <time>2023-01-08T09:39:23Z</time>
      </trkpt>
      <trkpt lat="43.283287" lon="-2.645425">
        <time>2023-01-08T09:39:26Z</time>
      </trkpt>
      <trkpt lat="43.28321" lon="-2.6453533">
        <time>2023-01-08T09:39:29Z</time>
      </trkpt>
      <trkpt lat="43.283157" lon="-2.64531">
        <time>2023-01-08T09:39:31Z</time>
      </trkpt>
      <trkpt lat="43.283108" lon="-2.6452596">
        <time>2023-01-08T09:39:33Z</time>
      </trkpt>
      <trkpt lat="43.28303" lon="-2.645183">
        <time>2023-01-08T09:39:36Z</time>
      </trkpt>
      <trkpt lat="43.282986" lon="-2.6451316">
        <time>2023-01-08T09:39:38Z</time>
      </trkpt>
      <trkpt lat="43.282913" lon="-2.645054">
        <time>2023-01-08T09:39:41Z</time>
      </trkpt>
      <trkpt lat="43.282867" lon="-2.6450074">
        <time>2023-01-08T09:39:43Z</time>
      </trkpt>
      <trkpt lat="43.282825" lon="-2.64496">
        <time>2023-01-08T09:39:45Z</time>
      </trkpt>
      <trkpt lat="43.282753" lon="-2.6448896">
        <time>2023-01-08T09:39:48Z</time>
      </trkpt>
      <trkpt lat="43.282684" lon="-2.6448247">
        <time>2023-01-08T09:39:51Z</time>
      </trkpt>
      <trkpt lat="43.28264" lon="-2.6447864">
        <time>2023-01-08T09:39:53Z</time>
      </trkpt>
      <trkpt lat="43.28258" lon="-2.6447546">
        <time>2023-01-08T09:39:55Z</time>
      </trkpt>
      <trkpt lat="43.282528" lon="-2.644721">
        <time>2023-01-08T09:39:57Z</time>
      </trkpt>
      <trkpt lat="43.28246" lon="-2.64466">
        <time>2023-01-08T09:40:00Z</time>
      </trkpt>
      <trkpt lat="43.282387" lon="-2.6445997">
        <time>2023-01-08T09:40:03Z</time>
      </trkpt>
      <trkpt lat="43.28231" lon="-2.6445422">
        <time>2023-01-08T09:40:06Z</time>
      </trkpt>
      <trkpt lat="43.282265" lon="-2.644499">
        <time>2023-01-08T09:40:08Z</time>
      </trkpt>
      <trkpt lat="43.282185" lon="-2.644427">
        <time>2023-01-08T09:40:11Z</time>
      </trkpt>
      <trkpt lat="43.282135" lon="-2.644375">
        <time>2023-01-08T09:40:13Z</time>
      </trkpt>
      <trkpt lat="43.282085" lon="-2.644328">
        <time>2023-01-08T09:40:15Z</time>
      </trkpt>
      <trkpt lat="43.281998" lon="-2.64426">
        <time>2023-01-08T09:40:18Z</time>
      </trkpt>
      <trkpt lat="43.281944" lon="-2.6442137">
        <time>2023-01-08T09:40:20Z</time>
      </trkpt>
      <trkpt lat="43.281895" lon="-2.6441684">
        <time>2023-01-08T09:40:22Z</time>
      </trkpt>
      <trkpt lat="43.281845" lon="-2.644121">
        <time>2023-01-08T09:40:24Z</time>
      </trkpt>
      <trkpt lat="43.28176" lon="-2.644042">
        <time>2023-01-08T09:40:27Z</time>
      </trkpt>
      <trkpt lat="43.28171" lon="-2.6439893">
        <time>2023-01-08T09:40:29Z</time>
      </trkpt>
      <trkpt lat="43.28166" lon="-2.6439414">
        <time>2023-01-08T09:40:31Z</time>
      </trkpt>
      <trkpt lat="43.28158" lon="-2.6438746">
        <time>2023-01-08T09:40:34Z</time>
      </trkpt>
      <trkpt lat="43.2815" lon="-2.643811">
        <time>2023-01-08T09:40:37Z</time>
      </trkpt>
      <trkpt lat="43.281452" lon="-2.6437664">
        <time>2023-01-08T09:40:39Z</time>
      </trkpt>
      <trkpt lat="43.281406" lon="-2.643717">
        <time>2023-01-08T09:40:41Z</time>
      </trkpt>
      <trkpt lat="43.281338" lon="-2.6436296">
        <time>2023-01-08T09:40:44Z</time>
      </trkpt>
      <trkpt lat="43.281292" lon="-2.6435623">
        <time>2023-01-08T09:40:46Z</time>
      </trkpt>
      <trkpt lat="43.281254" lon="-2.6434913">
        <time>2023-01-08T09:40:48Z</time>
      </trkpt>
      <trkpt lat="43.281204" lon="-2.6433847">
        <time>2023-01-08T09:40:51Z</time>
      </trkpt>
      <trkpt lat="43.281143" lon="-2.6432927">
        <time>2023-01-08T09:40:54Z</time>
      </trkpt>
      <trkpt lat="43.281097" lon="-2.6432443">
        <time>2023-01-08T09:40:56Z</time>
      </trkpt>
      <trkpt lat="43.281048" lon="-2.6432045">
        <time>2023-01-08T09:40:58Z</time>
      </trkpt>
      <trkpt lat="43.281" lon="-2.6431668">
        <time>2023-01-08T09:41:00Z</time>
      </trkpt>
      <trkpt lat="43.280964" lon="-2.6431174">
        <time>2023-01-08T09:41:02Z</time>
      </trkpt>
      <trkpt lat="43.280933" lon="-2.643018">
        <time>2023-01-08T09:41:05Z</time>
      </trkpt>
      <trkpt lat="43.28091" lon="-2.6429036">
        <time>2023-01-08T09:41:08Z</time>
      </trkpt>
      <trkpt lat="43.280895" lon="-2.642822">
        <time>2023-01-08T09:41:10Z</time>
      </trkpt>
      <trkpt lat="43.280876" lon="-2.642741">
        <time>2023-01-08T09:41:12Z</time>
      </trkpt>
      <trkpt lat="43.280853" lon="-2.6426587">
        <time>2023-01-08T09:41:14Z</time>
      </trkpt>
      <trkpt lat="43.280823" lon="-2.6425793">
        <time>2023-01-08T09:41:16Z</time>
      </trkpt>
      <trkpt lat="43.2808" lon="-2.6425016">
        <time>2023-01-08T09:41:18Z</time>
      </trkpt>
      <trkpt lat="43.280773" lon="-2.642427">
        <time>2023-01-08T09:41:20Z</time>
      </trkpt>
      <trkpt lat="43.28076" lon="-2.642316">
        <time>2023-01-08T09:41:23Z</time>
      </trkpt>
      <trkpt lat="43.28076" lon="-2.6422436">
        <time>2023-01-08T09:41:25Z</time>
      </trkpt>
      <trkpt lat="43.280758" lon="-2.6421726">
        <time>2023-01-08T09:41:27Z</time>
      </trkpt>
      <trkpt lat="43.280754" lon="-2.6420743">
        <time>2023-01-08T09:41:30Z</time>
      </trkpt>
      <trkpt lat="43.280743" lon="-2.6419883">
        <time>2023-01-08T09:41:33Z</time>
      </trkpt>
      <trkpt lat="43.28074" lon="-2.6418962">
        <time>2023-01-08T09:41:36Z</time>
      </trkpt>
      <trkpt lat="43.280724" lon="-2.6417606">
        <time>2023-01-08T09:41:40Z</time>
      </trkpt>
      <trkpt lat="43.280724" lon="-2.6416264">
        <time>2023-01-08T09:41:44Z</time>
      </trkpt>
      <trkpt lat="43.28073" lon="-2.6415327">
        <time>2023-01-08T09:41:47Z</time>
      </trkpt>
      <trkpt lat="43.280754" lon="-2.6414456">
        <time>2023-01-08T09:41:50Z</time>
      </trkpt>
      <trkpt lat="43.28077" lon="-2.6413298">
        <time>2023-01-08T09:41:54Z</time>
      </trkpt>
      <trkpt lat="43.280785" lon="-2.6412368">
        <time>2023-01-08T09:41:57Z</time>
      </trkpt>
      <trkpt lat="43.280792" lon="-2.6411443">
        <time>2023-01-08T09:42:00Z</time>
      </trkpt>
      <trkpt lat="43.280804" lon="-2.641038">
        <time>2023-01-08T09:42:03Z</time>
      </trkpt>
      <trkpt lat="43.280815" lon="-2.6409516">
        <time>2023-01-08T09:42:05Z</time>
      </trkpt>
      <trkpt lat="43.280807" lon="-2.6408687">
        <time>2023-01-08T09:42:07Z</time>
      </trkpt>
      <trkpt lat="43.280785" lon="-2.6408033">
        <time>2023-01-08T09:42:09Z</time>
      </trkpt>
      <trkpt lat="43.280743" lon="-2.6407304">
        <time>2023-01-08T09:42:12Z</time>
      </trkpt>
      <trkpt lat="43.280743" lon="-2.6406686">
        <time>2023-01-08T09:42:15Z</time>
      </trkpt>
      <trkpt lat="43.280807" lon="-2.6406636">
        <time>2023-01-08T09:42:19Z</time>
      </trkpt>
      <trkpt lat="43.280876" lon="-2.6406944">
        <time>2023-01-08T09:42:22Z</time>
      </trkpt>
      <trkpt lat="43.280937" lon="-2.6407454">
        <time>2023-01-08T09:42:25Z</time>
      </trkpt>
      <trkpt lat="43.281002" lon="-2.6408124">
        <time>2023-01-08T09:42:28Z</time>
      </trkpt>
      <trkpt lat="43.281055" lon="-2.6408577">
        <time>2023-01-08T09:42:30Z</time>
      </trkpt>
      <trkpt lat="43.28112" lon="-2.640899">
        <time>2023-01-08T09:42:32Z</time>
      </trkpt>
      <trkpt lat="43.28118" lon="-2.640945">
        <time>2023-01-08T09:42:34Z</time>
      </trkpt>
      <trkpt lat="43.281242" lon="-2.640992">
        <time>2023-01-08T09:42:36Z</time>
      </trkpt>
      <trkpt lat="43.281307" lon="-2.6410356">
        <time>2023-01-08T09:42:38Z</time>
      </trkpt>
      <trkpt lat="43.28136" lon="-2.641079">
        <time>2023-01-08T09:42:40Z</time>
      </trkpt>
      <trkpt lat="43.281437" lon="-2.6411326">
        <time>2023-01-08T09:42:43Z</time>
      </trkpt>
      <trkpt lat="43.281494" lon="-2.6411574">
        <time>2023-01-08T09:42:45Z</time>
      </trkpt>
      <trkpt lat="43.281563" lon="-2.641183">
        <time>2023-01-08T09:42:48Z</time>
      </trkpt>
      <trkpt lat="43.281616" lon="-2.641201">
        <time>2023-01-08T09:42:51Z</time>
      </trkpt>
      <trkpt lat="43.281685" lon="-2.641223">
        <time>2023-01-08T09:42:54Z</time>
      </trkpt>
      <trkpt lat="43.28175" lon="-2.641224">
        <time>2023-01-08T09:42:56Z</time>
      </trkpt>
      <trkpt lat="43.28181" lon="-2.6411786">
        <time>2023-01-08T09:42:58Z</time>
      </trkpt>
      <trkpt lat="43.28186" lon="-2.6411076">
        <time>2023-01-08T09:43:00Z</time>
      </trkpt>
      <trkpt lat="43.2819" lon="-2.6410074">
        <time>2023-01-08T09:43:03Z</time>
      </trkpt>
      <trkpt lat="43.28192" lon="-2.6409073">
        <time>2023-01-08T09:43:05Z</time>
      </trkpt>
      <trkpt lat="43.281937" lon="-2.640783">
        <time>2023-01-08T09:43:08Z</time>
      </trkpt>
      <trkpt lat="43.281944" lon="-2.640658">
        <time>2023-01-08T09:43:11Z</time>
      </trkpt>
      <trkpt lat="43.281944" lon="-2.6405253">
        <time>2023-01-08T09:43:14Z</time>
      </trkpt>
      <trkpt lat="43.281937" lon="-2.640401">
        <time>2023-01-08T09:43:17Z</time>
      </trkpt>
      <trkpt lat="43.281925" lon="-2.6403217">
        <time>2023-01-08T09:43:19Z</time>
      </trkpt>
      <trkpt lat="43.28192" lon="-2.640236">
        <time>2023-01-08T09:43:21Z</time>
      </trkpt>
      <trkpt lat="43.28192" lon="-2.6401107">
        <time>2023-01-08T09:43:24Z</time>
      </trkpt>
      <trkpt lat="43.28192" lon="-2.6399927">
        <time>2023-01-08T09:43:27Z</time>
      </trkpt>
      <trkpt lat="43.281914" lon="-2.6399102">
        <time>2023-01-08T09:43:29Z</time>
      </trkpt>
      <trkpt lat="43.28191" lon="-2.6398304">
        <time>2023-01-08T09:43:31Z</time>
      </trkpt>
      <trkpt lat="43.281906" lon="-2.6397517">
        <time>2023-01-08T09:43:33Z</time>
      </trkpt>
      <trkpt lat="43.2819" lon="-2.6396744">
        <time>2023-01-08T09:43:35Z</time>
      </trkpt>
      <trkpt lat="43.281895" lon="-2.63956">
        <time>2023-01-08T09:43:38Z</time>
      </trkpt>
      <trkpt lat="43.281895" lon="-2.639444">
        <time>2023-01-08T09:43:41Z</time>
      </trkpt>
      <trkpt lat="43.2819" lon="-2.639363">
        <time>2023-01-08T09:43:43Z</time>
      </trkpt>
      <trkpt lat="43.281906" lon="-2.639288">
        <time>2023-01-08T09:43:45Z</time>
      </trkpt>
      <trkpt lat="43.281906" lon="-2.639213">
        <time>2023-01-08T09:43:47Z</time>
      </trkpt>
      <trkpt lat="43.281914" lon="-2.6390946">
        <time>2023-01-08T09:43:50Z</time>
      </trkpt>
      <trkpt lat="43.28192" lon="-2.6390147">
        <time>2023-01-08T09:43:52Z</time>
      </trkpt>
      <trkpt lat="43.281937" lon="-2.6389096">
        <time>2023-01-08T09:43:55Z</time>
      </trkpt>
      <trkpt lat="43.28196" lon="-2.6388023">
        <time>2023-01-08T09:43:58Z</time>
      </trkpt>
      <trkpt lat="43.282" lon="-2.6387036">
        <time>2023-01-08T09:44:01Z</time>
      </trkpt>
      <trkpt lat="43.28207" lon="-2.63863">
        <time>2023-01-08T09:44:04Z</time>
      </trkpt>
      <trkpt lat="43.282116" lon="-2.6385918">
        <time>2023-01-08T09:44:06Z</time>
      </trkpt>
      <trkpt lat="43.28217" lon="-2.6385643">
        <time>2023-01-08T09:44:08Z</time>
      </trkpt>
      <trkpt lat="43.282234" lon="-2.6385474">
        <time>2023-01-08T09:44:11Z</time>
      </trkpt>
      <trkpt lat="43.2823" lon="-2.6385384">
        <time>2023-01-08T09:44:13Z</time>
      </trkpt>
      <trkpt lat="43.28236" lon="-2.6385403">
        <time>2023-01-08T09:44:15Z</time>
      </trkpt>
      <trkpt lat="43.28242" lon="-2.6385486">
        <time>2023-01-08T09:44:17Z</time>
      </trkpt>
      <trkpt lat="43.282513" lon="-2.63857">
        <time>2023-01-08T09:44:20Z</time>
      </trkpt>
      <trkpt lat="43.282574" lon="-2.6385896">
        <time>2023-01-08T09:44:22Z</time>
      </trkpt>
      <trkpt lat="43.28267" lon="-2.6386096">
        <time>2023-01-08T09:44:25Z</time>
      </trkpt>
      <trkpt lat="43.282722" lon="-2.638614">
        <time>2023-01-08T09:44:27Z</time>
      </trkpt>
      <trkpt lat="43.282818" lon="-2.638609">
        <time>2023-01-08T09:44:30Z</time>
      </trkpt>
      <trkpt lat="43.2829" lon="-2.6385887">
        <time>2023-01-08T09:44:33Z</time>
      </trkpt>
      <trkpt lat="43.28296" lon="-2.6385543">
        <time>2023-01-08T09:44:35Z</time>
      </trkpt>
      <trkpt lat="43.283005" lon="-2.638504">
        <time>2023-01-08T09:44:37Z</time>
      </trkpt>
      <trkpt lat="43.283043" lon="-2.6384373">
        <time>2023-01-08T09:44:39Z</time>
      </trkpt>
      <trkpt lat="43.283062" lon="-2.6383147">
        <time>2023-01-08T09:44:42Z</time>
      </trkpt>
      <trkpt lat="43.283062" lon="-2.6382246">
        <time>2023-01-08T09:44:44Z</time>
      </trkpt>
      <trkpt lat="43.28306" lon="-2.6381364">
        <time>2023-01-08T09:44:46Z</time>
      </trkpt>
      <trkpt lat="43.283028" lon="-2.6380074">
        <time>2023-01-08T09:44:49Z</time>
      </trkpt>
      <trkpt lat="43.283016" lon="-2.6378744">
        <time>2023-01-08T09:44:52Z</time>
      </trkpt>
      <trkpt lat="43.283028" lon="-2.637776">
        <time>2023-01-08T09:44:54Z</time>
      </trkpt>
      <trkpt lat="43.283062" lon="-2.6376348">
        <time>2023-01-08T09:44:57Z</time>
      </trkpt>
      <trkpt lat="43.283096" lon="-2.6375463">
        <time>2023-01-08T09:44:59Z</time>
      </trkpt>
      <trkpt lat="43.28317" lon="-2.637429">
        <time>2023-01-08T09:45:02Z</time>
      </trkpt>
      <trkpt lat="43.283253" lon="-2.6373374">
        <time>2023-01-08T09:45:05Z</time>
      </trkpt>
      <trkpt lat="43.283348" lon="-2.637277">
        <time>2023-01-08T09:45:08Z</time>
      </trkpt>
      <trkpt lat="43.283447" lon="-2.6372404">
        <time>2023-01-08T09:45:11Z</time>
      </trkpt>
      <trkpt lat="43.283512" lon="-2.6372197">
        <time>2023-01-08T09:45:13Z</time>
      </trkpt>
      <trkpt lat="43.28361" lon="-2.6371896">
        <time>2023-01-08T09:45:16Z</time>
      </trkpt>
      <trkpt lat="43.28371" lon="-2.6371613">
        <time>2023-01-08T09:45:19Z</time>
      </trkpt>
      <trkpt lat="43.283775" lon="-2.637146">
        <time>2023-01-08T09:45:21Z</time>
      </trkpt>
      <trkpt lat="43.283844" lon="-2.637139">
        <time>2023-01-08T09:45:23Z</time>
      </trkpt>
      <trkpt lat="43.28392" lon="-2.6371386">
        <time>2023-01-08T09:45:25Z</time>
      </trkpt>
      <trkpt lat="43.284016" lon="-2.6371486">
        <time>2023-01-08T09:45:28Z</time>
      </trkpt>
      <trkpt lat="43.2841" lon="-2.6371696">
        <time>2023-01-08T09:45:31Z</time>
      </trkpt>
      <trkpt lat="43.284164" lon="-2.6371837">
        <time>2023-01-08T09:45:33Z</time>
      </trkpt>
      <trkpt lat="43.284218" lon="-2.6372015">
        <time>2023-01-08T09:45:35Z</time>
      </trkpt>
      <trkpt lat="43.284306" lon="-2.6372364">
        <time>2023-01-08T09:45:38Z</time>
      </trkpt>
      <trkpt lat="43.284374" lon="-2.6372523">
        <time>2023-01-08T09:45:40Z</time>
      </trkpt>
      <trkpt lat="43.284443" lon="-2.6372643">
        <time>2023-01-08T09:45:42Z</time>
      </trkpt>
      <trkpt lat="43.284534" lon="-2.6372688">
        <time>2023-01-08T09:45:45Z</time>
      </trkpt>
      <trkpt lat="43.284603" lon="-2.6372557">
        <time>2023-01-08T09:45:47Z</time>
      </trkpt>
      <trkpt lat="43.284664" lon="-2.6372166">
        <time>2023-01-08T09:45:49Z</time>
      </trkpt>
      <trkpt lat="43.284714" lon="-2.637157">
        <time>2023-01-08T09:45:51Z</time>
      </trkpt>
      <trkpt lat="43.284756" lon="-2.637082">
        <time>2023-01-08T09:45:53Z</time>
      </trkpt>
      <trkpt lat="43.284782" lon="-2.637002">
        <time>2023-01-08T09:45:55Z</time>
      </trkpt>
      <trkpt lat="43.28481" lon="-2.636883">
        <time>2023-01-08T09:45:58Z</time>
      </trkpt>
      <trkpt lat="43.284832" lon="-2.6368024">
        <time>2023-01-08T09:46:00Z</time>
      </trkpt>
      <trkpt lat="43.284863" lon="-2.6367242">
        <time>2023-01-08T09:46:02Z</time>
      </trkpt>
      <trkpt lat="43.284893" lon="-2.6366506">
        <time>2023-01-08T09:46:04Z</time>
      </trkpt>
      <trkpt lat="43.284935" lon="-2.6365807">
        <time>2023-01-08T09:46:06Z</time>
      </trkpt>
      <trkpt lat="43.28498" lon="-2.6365156">
        <time>2023-01-08T09:46:08Z</time>
      </trkpt>
      <trkpt lat="43.285034" lon="-2.6364527">
        <time>2023-01-08T09:46:10Z</time>
      </trkpt>
      <trkpt lat="43.28508" lon="-2.6363957">
        <time>2023-01-08T09:46:12Z</time>
      </trkpt>
      <trkpt lat="43.28513" lon="-2.63635">
        <time>2023-01-08T09:46:14Z</time>
      </trkpt>
      <trkpt lat="43.285213" lon="-2.6362896">
        <time>2023-01-08T09:46:17Z</time>
      </trkpt>
      <trkpt lat="43.285305" lon="-2.6362298">
        <time>2023-01-08T09:46:20Z</time>
      </trkpt>
      <trkpt lat="43.285397" lon="-2.6361797">
        <time>2023-01-08T09:46:23Z</time>
      </trkpt>
      <trkpt lat="43.285477" lon="-2.636153">
        <time>2023-01-08T09:46:26Z</time>
      </trkpt>
      <trkpt lat="43.28553" lon="-2.636137">
        <time>2023-01-08T09:46:28Z</time>
      </trkpt>
      <trkpt lat="43.28559" lon="-2.6361206">
        <time>2023-01-08T09:46:30Z</time>
      </trkpt>
      <trkpt lat="43.285652" lon="-2.6361053">
        <time>2023-01-08T09:46:32Z</time>
      </trkpt>
      <trkpt lat="43.28571" lon="-2.636091">
        <time>2023-01-08T09:46:34Z</time>
      </trkpt>
      <trkpt lat="43.285797" lon="-2.6360683">
        <time>2023-01-08T09:46:37Z</time>
      </trkpt>
      <trkpt lat="43.28588" lon="-2.636046">
        <time>2023-01-08T09:46:40Z</time>
      </trkpt>
      <trkpt lat="43.285946" lon="-2.6360297">
        <time>2023-01-08T09:46:42Z</time>
      </trkpt>
      <trkpt lat="43.286" lon="-2.6360097">
        <time>2023-01-08T09:46:44Z</time>
      </trkpt>
      <trkpt lat="43.28606" lon="-2.6359863">
        <time>2023-01-08T09:46:46Z</time>
      </trkpt>
      <trkpt lat="43.286118" lon="-2.6359673">
        <time>2023-01-08T09:46:48Z</time>
      </trkpt>
      <trkpt lat="43.28617" lon="-2.635946">
        <time>2023-01-08T09:46:50Z</time>
      </trkpt>
      <trkpt lat="43.286247" lon="-2.6359112">
        <time>2023-01-08T09:46:53Z</time>
      </trkpt>
      <trkpt lat="43.28632" lon="-2.6358707">
        <time>2023-01-08T09:46:56Z</time>
      </trkpt>
      <trkpt lat="43.286385" lon="-2.635824">
        <time>2023-01-08T09:46:59Z</time>
      </trkpt>
      <trkpt lat="43.286446" lon="-2.6357796">
        <time>2023-01-08T09:47:02Z</time>
      </trkpt>
      <trkpt lat="43.28653" lon="-2.6357257">
        <time>2023-01-08T09:47:06Z</time>
      </trkpt>
      <trkpt lat="43.286583" lon="-2.6356797">
        <time>2023-01-08T09:47:09Z</time>
      </trkpt>
      <trkpt lat="43.28663" lon="-2.6356146">
        <time>2023-01-08T09:47:12Z</time>
      </trkpt>
      <trkpt lat="43.28664" lon="-2.6355317">
        <time>2023-01-08T09:47:15Z</time>
      </trkpt>
      <trkpt lat="43.286613" lon="-2.6354473">
        <time>2023-01-08T09:47:18Z</time>
      </trkpt>
      <trkpt lat="43.28659" lon="-2.6353686">
        <time>2023-01-08T09:47:21Z</time>
      </trkpt>
      <trkpt lat="43.28656" lon="-2.6352947">
        <time>2023-01-08T09:47:24Z</time>
      </trkpt>
      <trkpt lat="43.28653" lon="-2.6351867">
        <time>2023-01-08T09:47:28Z</time>
      </trkpt>
      <trkpt lat="43.286537" lon="-2.6351037">
        <time>2023-01-08T09:47:31Z</time>
      </trkpt>
      <trkpt lat="43.28658" lon="-2.6350224">
        <time>2023-01-08T09:47:34Z</time>
      </trkpt>
      <trkpt lat="43.286644" lon="-2.6349547">
        <time>2023-01-08T09:47:38Z</time>
      </trkpt>
      <trkpt lat="43.28674" lon="-2.6349716">
        <time>2023-01-08T09:47:42Z</time>
      </trkpt>
      <trkpt lat="43.286804" lon="-2.635012">
        <time>2023-01-08T09:47:45Z</time>
      </trkpt>
      <trkpt lat="43.286873" lon="-2.6350503">
        <time>2023-01-08T09:47:48Z</time>
      </trkpt>
      <trkpt lat="43.286934" lon="-2.6350946">
        <time>2023-01-08T09:47:51Z</time>
      </trkpt>
      <trkpt lat="43.287" lon="-2.635152">
        <time>2023-01-08T09:47:54Z</time>
      </trkpt>
      <trkpt lat="43.28705" lon="-2.635195">
        <time>2023-01-08T09:47:56Z</time>
      </trkpt>
      <trkpt lat="43.287098" lon="-2.6352367">
        <time>2023-01-08T09:47:58Z</time>
      </trkpt>
      <trkpt lat="43.287144" lon="-2.6352794">
        <time>2023-01-08T09:48:00Z</time>
      </trkpt>
      <trkpt lat="43.28721" lon="-2.6353333">
        <time>2023-01-08T09:48:03Z</time>
      </trkpt>
      <trkpt lat="43.287277" lon="-2.6353626">
        <time>2023-01-08T09:48:06Z</time>
      </trkpt>
      <trkpt lat="43.287342" lon="-2.635367">
        <time>2023-01-08T09:48:09Z</time>
      </trkpt>
      <trkpt lat="43.287388" lon="-2.6353543">
        <time>2023-01-08T09:48:11Z</time>
      </trkpt>
      <trkpt lat="43.28746" lon="-2.6353247">
        <time>2023-01-08T09:48:14Z</time>
      </trkpt>
      <trkpt lat="43.28755" lon="-2.6352844">
        <time>2023-01-08T09:48:18Z</time>
      </trkpt>
      <trkpt lat="43.28765" lon="-2.635264">
        <time>2023-01-08T09:48:22Z</time>
      </trkpt>
      <trkpt lat="43.287727" lon="-2.6352654">
        <time>2023-01-08T09:48:25Z</time>
      </trkpt>
      <trkpt lat="43.28783" lon="-2.6352713">
        <time>2023-01-08T09:48:29Z</time>
      </trkpt>
      <trkpt lat="43.287914" lon="-2.6352847">
        <time>2023-01-08T09:48:32Z</time>
      </trkpt>
      <trkpt lat="43.288006" lon="-2.635307">
        <time>2023-01-08T09:48:35Z</time>
      </trkpt>
      <trkpt lat="43.28807" lon="-2.63533">
        <time>2023-01-08T09:48:37Z</time>
      </trkpt>
      <trkpt lat="43.288124" lon="-2.6353576">
        <time>2023-01-08T09:48:39Z</time>
      </trkpt>
      <trkpt lat="43.2882" lon="-2.6354008">
        <time>2023-01-08T09:48:42Z</time>
      </trkpt>
      <trkpt lat="43.288284" lon="-2.6354673">
        <time>2023-01-08T09:48:45Z</time>
      </trkpt>
      <trkpt lat="43.288364" lon="-2.635538">
        <time>2023-01-08T09:48:48Z</time>
      </trkpt>
      <trkpt lat="43.28843" lon="-2.6355896">
        <time>2023-01-08T09:48:50Z</time>
      </trkpt>
      <trkpt lat="43.288498" lon="-2.635666">
        <time>2023-01-08T09:48:53Z</time>
      </trkpt>
      <trkpt lat="43.28854" lon="-2.635723">
        <time>2023-01-08T09:48:55Z</time>
      </trkpt>
      <trkpt lat="43.288574" lon="-2.6357813">
        <time>2023-01-08T09:48:57Z</time>
      </trkpt>
      <trkpt lat="43.288647" lon="-2.635854">
        <time>2023-01-08T09:49:00Z</time>
      </trkpt>
      <trkpt lat="43.288708" lon="-2.635913">
        <time>2023-01-08T09:49:03Z</time>
      </trkpt>
      <trkpt lat="43.288784" lon="-2.6359644">
        <time>2023-01-08T09:49:06Z</time>
      </trkpt>
      <trkpt lat="43.288868" lon="-2.6360133">
        <time>2023-01-08T09:49:09Z</time>
      </trkpt>
      <trkpt lat="43.288925" lon="-2.6360376">
        <time>2023-01-08T09:49:11Z</time>
      </trkpt>
      <trkpt lat="43.288998" lon="-2.6360667">
        <time>2023-01-08T09:49:14Z</time>
      </trkpt>
      <trkpt lat="43.28906" lon="-2.636108">
        <time>2023-01-08T09:49:17Z</time>
      </trkpt>
      <trkpt lat="43.289097" lon="-2.636147">
        <time>2023-01-08T09:49:19Z</time>
      </trkpt>
      <trkpt lat="43.289185" lon="-2.6362283">
        <time>2023-01-08T09:49:23Z</time>
      </trkpt>
      <trkpt lat="43.289238" lon="-2.6362686">
        <time>2023-01-08T09:49:25Z</time>
      </trkpt>
      <trkpt lat="43.289276" lon="-2.636303">
        <time>2023-01-08T09:49:27Z</time>
      </trkpt>
      <trkpt lat="43.28932" lon="-2.6363387">
        <time>2023-01-08T09:49:29Z</time>
      </trkpt>
      <trkpt lat="43.28937" lon="-2.6363654">
        <time>2023-01-08T09:49:31Z</time>
      </trkpt>
      <trkpt lat="43.289417" lon="-2.6363938">
        <time>2023-01-08T09:49:33Z</time>
      </trkpt>
      <trkpt lat="43.28947" lon="-2.6364467">
        <time>2023-01-08T09:49:36Z</time>
      </trkpt>
      <trkpt lat="43.289516" lon="-2.6364794">
        <time>2023-01-08T09:49:38Z</time>
      </trkpt>
      <trkpt lat="43.28958" lon="-2.6365247">
        <time>2023-01-08T09:49:41Z</time>
      </trkpt>
      <trkpt lat="43.28962" lon="-2.6365607">
        <time>2023-01-08T09:49:43Z</time>
      </trkpt>
      <trkpt lat="43.28968" lon="-2.6366103">
        <time>2023-01-08T09:49:46Z</time>
      </trkpt>
      <trkpt lat="43.289753" lon="-2.6366634">
        <time>2023-01-08T09:49:49Z</time>
      </trkpt>
      <trkpt lat="43.2899" lon="-2.63676">
        <time>2023-01-08T09:49:52Z</time>
      </trkpt>
      <trkpt lat="43.28993" lon="-2.636774">
        <time>2023-01-08T09:49:54Z</time>
      </trkpt>
      <trkpt lat="43.28999" lon="-2.636794">
        <time>2023-01-08T09:49:56Z</time>
      </trkpt>
      <trkpt lat="43.290054" lon="-2.636813">
        <time>2023-01-08T09:49:58Z</time>
      </trkpt>
      <trkpt lat="43.290123" lon="-2.6368353">
        <time>2023-01-08T09:50:00Z</time>
      </trkpt>
      <trkpt lat="43.29021" lon="-2.636879">
        <time>2023-01-08T09:50:03Z</time>
      </trkpt>
      <trkpt lat="43.290295" lon="-2.636939">
        <time>2023-01-08T09:50:06Z</time>
      </trkpt>
      <trkpt lat="43.290367" lon="-2.6370203">
        <time>2023-01-08T09:50:09Z</time>
      </trkpt>
      <trkpt lat="43.290424" lon="-2.637126">
        <time>2023-01-08T09:50:12Z</time>
      </trkpt>
      <trkpt lat="43.29047" lon="-2.6372375">
        <time>2023-01-08T09:50:15Z</time>
      </trkpt>
      <trkpt lat="43.2905" lon="-2.6373117">
        <time>2023-01-08T09:50:17Z</time>
      </trkpt>
      <trkpt lat="43.29053" lon="-2.6373734">
        <time>2023-01-08T09:50:19Z</time>
      </trkpt>
      <trkpt lat="43.290585" lon="-2.6374288">
        <time>2023-01-08T09:50:22Z</time>
      </trkpt>
      <trkpt lat="43.290653" lon="-2.6374583">
        <time>2023-01-08T09:50:25Z</time>
      </trkpt>
      <trkpt lat="43.290714" lon="-2.637459">
        <time>2023-01-08T09:50:27Z</time>
      </trkpt>
      <trkpt lat="43.290794" lon="-2.6374257">
        <time>2023-01-08T09:50:30Z</time>
      </trkpt>
      <trkpt lat="43.290844" lon="-2.6373794">
        <time>2023-01-08T09:50:33Z</time>
      </trkpt>
      <trkpt lat="43.290848" lon="-2.6373212">
        <time>2023-01-08T09:50:36Z</time>
      </trkpt>
      <trkpt lat="43.29081" lon="-2.6372383">
        <time>2023-01-08T09:50:40Z</time>
      </trkpt>
      <trkpt lat="43.290752" lon="-2.6371803">
        <time>2023-01-08T09:50:43Z</time>
      </trkpt>
      <trkpt lat="43.29068" lon="-2.6371334">
        <time>2023-01-08T09:50:46Z</time>
      </trkpt>
      <trkpt lat="43.290607" lon="-2.6370888">
        <time>2023-01-08T09:50:49Z</time>
      </trkpt>
      <trkpt lat="43.290558" lon="-2.6370714">
        <time>2023-01-08T09:50:51Z</time>
      </trkpt>
      <trkpt lat="43.29047" lon="-2.637028">
        <time>2023-01-08T09:50:55Z</time>
      </trkpt>
      <trkpt lat="43.29043" lon="-2.6369936">
        <time>2023-01-08T09:50:57Z</time>
      </trkpt>
      <trkpt lat="43.290344" lon="-2.636898">
        <time>2023-01-08T09:51:01Z</time>
      </trkpt>
      <trkpt lat="43.29029" lon="-2.6368456">
        <time>2023-01-08T09:51:03Z</time>
      </trkpt>
      <trkpt lat="43.29024" lon="-2.6368046">
        <time>2023-01-08T09:51:05Z</time>
      </trkpt>
      <trkpt lat="43.290157" lon="-2.6367636">
        <time>2023-01-08T09:51:08Z</time>
      </trkpt>
      <trkpt lat="43.29007" lon="-2.636738">
        <time>2023-01-08T09:51:11Z</time>
      </trkpt>
      <trkpt lat="43.289986" lon="-2.6366897">
        <time>2023-01-08T09:51:14Z</time>
      </trkpt>
      <trkpt lat="43.28989" lon="-2.6366253">
        <time>2023-01-08T09:51:17Z</time>
      </trkpt>
      <trkpt lat="43.289825" lon="-2.6365783">
        <time>2023-01-08T09:51:19Z</time>
      </trkpt>
      <trkpt lat="43.289753" lon="-2.636528">
        <time>2023-01-08T09:51:21Z</time>
      </trkpt>
      <trkpt lat="43.289692" lon="-2.6364884">
        <time>2023-01-08T09:51:23Z</time>
      </trkpt>
      <trkpt lat="43.289627" lon="-2.6364517">
        <time>2023-01-08T09:51:25Z</time>
      </trkpt>
      <trkpt lat="43.289547" lon="-2.6364114">
        <time>2023-01-08T09:51:27Z</time>
      </trkpt>
      <trkpt lat="43.289482" lon="-2.636365">
        <time>2023-01-08T09:51:29Z</time>
      </trkpt>
      <trkpt lat="43.28939" lon="-2.636304">
        <time>2023-01-08T09:51:32Z</time>
      </trkpt>
      <trkpt lat="43.289345" lon="-2.636257">
        <time>2023-01-08T09:51:35Z</time>
      </trkpt>
      <trkpt lat="43.289463" lon="-2.6362517">
        <time>2023-01-08T09:51:41Z</time>
      </trkpt>
      <trkpt lat="43.28956" lon="-2.6362693">
        <time>2023-01-08T09:51:44Z</time>
      </trkpt>
      <trkpt lat="43.289658" lon="-2.6362867">
        <time>2023-01-08T09:51:47Z</time>
      </trkpt>
      <trkpt lat="43.28975" lon="-2.636278">
        <time>2023-01-08T09:51:50Z</time>
      </trkpt>
      <trkpt lat="43.28981" lon="-2.63627">
        <time>2023-01-08T09:51:52Z</time>
      </trkpt>
      <trkpt lat="43.289906" lon="-2.636258">
        <time>2023-01-08T09:51:55Z</time>
      </trkpt>
      <trkpt lat="43.289993" lon="-2.636242">
        <time>2023-01-08T09:51:57Z</time>
      </trkpt>
      <trkpt lat="43.29007" lon="-2.6362264">
        <time>2023-01-08T09:51:59Z</time>
      </trkpt>
      <trkpt lat="43.29015" lon="-2.6362038">
        <time>2023-01-08T09:52:01Z</time>
      </trkpt>
      <trkpt lat="43.290226" lon="-2.63618">
        <time>2023-01-08T09:52:03Z</time>
      </trkpt>
      <trkpt lat="43.290295" lon="-2.6361594">
        <time>2023-01-08T09:52:05Z</time>
      </trkpt>
      <trkpt lat="43.290367" lon="-2.6361396">
        <time>2023-01-08T09:52:07Z</time>
      </trkpt>
      <trkpt lat="43.290443" lon="-2.6361167">
        <time>2023-01-08T09:52:09Z</time>
      </trkpt>
      <trkpt lat="43.290558" lon="-2.6360846">
        <time>2023-01-08T09:52:12Z</time>
      </trkpt>
      <trkpt lat="43.290665" lon="-2.636071">
        <time>2023-01-08T09:52:15Z</time>
      </trkpt>
      <trkpt lat="43.290764" lon="-2.6360726">
        <time>2023-01-08T09:52:18Z</time>
      </trkpt>
      <trkpt lat="43.290833" lon="-2.6360676">
        <time>2023-01-08T09:52:20Z</time>
      </trkpt>
      <trkpt lat="43.290943" lon="-2.6360693">
        <time>2023-01-08T09:52:23Z</time>
      </trkpt>
      <trkpt lat="43.29101" lon="-2.636087">
        <time>2023-01-08T09:52:25Z</time>
      </trkpt>
      <trkpt lat="43.29109" lon="-2.6361063">
        <time>2023-01-08T09:52:27Z</time>
      </trkpt>
      <trkpt lat="43.29117" lon="-2.636129">
        <time>2023-01-08T09:52:29Z</time>
      </trkpt>
      <trkpt lat="43.291237" lon="-2.636156">
        <time>2023-01-08T09:52:31Z</time>
      </trkpt>
      <trkpt lat="43.2913" lon="-2.636189">
        <time>2023-01-08T09:52:33Z</time>
      </trkpt>
      <trkpt lat="43.291367" lon="-2.636232">
        <time>2023-01-08T09:52:35Z</time>
      </trkpt>
      <trkpt lat="43.291454" lon="-2.6363003">
        <time>2023-01-08T09:52:38Z</time>
      </trkpt>
      <trkpt lat="43.291504" lon="-2.636344">
        <time>2023-01-08T09:52:40Z</time>
      </trkpt>
      <trkpt lat="43.29155" lon="-2.6363716">
        <time>2023-01-08T09:52:42Z</time>
      </trkpt>
      <trkpt lat="43.291607" lon="-2.6363866">
        <time>2023-01-08T09:52:44Z</time>
      </trkpt>
      <trkpt lat="43.29169" lon="-2.6363974">
        <time>2023-01-08T09:52:47Z</time>
      </trkpt>
      <trkpt lat="43.29177" lon="-2.6364002">
        <time>2023-01-08T09:52:50Z</time>
      </trkpt>
      <trkpt lat="43.29182" lon="-2.636398">
        <time>2023-01-08T09:52:52Z</time>
      </trkpt>
      <trkpt lat="43.291893" lon="-2.6364126">
        <time>2023-01-08T09:52:55Z</time>
      </trkpt>
      <trkpt lat="43.29196" lon="-2.636503">
        <time>2023-01-08T09:52:59Z</time>
      </trkpt>
      <trkpt lat="43.291977" lon="-2.636583">
        <time>2023-01-08T09:53:01Z</time>
      </trkpt>
      <trkpt lat="43.291977" lon="-2.6366718">
        <time>2023-01-08T09:53:03Z</time>
      </trkpt>
      <trkpt lat="43.29197" lon="-2.6367548">
        <time>2023-01-08T09:53:05Z</time>
      </trkpt>
      <trkpt lat="43.29196" lon="-2.636881">
        <time>2023-01-08T09:53:08Z</time>
      </trkpt>
      <trkpt lat="43.291946" lon="-2.637022">
        <time>2023-01-08T09:53:11Z</time>
      </trkpt>
      <trkpt lat="43.29193" lon="-2.6371157">
        <time>2023-01-08T09:53:13Z</time>
      </trkpt>
      <trkpt lat="43.291935" lon="-2.6372054">
        <time>2023-01-08T09:53:15Z</time>
      </trkpt>
      <trkpt lat="43.291954" lon="-2.6372967">
        <time>2023-01-08T09:53:17Z</time>
      </trkpt>
      <trkpt lat="43.291977" lon="-2.6373873">
        <time>2023-01-08T09:53:19Z</time>
      </trkpt>
      <trkpt lat="43.292007" lon="-2.6375144">
        <time>2023-01-08T09:53:22Z</time>
      </trkpt>
      <trkpt lat="43.292027" lon="-2.6376348">
        <time>2023-01-08T09:53:25Z</time>
      </trkpt>
      <trkpt lat="43.292" lon="-2.637765">
        <time>2023-01-08T09:53:28Z</time>
      </trkpt>
      <trkpt lat="43.291996" lon="-2.637864">
        <time>2023-01-08T09:53:30Z</time>
      </trkpt>
      <trkpt lat="43.292" lon="-2.6379547">
        <time>2023-01-08T09:53:32Z</time>
      </trkpt>
      <trkpt lat="43.29204" lon="-2.63817">
        <time>2023-01-08T09:53:35Z</time>
      </trkpt>
      <trkpt lat="43.292046" lon="-2.63818">
        <time>2023-01-08T09:53:36Z</time>
      </trkpt>
      <trkpt lat="43.2921" lon="-2.638305">
        <time>2023-01-08T09:53:40Z</time>
      </trkpt>
      <trkpt lat="43.292133" lon="-2.6384363">
        <time>2023-01-08T09:53:43Z</time>
      </trkpt>
      <trkpt lat="43.292145" lon="-2.6385274">
        <time>2023-01-08T09:53:45Z</time>
      </trkpt>
      <trkpt lat="43.292156" lon="-2.6386633">
        <time>2023-01-08T09:53:48Z</time>
      </trkpt>
      <trkpt lat="43.292164" lon="-2.6387486">
        <time>2023-01-08T09:53:50Z</time>
      </trkpt>
      <trkpt lat="43.29217" lon="-2.6388783">
        <time>2023-01-08T09:53:53Z</time>
      </trkpt>
      <trkpt lat="43.292194" lon="-2.639002">
        <time>2023-01-08T09:53:56Z</time>
      </trkpt>
      <trkpt lat="43.29224" lon="-2.639084">
        <time>2023-01-08T09:53:58Z</time>
      </trkpt>
      <trkpt lat="43.292294" lon="-2.6391673">
        <time>2023-01-08T09:54:00Z</time>
      </trkpt>
      <trkpt lat="43.292355" lon="-2.639236">
        <time>2023-01-08T09:54:02Z</time>
      </trkpt>
      <trkpt lat="43.292458" lon="-2.639307">
        <time>2023-01-08T09:54:05Z</time>
      </trkpt>
      <trkpt lat="43.29253" lon="-2.639349">
        <time>2023-01-08T09:54:07Z</time>
      </trkpt>
      <trkpt lat="43.29262" lon="-2.6394246">
        <time>2023-01-08T09:54:10Z</time>
      </trkpt>
      <trkpt lat="43.292686" lon="-2.6394804">
        <time>2023-01-08T09:54:12Z</time>
      </trkpt>
      <trkpt lat="43.292747" lon="-2.6395187">
        <time>2023-01-08T09:54:14Z</time>
      </trkpt>
      <trkpt lat="43.292816" lon="-2.6395333">
        <time>2023-01-08T09:54:16Z</time>
      </trkpt>
      <trkpt lat="43.292927" lon="-2.6395454">
        <time>2023-01-08T09:54:19Z</time>
      </trkpt>
      <trkpt lat="43.293" lon="-2.6395457">
        <time>2023-01-08T09:54:21Z</time>
      </trkpt>
      <trkpt lat="43.293106" lon="-2.6395323">
        <time>2023-01-08T09:54:24Z</time>
      </trkpt>
      <trkpt lat="43.293175" lon="-2.6395156">
        <time>2023-01-08T09:54:26Z</time>
      </trkpt>
      <trkpt lat="43.293247" lon="-2.6394994">
        <time>2023-01-08T09:54:28Z</time>
      </trkpt>
      <trkpt lat="43.293343" lon="-2.639479">
        <time>2023-01-08T09:54:31Z</time>
      </trkpt>
      <trkpt lat="43.293407" lon="-2.6394722">
        <time>2023-01-08T09:54:33Z</time>
      </trkpt>
      <trkpt lat="43.29352" lon="-2.6394637">
        <time>2023-01-08T09:54:36Z</time>
      </trkpt>
      <trkpt lat="43.293636" lon="-2.6394403">
        <time>2023-01-08T09:54:39Z</time>
      </trkpt>
      <trkpt lat="43.293713" lon="-2.6394346">
        <time>2023-01-08T09:54:41Z</time>
      </trkpt>
      <trkpt lat="43.29378" lon="-2.6394284">
        <time>2023-01-08T09:54:43Z</time>
      </trkpt>
      <trkpt lat="43.293846" lon="-2.639416">
        <time>2023-01-08T09:54:45Z</time>
      </trkpt>
      <trkpt lat="43.2939" lon="-2.6393948">
        <time>2023-01-08T09:54:47Z</time>
      </trkpt>
      <trkpt lat="43.29397" lon="-2.639349">
        <time>2023-01-08T09:54:50Z</time>
      </trkpt>
      <trkpt lat="43.29401" lon="-2.6393166">
        <time>2023-01-08T09:54:52Z</time>
      </trkpt>
      <trkpt lat="43.294056" lon="-2.6392703">
        <time>2023-01-08T09:54:54Z</time>
      </trkpt>
      <trkpt lat="43.29415" lon="-2.6392057">
        <time>2023-01-08T09:54:57Z</time>
      </trkpt>
      <trkpt lat="43.294228" lon="-2.639158">
        <time>2023-01-08T09:54:59Z</time>
      </trkpt>
      <trkpt lat="43.29432" lon="-2.6391103">
        <time>2023-01-08T09:55:01Z</time>
      </trkpt>
      <trkpt lat="43.294403" lon="-2.6390598">
        <time>2023-01-08T09:55:03Z</time>
      </trkpt>
      <trkpt lat="43.2945" lon="-2.6389942">
        <time>2023-01-08T09:55:06Z</time>
      </trkpt>
      <trkpt lat="43.29457" lon="-2.6389716">
        <time>2023-01-08T09:55:08Z</time>
      </trkpt>
      <trkpt lat="43.29464" lon="-2.6389534">
        <time>2023-01-08T09:55:10Z</time>
      </trkpt>
      <trkpt lat="43.294704" lon="-2.638924">
        <time>2023-01-08T09:55:12Z</time>
      </trkpt>
      <trkpt lat="43.29479" lon="-2.6389034">
        <time>2023-01-08T09:55:14Z</time>
      </trkpt>
      <trkpt lat="43.294865" lon="-2.638881">
        <time>2023-01-08T09:55:16Z</time>
      </trkpt>
      <trkpt lat="43.294926" lon="-2.6388376">
        <time>2023-01-08T09:55:18Z</time>
      </trkpt>
      <trkpt lat="43.295" lon="-2.6388056">
        <time>2023-01-08T09:55:20Z</time>
      </trkpt>
      <trkpt lat="43.295063" lon="-2.638788">
        <time>2023-01-08T09:55:22Z</time>
      </trkpt>
      <trkpt lat="43.29514" lon="-2.6387653">
        <time>2023-01-08T09:55:25Z</time>
      </trkpt>
      <trkpt lat="43.295223" lon="-2.6387646">
        <time>2023-01-08T09:55:29Z</time>
      </trkpt>
      <trkpt lat="43.295284" lon="-2.638776">
        <time>2023-01-08T09:55:32Z</time>
      </trkpt>
      <trkpt lat="43.295357" lon="-2.6387722">
        <time>2023-01-08T09:55:35Z</time>
      </trkpt>
      <trkpt lat="43.295418" lon="-2.6387458">
        <time>2023-01-08T09:55:37Z</time>
      </trkpt>
      <trkpt lat="43.295498" lon="-2.6386983">
        <time>2023-01-08T09:55:40Z</time>
      </trkpt>
      <trkpt lat="43.29555" lon="-2.6386716">
        <time>2023-01-08T09:55:42Z</time>
      </trkpt>
      <trkpt lat="43.295612" lon="-2.6386454">
        <time>2023-01-08T09:55:44Z</time>
      </trkpt>
      <trkpt lat="43.295677" lon="-2.6386206">
        <time>2023-01-08T09:55:46Z</time>
      </trkpt>
      <trkpt lat="43.29579" lon="-2.6385846">
        <time>2023-01-08T09:55:49Z</time>
      </trkpt>
      <trkpt lat="43.295856" lon="-2.638559">
        <time>2023-01-08T09:55:51Z</time>
      </trkpt>
      <trkpt lat="43.29593" lon="-2.6385336">
        <time>2023-01-08T09:55:53Z</time>
      </trkpt>
      <trkpt lat="43.296" lon="-2.6385117">
        <time>2023-01-08T09:55:55Z</time>
      </trkpt>
      <trkpt lat="43.2961" lon="-2.638506">
        <time>2023-01-08T09:55:58Z</time>
      </trkpt>
      <trkpt lat="43.296196" lon="-2.6384897">
        <time>2023-01-08T09:56:01Z</time>
      </trkpt>
      <trkpt lat="43.296257" lon="-2.6384406">
        <time>2023-01-08T09:56:03Z</time>
      </trkpt>
      <trkpt lat="43.296337" lon="-2.6383216">
        <time>2023-01-08T09:56:06Z</time>
      </trkpt>
      <trkpt lat="43.296383" lon="-2.6382368">
        <time>2023-01-08T09:56:08Z</time>
      </trkpt>
      <trkpt lat="43.29641" lon="-2.6381493">
        <time>2023-01-08T09:56:10Z</time>
      </trkpt>
      <trkpt lat="43.29643" lon="-2.63806">
        <time>2023-01-08T09:56:12Z</time>
      </trkpt>
      <trkpt lat="43.29643" lon="-2.637975">
        <time>2023-01-08T09:56:14Z</time>
      </trkpt>
      <trkpt lat="43.296413" lon="-2.637861">
        <time>2023-01-08T09:56:17Z</time>
      </trkpt>
      <trkpt lat="43.296394" lon="-2.6377578">
        <time>2023-01-08T09:56:20Z</time>
      </trkpt>
      <trkpt lat="43.29638" lon="-2.637689">
        <time>2023-01-08T09:56:22Z</time>
      </trkpt>
      <trkpt lat="43.296368" lon="-2.637591">
        <time>2023-01-08T09:56:25Z</time>
      </trkpt>
      <trkpt lat="43.296413" lon="-2.637562">
        <time>2023-01-08T09:56:30Z</time>
      </trkpt>
      <trkpt lat="43.296474" lon="-2.6375837">
        <time>2023-01-08T09:56:33Z</time>
      </trkpt>
      <trkpt lat="43.296543" lon="-2.6375723">
        <time>2023-01-08T09:56:36Z</time>
      </trkpt>
      <trkpt lat="43.296608" lon="-2.6375744">
        <time>2023-01-08T09:56:39Z</time>
      </trkpt>
      <trkpt lat="43.29669" lon="-2.637644">
        <time>2023-01-08T09:56:43Z</time>
      </trkpt>
      <trkpt lat="43.296722" lon="-2.6376917">
        <time>2023-01-08T09:56:45Z</time>
      </trkpt>
      <trkpt lat="43.29678" lon="-2.6377537">
        <time>2023-01-08T09:56:48Z</time>
      </trkpt>
      <trkpt lat="43.29683" lon="-2.6378343">
        <time>2023-01-08T09:56:52Z</time>
      </trkpt>
      <trkpt lat="43.29687" lon="-2.6378837">
        <time>2023-01-08T09:56:55Z</time>
      </trkpt>
      <trkpt lat="43.29692" lon="-2.637915">
        <time>2023-01-08T09:56:58Z</time>
      </trkpt>
      <trkpt lat="43.296974" lon="-2.637969">
        <time>2023-01-08T09:57:02Z</time>
      </trkpt>
      <trkpt lat="43.297028" lon="-2.6380384">
        <time>2023-01-08T09:57:06Z</time>
      </trkpt>
      <trkpt lat="43.29708" lon="-2.6380794">
        <time>2023-01-08T09:57:09Z</time>
      </trkpt>
      <trkpt lat="43.297142" lon="-2.6380987">
        <time>2023-01-08T09:57:13Z</time>
      </trkpt>
      <trkpt lat="43.297207" lon="-2.63813">
        <time>2023-01-08T09:57:17Z</time>
      </trkpt>
      <trkpt lat="43.297268" lon="-2.6381583">
        <time>2023-01-08T09:57:21Z</time>
      </trkpt>
      <trkpt lat="43.297318" lon="-2.6381857">
        <time>2023-01-08T09:57:25Z</time>
      </trkpt>
      <trkpt lat="43.297382" lon="-2.638265">
        <time>2023-01-08T09:57:31Z</time>
      </trkpt>
      <trkpt lat="43.29746" lon="-2.6383173">
        <time>2023-01-08T09:57:35Z</time>
      </trkpt>
      <trkpt lat="43.297497" lon="-2.6383574">
        <time>2023-01-08T09:57:38Z</time>
      </trkpt>
      <trkpt lat="43.297543" lon="-2.6384087">
        <time>2023-01-08T09:57:41Z</time>
      </trkpt>
      <trkpt lat="43.29759" lon="-2.6384594">
        <time>2023-01-08T09:57:44Z</time>
      </trkpt>
      <trkpt lat="43.297638" lon="-2.6385067">
        <time>2023-01-08T09:57:47Z</time>
      </trkpt>
      <trkpt lat="43.297676" lon="-2.6384776">
        <time>2023-01-08T09:57:51Z</time>
      </trkpt>
      <trkpt lat="43.29767" lon="-2.6383893">
        <time>2023-01-08T09:57:54Z</time>
      </trkpt>
      <trkpt lat="43.297657" lon="-2.63832">
        <time>2023-01-08T09:57:56Z</time>
      </trkpt>
      <trkpt lat="43.297653" lon="-2.6382468">
        <time>2023-01-08T09:57:58Z</time>
      </trkpt>
      <trkpt lat="43.297634" lon="-2.6381357">
        <time>2023-01-08T09:58:01Z</time>
      </trkpt>
      <trkpt lat="43.297626" lon="-2.6380594">
        <time>2023-01-08T09:58:03Z</time>
      </trkpt>
      <trkpt lat="43.29761" lon="-2.63798">
        <time>2023-01-08T09:58:05Z</time>
      </trkpt>
      <trkpt lat="43.297604" lon="-2.637906">
        <time>2023-01-08T09:58:07Z</time>
      </trkpt>
      <trkpt lat="43.29759" lon="-2.637816">
        <time>2023-01-08T09:58:10Z</time>
      </trkpt>
      <trkpt lat="43.297565" lon="-2.6376977">
        <time>2023-01-08T09:58:13Z</time>
      </trkpt>
      <trkpt lat="43.297565" lon="-2.6376197">
        <time>2023-01-08T09:58:15Z</time>
      </trkpt>
      <trkpt lat="43.29756" lon="-2.6375406">
        <time>2023-01-08T09:58:17Z</time>
      </trkpt>
      <trkpt lat="43.29756" lon="-2.6373334">
        <time>2023-01-08T09:58:20Z</time>
      </trkpt>
      <trkpt lat="43.297558" lon="-2.6373236">
        <time>2023-01-08T09:58:21Z</time>
      </trkpt>
      <trkpt lat="43.29752" lon="-2.637202">
        <time>2023-01-08T09:58:25Z</time>
      </trkpt>
      <trkpt lat="43.297497" lon="-2.63712">
        <time>2023-01-08T09:58:27Z</time>
      </trkpt>
      <trkpt lat="43.29747" lon="-2.637039">
        <time>2023-01-08T09:58:29Z</time>
      </trkpt>
      <trkpt lat="43.297443" lon="-2.636959">
        <time>2023-01-08T09:58:31Z</time>
      </trkpt>
      <trkpt lat="43.297417" lon="-2.636877">
        <time>2023-01-08T09:58:33Z</time>
      </trkpt>
      <trkpt lat="43.2974" lon="-2.636793">
        <time>2023-01-08T09:58:35Z</time>
      </trkpt>
      <trkpt lat="43.297382" lon="-2.636719">
        <time>2023-01-08T09:58:37Z</time>
      </trkpt>
      <trkpt lat="43.297367" lon="-2.6366422">
        <time>2023-01-08T09:58:39Z</time>
      </trkpt>
      <trkpt lat="43.297363" lon="-2.636561">
        <time>2023-01-08T09:58:41Z</time>
      </trkpt>
      <trkpt lat="43.29734" lon="-2.6364806">
        <time>2023-01-08T09:58:43Z</time>
      </trkpt>
      <trkpt lat="43.297318" lon="-2.6364014">
        <time>2023-01-08T09:58:45Z</time>
      </trkpt>
      <trkpt lat="43.297295" lon="-2.63632">
        <time>2023-01-08T09:58:47Z</time>
      </trkpt>
      <trkpt lat="43.297268" lon="-2.6362467">
        <time>2023-01-08T09:58:49Z</time>
      </trkpt>
      <trkpt lat="43.297245" lon="-2.636157">
        <time>2023-01-08T09:58:52Z</time>
      </trkpt>
      <trkpt lat="43.297215" lon="-2.6360607">
        <time>2023-01-08T09:58:54Z</time>
      </trkpt>
      <trkpt lat="43.297184" lon="-2.6359713">
        <time>2023-01-08T09:58:56Z</time>
      </trkpt>
      <trkpt lat="43.297157" lon="-2.635884">
        <time>2023-01-08T09:58:58Z</time>
      </trkpt>
      <trkpt lat="43.297142" lon="-2.6357968">
        <time>2023-01-08T09:59:00Z</time>
      </trkpt>
      <trkpt lat="43.297123" lon="-2.6357117">
        <time>2023-01-08T09:59:02Z</time>
      </trkpt>
      <trkpt lat="43.297108" lon="-2.6356266">
        <time>2023-01-08T09:59:04Z</time>
      </trkpt>
      <trkpt lat="43.297085" lon="-2.6355402">
        <time>2023-01-08T09:59:06Z</time>
      </trkpt>
      <trkpt lat="43.297066" lon="-2.6354547">
        <time>2023-01-08T09:59:08Z</time>
      </trkpt>
      <trkpt lat="43.297043" lon="-2.6353703">
        <time>2023-01-08T09:59:10Z</time>
      </trkpt>
      <trkpt lat="43.297028" lon="-2.635283">
        <time>2023-01-08T09:59:12Z</time>
      </trkpt>
      <trkpt lat="43.297028" lon="-2.6351917">
        <time>2023-01-08T09:59:14Z</time>
      </trkpt>
      <trkpt lat="43.297054" lon="-2.6351">
        <time>2023-01-08T09:59:16Z</time>
      </trkpt>
      <trkpt lat="43.29707" lon="-2.6350114">
        <time>2023-01-08T09:59:18Z</time>
      </trkpt>
      <trkpt lat="43.29707" lon="-2.634925">
        <time>2023-01-08T09:59:20Z</time>
      </trkpt>
      <trkpt lat="43.297066" lon="-2.634837">
        <time>2023-01-08T09:59:23Z</time>
      </trkpt>
      <trkpt lat="43.297073" lon="-2.63475">
        <time>2023-01-08T09:59:26Z</time>
      </trkpt>
      <trkpt lat="43.297092" lon="-2.6346552">
        <time>2023-01-08T09:59:29Z</time>
      </trkpt>
      <trkpt lat="43.297123" lon="-2.634594">
        <time>2023-01-08T09:59:32Z</time>
      </trkpt>
      <trkpt lat="43.29717" lon="-2.6345294">
        <time>2023-01-08T09:59:36Z</time>
      </trkpt>
      <trkpt lat="43.297222" lon="-2.6344576">
        <time>2023-01-08T09:59:41Z</time>
      </trkpt>
      <trkpt lat="43.297276" lon="-2.6343684">
        <time>2023-01-08T09:59:46Z</time>
      </trkpt>
      <trkpt lat="43.297306" lon="-2.634291">
        <time>2023-01-08T09:59:50Z</time>
      </trkpt>
      <trkpt lat="43.297333" lon="-2.6341956">
        <time>2023-01-08T09:59:54Z</time>
      </trkpt>
      <trkpt lat="43.297348" lon="-2.6341183">
        <time>2023-01-08T09:59:57Z</time>
      </trkpt>
      <trkpt lat="43.297363" lon="-2.6340463">
        <time>2023-01-08T10:00:00Z</time>
      </trkpt>
      <trkpt lat="43.29737" lon="-2.6339734">
        <time>2023-01-08T10:00:03Z</time>
      </trkpt>
      <trkpt lat="43.297363" lon="-2.6338997">
        <time>2023-01-08T10:00:06Z</time>
      </trkpt>
      <trkpt lat="43.297348" lon="-2.6338294">
        <time>2023-01-08T10:00:09Z</time>
      </trkpt>
      <trkpt lat="43.297306" lon="-2.6337438">
        <time>2023-01-08T10:00:13Z</time>
      </trkpt>
      <trkpt lat="43.29726" lon="-2.633684">
        <time>2023-01-08T10:00:16Z</time>
      </trkpt>
      <trkpt lat="43.29719" lon="-2.633617">
        <time>2023-01-08T10:00:20Z</time>
      </trkpt>
      <trkpt lat="43.297146" lon="-2.6335688">
        <time>2023-01-08T10:00:23Z</time>
      </trkpt>
      <trkpt lat="43.297092" lon="-2.6335254">
        <time>2023-01-08T10:00:26Z</time>
      </trkpt>
      <trkpt lat="43.297028" lon="-2.633489">
        <time>2023-01-08T10:00:29Z</time>
      </trkpt>
      <trkpt lat="43.296974" lon="-2.6334503">
        <time>2023-01-08T10:00:32Z</time>
      </trkpt>
      <trkpt lat="43.29692" lon="-2.6334093">
        <time>2023-01-08T10:00:35Z</time>
      </trkpt>
      <trkpt lat="43.296844" lon="-2.63335">
        <time>2023-01-08T10:00:39Z</time>
      </trkpt>
      <trkpt lat="43.296783" lon="-2.6333027">
        <time>2023-01-08T10:00:42Z</time>
      </trkpt>
      <trkpt lat="43.296703" lon="-2.6332366">
        <time>2023-01-08T10:00:46Z</time>
      </trkpt>
      <trkpt lat="43.29664" lon="-2.633187">
        <time>2023-01-08T10:00:49Z</time>
      </trkpt>
      <trkpt lat="43.2966" lon="-2.6331506">
        <time>2023-01-08T10:00:51Z</time>
      </trkpt>
      <trkpt lat="43.29653" lon="-2.633097">
        <time>2023-01-08T10:00:54Z</time>
      </trkpt>
      <trkpt lat="43.296486" lon="-2.633065">
        <time>2023-01-08T10:00:56Z</time>
      </trkpt>
      <trkpt lat="43.296436" lon="-2.6330347">
        <time>2023-01-08T10:00:58Z</time>
      </trkpt>
      <trkpt lat="43.296383" lon="-2.6330063">
        <time>2023-01-08T10:01:00Z</time>
      </trkpt>
      <trkpt lat="43.29633" lon="-2.6329818">
        <time>2023-01-08T10:01:02Z</time>
      </trkpt>
      <trkpt lat="43.29624" lon="-2.6329412">
        <time>2023-01-08T10:01:05Z</time>
      </trkpt>
      <trkpt lat="43.296173" lon="-2.6328967">
        <time>2023-01-08T10:01:08Z</time>
      </trkpt>
      <trkpt lat="43.296116" lon="-2.6328533">
        <time>2023-01-08T10:01:11Z</time>
      </trkpt>
      <trkpt lat="43.29607" lon="-2.6328137">
        <time>2023-01-08T10:01:14Z</time>
      </trkpt>
      <trkpt lat="43.29602" lon="-2.632775">
        <time>2023-01-08T10:01:18Z</time>
      </trkpt>
      <trkpt lat="43.29594" lon="-2.6327283">
        <time>2023-01-08T10:01:23Z</time>
      </trkpt>
      <trkpt lat="43.295876" lon="-2.632698">
        <time>2023-01-08T10:01:26Z</time>
      </trkpt>
      <trkpt lat="43.295815" lon="-2.6326673">
        <time>2023-01-08T10:01:29Z</time>
      </trkpt>
      <trkpt lat="43.29575" lon="-2.6326177">
        <time>2023-01-08T10:01:32Z</time>
      </trkpt>
      <trkpt lat="43.295696" lon="-2.6325703">
        <time>2023-01-08T10:01:34Z</time>
      </trkpt>
      <trkpt lat="43.29563" lon="-2.632482">
        <time>2023-01-08T10:01:37Z</time>
      </trkpt>
      <trkpt lat="43.29558" lon="-2.6323974">
        <time>2023-01-08T10:01:40Z</time>
      </trkpt>
      <trkpt lat="43.295567" lon="-2.632328">
        <time>2023-01-08T10:01:42Z</time>
      </trkpt>
      <trkpt lat="43.29555" lon="-2.632253">
        <time>2023-01-08T10:01:44Z</time>
      </trkpt>
      <trkpt lat="43.29555" lon="-2.6321816">
        <time>2023-01-08T10:01:46Z</time>
      </trkpt>
      <trkpt lat="43.295544" lon="-2.6321187">
        <time>2023-01-08T10:01:48Z</time>
      </trkpt>
      <trkpt lat="43.29554" lon="-2.6320276">
        <time>2023-01-08T10:01:51Z</time>
      </trkpt>
      <trkpt lat="43.29555" lon="-2.6319366">
        <time>2023-01-08T10:01:54Z</time>
      </trkpt>
      <trkpt lat="43.295574" lon="-2.6318533">
        <time>2023-01-08T10:01:57Z</time>
      </trkpt>
      <trkpt lat="43.29559" lon="-2.631778">
        <time>2023-01-08T10:02:00Z</time>
      </trkpt>
      <trkpt lat="43.2956" lon="-2.6317024">
        <time>2023-01-08T10:02:03Z</time>
      </trkpt>
      <trkpt lat="43.295628" lon="-2.6316032">
        <time>2023-01-08T10:02:07Z</time>
      </trkpt>
      <trkpt lat="43.295647" lon="-2.6315374">
        <time>2023-01-08T10:02:10Z</time>
      </trkpt>
      <trkpt lat="43.29568" lon="-2.631444">
        <time>2023-01-08T10:02:14Z</time>
      </trkpt>
      <trkpt lat="43.295723" lon="-2.631369">
        <time>2023-01-08T10:02:17Z</time>
      </trkpt>
      <trkpt lat="43.295753" lon="-2.6312876">
        <time>2023-01-08T10:02:20Z</time>
      </trkpt>
      <trkpt lat="43.295776" lon="-2.631203">
        <time>2023-01-08T10:02:23Z</time>
      </trkpt>
      <trkpt lat="43.29579" lon="-2.631117">
        <time>2023-01-08T10:02:26Z</time>
      </trkpt>
      <trkpt lat="43.295807" lon="-2.6310108">
        <time>2023-01-08T10:02:30Z</time>
      </trkpt>
      <trkpt lat="43.295822" lon="-2.630909">
        <time>2023-01-08T10:02:34Z</time>
      </trkpt>
      <trkpt lat="43.29583" lon="-2.6308262">
        <time>2023-01-08T10:02:37Z</time>
      </trkpt>
      <trkpt lat="43.295845" lon="-2.630738">
        <time>2023-01-08T10:02:40Z</time>
      </trkpt>
      <trkpt lat="43.29587" lon="-2.630612">
        <time>2023-01-08T10:02:44Z</time>
      </trkpt>
      <trkpt lat="43.295883" lon="-2.6305444">
        <time>2023-01-08T10:02:46Z</time>
      </trkpt>
      <trkpt lat="43.29589" lon="-2.630472">
        <time>2023-01-08T10:02:48Z</time>
      </trkpt>
      <trkpt lat="43.29593" lon="-2.63036">
        <time>2023-01-08T10:02:51Z</time>
      </trkpt>
      <trkpt lat="43.29596" lon="-2.6302884">
        <time>2023-01-08T10:02:53Z</time>
      </trkpt>
      <trkpt lat="43.29601" lon="-2.630198">
        <time>2023-01-08T10:02:56Z</time>
      </trkpt>
      <trkpt lat="43.296066" lon="-2.6300936">
        <time>2023-01-08T10:03:00Z</time>
      </trkpt>
      <trkpt lat="43.296135" lon="-2.6300066">
        <time>2023-01-08T10:03:04Z</time>
      </trkpt>
      <trkpt lat="43.296196" lon="-2.6299646">
        <time>2023-01-08T10:03:07Z</time>
      </trkpt>
      <trkpt lat="43.296303" lon="-2.6299253">
        <time>2023-01-08T10:03:11Z</time>
      </trkpt>
      <trkpt lat="43.296368" lon="-2.6298966">
        <time>2023-01-08T10:03:13Z</time>
      </trkpt>
      <trkpt lat="43.29643" lon="-2.629867">
        <time>2023-01-08T10:03:15Z</time>
      </trkpt>
      <trkpt lat="43.296524" lon="-2.6298306">
        <time>2023-01-08T10:03:18Z</time>
      </trkpt>
      <trkpt lat="43.296608" lon="-2.6297996">
        <time>2023-01-08T10:03:21Z</time>
      </trkpt>
      <trkpt lat="43.29667" lon="-2.6297827">
        <time>2023-01-08T10:03:23Z</time>
      </trkpt>
      <trkpt lat="43.296734" lon="-2.6297634">
        <time>2023-01-08T10:03:25Z</time>
      </trkpt>
      <trkpt lat="43.296795" lon="-2.6297367">
        <time>2023-01-08T10:03:27Z</time>
      </trkpt>
      <trkpt lat="43.29684" lon="-2.6296997">
        <time>2023-01-08T10:03:29Z</time>
      </trkpt>
      <trkpt lat="43.296932" lon="-2.6296396">
        <time>2023-01-08T10:03:32Z</time>
      </trkpt>
      <trkpt lat="43.29702" lon="-2.6295786">
        <time>2023-01-08T10:03:35Z</time>
      </trkpt>
      <trkpt lat="43.29707" lon="-2.6295357">
        <time>2023-01-08T10:03:37Z</time>
      </trkpt>
      <trkpt lat="43.297115" lon="-2.629498">
        <time>2023-01-08T10:03:39Z</time>
      </trkpt>
      <trkpt lat="43.297153" lon="-2.629468">
        <time>2023-01-08T10:03:41Z</time>
      </trkpt>
      <trkpt lat="43.297207" lon="-2.6294065">
        <time>2023-01-08T10:03:45Z</time>
      </trkpt>
      <trkpt lat="43.297253" lon="-2.6293726">
        <time>2023-01-08T10:03:48Z</time>
      </trkpt>
      <trkpt lat="43.29732" lon="-2.629357">
        <time>2023-01-08T10:03:52Z</time>
      </trkpt>
      <trkpt lat="43.29738" lon="-2.6293433">
        <time>2023-01-08T10:03:55Z</time>
      </trkpt>
      <trkpt lat="43.297432" lon="-2.6293223">
        <time>2023-01-08T10:03:58Z</time>
      </trkpt>
      <trkpt lat="43.297497" lon="-2.6293054">
        <time>2023-01-08T10:04:01Z</time>
      </trkpt>
      <trkpt lat="43.297558" lon="-2.629301">
        <time>2023-01-08T10:04:05Z</time>
      </trkpt>
      <trkpt lat="43.29761" lon="-2.6293">
        <time>2023-01-08T10:04:08Z</time>
      </trkpt>
      <trkpt lat="43.297665" lon="-2.629315">
        <time>2023-01-08T10:04:11Z</time>
      </trkpt>
      <trkpt lat="43.29773" lon="-2.6293383">
        <time>2023-01-08T10:04:14Z</time>
      </trkpt>
      <trkpt lat="43.29779" lon="-2.629342">
        <time>2023-01-08T10:04:17Z</time>
      </trkpt>
      <trkpt lat="43.29785" lon="-2.6293144">
        <time>2023-01-08T10:04:20Z</time>
      </trkpt>
      <trkpt lat="43.29791" lon="-2.62928">
        <time>2023-01-08T10:04:22Z</time>
      </trkpt>
      <trkpt lat="43.297966" lon="-2.6292453">
        <time>2023-01-08T10:04:24Z</time>
      </trkpt>
      <trkpt lat="43.298027" lon="-2.629211">
        <time>2023-01-08T10:04:26Z</time>
      </trkpt>
      <trkpt lat="43.29808" lon="-2.6291757">
        <time>2023-01-08T10:04:28Z</time>
      </trkpt>
      <trkpt lat="43.29813" lon="-2.6291354">
        <time>2023-01-08T10:04:30Z</time>
      </trkpt>
      <trkpt lat="43.29818" lon="-2.6290836">
        <time>2023-01-08T10:04:33Z</time>
      </trkpt>
      <trkpt lat="43.29822" lon="-2.6290264">
        <time>2023-01-08T10:04:35Z</time>
      </trkpt>
      <trkpt lat="43.29826" lon="-2.6289754">
        <time>2023-01-08T10:04:37Z</time>
      </trkpt>
      <trkpt lat="43.298294" lon="-2.6289103">
        <time>2023-01-08T10:04:40Z</time>
      </trkpt>
      <trkpt lat="43.298336" lon="-2.6288607">
        <time>2023-01-08T10:04:43Z</time>
      </trkpt>
      <trkpt lat="43.298374" lon="-2.6288106">
        <time>2023-01-08T10:04:47Z</time>
      </trkpt>
      <trkpt lat="43.29842" lon="-2.6287634">
        <time>2023-01-08T10:04:50Z</time>
      </trkpt>
      <trkpt lat="43.298477" lon="-2.6287253">
        <time>2023-01-08T10:04:53Z</time>
      </trkpt>
      <trkpt lat="43.29854" lon="-2.6287007">
        <time>2023-01-08T10:04:56Z</time>
      </trkpt>
      <trkpt lat="43.298607" lon="-2.6286666">
        <time>2023-01-08T10:04:59Z</time>
      </trkpt>
      <trkpt lat="43.298717" lon="-2.628577">
        <time>2023-01-08T10:05:02Z</time>
      </trkpt>
      <trkpt lat="43.298794" lon="-2.6285107">
        <time>2023-01-08T10:05:05Z</time>
      </trkpt>
      <trkpt lat="43.29886" lon="-2.628471">
        <time>2023-01-08T10:05:07Z</time>
      </trkpt>
      <trkpt lat="43.29892" lon="-2.628439">
        <time>2023-01-08T10:05:09Z</time>
      </trkpt>
      <trkpt lat="43.298973" lon="-2.628408">
        <time>2023-01-08T10:05:11Z</time>
      </trkpt>
      <trkpt lat="43.299026" lon="-2.6283784">
        <time>2023-01-08T10:05:13Z</time>
      </trkpt>
      <trkpt lat="43.299076" lon="-2.628361">
        <time>2023-01-08T10:05:15Z</time>
      </trkpt>
      <trkpt lat="43.299133" lon="-2.6283562">
        <time>2023-01-08T10:05:17Z</time>
      </trkpt>
      <trkpt lat="43.2992" lon="-2.6283545">
        <time>2023-01-08T10:05:19Z</time>
      </trkpt>
      <trkpt lat="43.299263" lon="-2.6283617">
        <time>2023-01-08T10:05:21Z</time>
      </trkpt>
      <trkpt lat="43.299328" lon="-2.6283884">
        <time>2023-01-08T10:05:23Z</time>
      </trkpt>
      <trkpt lat="43.299385" lon="-2.6284184">
        <time>2023-01-08T10:05:25Z</time>
      </trkpt>
      <trkpt lat="43.299446" lon="-2.6284537">
        <time>2023-01-08T10:05:27Z</time>
      </trkpt>
      <trkpt lat="43.299496" lon="-2.6285067">
        <time>2023-01-08T10:05:29Z</time>
      </trkpt>
      <trkpt lat="43.299538" lon="-2.6285627">
        <time>2023-01-08T10:05:31Z</time>
      </trkpt>
      <trkpt lat="43.29958" lon="-2.6286123">
        <time>2023-01-08T10:05:33Z</time>
      </trkpt>
      <trkpt lat="43.29962" lon="-2.6286564">
        <time>2023-01-08T10:05:35Z</time>
      </trkpt>
      <trkpt lat="43.29966" lon="-2.6286926">
        <time>2023-01-08T10:05:37Z</time>
      </trkpt>
      <trkpt lat="43.29975" lon="-2.6287177">
        <time>2023-01-08T10:05:41Z</time>
      </trkpt>
      <trkpt lat="43.299793" lon="-2.6287434">
        <time>2023-01-08T10:05:43Z</time>
      </trkpt>
    </trkseg>
  </trk>
</gpx>
